[[{"header":{"parameterUnit":"m.s-1","parameterCategory":1,"la1":30.6,"la2":29.2853,"lo1":-89.7004,"lo2":-87.6739,"dx":0.0162,"dy":0.0183,"nx":112,"ny":82,"refTime":"2023-01-24T18:00:00:Z","depth":0,"parameterNumber":2,"parameterNumberName":"U-component_of_WINDS"},"data":[0.0,0.0,0.0,0.0,0.0,0.0,0.0,0.0,0.0,0.0,0.0,0.0,0.0,0.0,0.0,0.0,0.0,0.0,0.0,0.0,0.0,0.0,0.0,0.0,0.0,0.0,0.0,0.0,0.0,0.0,0.0,0.0,0.0,0.0,0.0,0.0,0.0,0.0,0.0,0.0,0.0,0.0,0.0,0.0,0.0,0.0,0.0,0.0,0.0,0.0,0.0,0.0,0.0,0.0,0.0,0.0,0.0,0.0,0.0,0.0,0.0,0.0,0.0,0.0,0.0,0.0,0.0,0.0,0.0,0.0,0.0,0.0,0.0,0.0,0.0,0.0,0.0,0.0,0.0,0.0,0.0,0.0,0.0,0.0,0.0,0.0,0.0,0.0,0.0,0.0,0.0,-0.9032,-0.829,-0.7837,-0.7837,-0.7698,-0.7863,-0.8521,0.0,0.0,0.0,0.0,0.0,0.0,0.0,0.0,0.0,0.0,0.0,0.0,0.0,0.0,0.0,0.0,0.0,0.0,0.0,0.0,0.0,0.0,0.0,0.0,0.0,0.0,0.0,0.0,0.0,0.0,0.0,0.0,0.0,0.0,0.0,0.0,0.0,0.0,0.0,0.0,0.0,0.0,0.0,0.0,0.0,0.0,0.0,0.0,0.0,0.0,0.0,0.0,0.0,0.0,0.0,0.0,0.0,0.0,0.0,0.0,0.0,0.0,0.0,0.0,0.0,0.0,0.0,0.0,0.0,0.0,0.0,0.0,0.0,0.0,0.0,0.0,0.0,0.0,0.0,0.0,0.0,0.0,0.0,0.0,0.0,0.0,0.0,0.0,0.0,0.0,0.0,0.0,0.0,0.0,0.0,0.0,0.0,0.0,0.0,0.0,0.0,0.0,0.0,0.0,-0.8354,-0.8189,-0.8074,-0.7975,-0.7975,-0.7951,-0.791,-0.7922,0.0,0.0,0.0,0.0,0.0,0.0,0.0,0.0,0.0,0.0,0.0,0.0,0.0,0.0,0.0,0.0,0.0,0.0,0.0,0.0,0.0,0.0,0.0,0.0,0.0,0.0,0.0,0.0,0.0,0.0,0.0,0.0,0.0,0.0,0.0,0.0,0.0,0.0,0.0,0.0,0.0,0.0,0.0,0.0,0.0,0.0,0.0,0.0,0.0,0.0,0.0,0.0,0.0,0.0,0.0,0.0,0.0,0.0,0.0,0.0,0.0,0.0,0.0,0.0,0.0,0.0,0.0,0.0,0.0,0.0,0.0,0.0,0.0,0.0,0.0,0.0,0.0,0.0,0.0,0.0,0.0,0.0,0.0,0.0,0.0,0.0,0.0,0.0,0.0,0.0,0.0,0.0,0.0,0.0,0.0,0.0,0.0,0.0,0.0,0.0,0.0,0.0,0.0,-0.8482,-0.8406,-0.8325,-0.8227,-0.8162,-0.8162,-0.8073,-0.7975,-0.7902,-0.7821,0.0,0.0,0.0,0.0,0.0,0.0,0.0,0.0,0.0,0.0,0.0,0.0,0.0,0.0,0.0,0.0,0.0,0.0,0.0,0.0,0.0,0.0,0.0,0.0,0.0,0.0,0.0,0.0,0.0,0.0,0.0,0.0,0.0,0.0,0.0,0.0,0.0,0.0,0.0,0.0,0.0,0.0,0.0,0.0,0.0,0.0,0.0,0.0,0.0,0.0,0.0,0.0,0.0,0.0,0.0,0.0,0.0,0.0,0.0,0.0,0.0,0.0,0.0,0.0,0.0,0.0,0.0,0.0,0.0,0.0,0.0,0.0,0.0,0.0,0.0,0.0,0.0,0.0,0.0,0.0,0.0,0.0,0.0,0.0,0.0,0.0,0.0,0.0,0.0,0.0,0.0,0.0,0.0,0.0,0.0,0.0,0.0,0.0,0.0,0.0,0.0,0.0,-0.8612,-0.8612,-0.8612,-0.8482,-0.8357,-0.8357,-0.8227,-0.813,-0.8081,-0.8081,0.0,0.0,0.0,0.0,0.0,0.0,0.0,0.0,0.0,0.0,0.0,0.0,0.0,0.0,0.0,0.0,0.0,0.0,0.0,0.0,0.0,0.0,0.0,0.0,0.0,0.0,0.0,0.0,0.0,0.0,0.0,0.0,0.0,0.0,0.0,0.0,0.0,0.0,0.0,0.0,0.0,0.0,0.0,0.0,0.0,0.0,0.0,0.0,0.0,0.0,0.0,0.0,0.0,0.0,0.0,0.0,0.0,0.0,0.0,0.0,0.0,0.0,0.0,0.0,0.0,0.0,0.0,0.0,0.0,0.0,0.0,0.0,0.0,0.0,0.0,0.0,0.0,0.0,0.0,0.0,0.0,0.0,0.0,0.0,0.0,0.0,0.0,0.0,0.0,0.0,0.0,0.0,0.0,0.0,0.0,0.0,0.0,0.0,0.0,0.0,0.0,0.0,-0.8612,-0.8612,-0.8612,-0.8604,-0.8596,-0.8596,-0.858,-0.8498,-0.8284,-0.8268,0.0,0.0,0.0,0.0,0.0,0.0,0.0,0.0,0.0,0.0,0.0,0.0,0.0,0.0,0.0,0.0,0.0,0.0,0.0,0.0,0.0,0.0,0.0,0.0,0.0,0.0,0.0,0.0,0.0,0.0,0.0,0.0,0.0,0.0,0.0,0.0,0.0,0.0,0.0,0.0,0.0,0.0,0.0,0.0,0.0,0.0,0.0,0.0,0.0,0.0,0.0,0.0,0.0,0.0,0.0,0.0,0.0,0.0,0.0,0.0,0.0,0.0,0.0,0.0,0.0,0.0,0.0,0.0,0.0,0.0,0.0,0.0,0.0,0.0,0.0,0.0,0.0,0.0,0.0,0.0,0.0,0.0,0.0,0.0,0.0,0.0,0.0,0.0,0.0,0.0,0.0,0.0,0.0,0.0,0.0,0.0,0.0,0.0,0.0,0.0,0.0,0.0,-0.8612,-0.8612,0.0,-0.8612,-0.8612,-0.8612,-0.8612,-0.858,-0.8514,0.0,0.0,0.0,0.0,0.0,0.0,0.0,0.0,0.0,0.0,0.0,0.0,0.0,0.0,0.0,0.0,0.0,0.0,0.0,0.0,0.0,0.0,0.0,0.0,0.0,0.0,0.0,0.0,0.0,0.0,0.0,0.0,0.0,0.0,0.0,0.0,0.0,0.0,0.0,0.0,0.0,0.0,0.0,0.0,0.0,0.0,0.0,0.0,0.0,0.0,0.0,0.0,0.0,0.0,0.0,0.0,0.0,0.0,0.0,0.0,0.0,0.0,0.0,0.0,0.0,0.0,0.0,0.0,0.0,0.0,0.0,0.0,0.0,0.0,0.0,0.0,0.0,0.0,0.0,0.0,0.0,0.0,0.0,0.0,0.0,0.0,0.0,0.0,0.0,0.0,0.0,0.0,0.0,0.0,0.0,0.0,0.0,0.0,0.0,0.0,0.0,0.0,-0.8612,-0.8612,-0.8612,0.0,-0.8612,-0.8612,-0.8612,-0.8612,-0.8612,-0.8612,0.0,0.0,0.0,0.0,0.0,0.0,0.0,0.0,0.0,0.0,0.0,0.0,0.0,0.0,0.0,0.0,0.0,0.0,0.0,0.0,0.0,0.0,0.0,0.0,0.0,0.0,0.0,0.0,0.0,0.0,0.0,0.0,0.0,0.0,0.0,0.0,0.0,0.0,0.0,0.0,0.0,0.0,0.0,0.0,0.0,0.0,0.0,0.0,0.0,0.0,0.0,0.0,0.0,0.0,0.0,0.0,0.0,0.0,0.0,0.0,0.0,0.0,0.0,0.0,0.0,0.0,0.0,0.0,0.0,0.0,0.0,0.0,0.0,0.0,0.0,0.0,0.0,0.0,0.0,0.0,0.0,0.0,0.0,0.0,0.0,0.0,0.0,0.0,0.0,0.0,0.0,0.0,0.0,0.0,0.0,0.0,0.0,0.0,0.0,0.0,0.0,0.0,-0.8612,-0.8612,-0.8612,-0.8612,-0.8612,-0.8612,-0.8612,-0.8612,-0.8612,0.0,0.0,0.0,0.0,0.0,0.0,0.0,0.0,0.0,0.0,0.0,0.0,0.0,0.0,0.0,0.0,0.0,0.0,0.0,0.0,0.0,0.0,0.0,0.0,0.0,0.0,0.0,0.0,0.0,0.0,0.0,0.0,0.0,0.0,0.0,0.0,0.0,0.0,0.0,0.0,0.0,0.0,0.0,0.0,0.0,0.0,0.0,0.0,0.0,0.0,0.0,0.0,0.0,0.0,0.0,0.0,0.0,0.0,0.0,0.0,0.0,0.0,0.0,0.0,0.0,0.0,0.0,0.0,0.0,0.0,0.0,0.0,0.0,0.0,0.0,0.0,0.0,0.0,0.0,0.0,0.0,0.0,0.0,0.0,0.0,0.0,0.0,0.0,0.0,0.0,0.0,0.0,0.0,0.0,0.0,0.0,0.0,0.0,0.0,0.0,0.0,0.0,0.0,-0.8629,-0.8612,-0.8612,-0.8612,-0.8612,-0.8612,-0.8612,-0.8612,-0.8612,-0.8612,0.0,0.0,0.0,0.0,0.0,0.0,0.0,0.0,0.0,0.0,0.0,0.0,0.0,0.0,0.0,0.0,0.0,0.0,0.0,0.0,0.0,0.0,0.0,0.0,0.0,0.0,0.0,0.0,0.0,0.0,0.0,0.0,0.0,0.0,0.0,0.0,0.0,0.0,0.0,0.0,0.0,0.0,0.0,0.0,0.0,0.0,0.0,0.0,0.0,0.0,0.0,0.0,0.0,0.0,0.0,0.0,0.0,0.0,0.0,0.0,0.0,0.0,0.0,0.0,0.0,0.0,0.0,0.0,0.0,0.0,0.0,0.0,0.0,0.0,0.0,0.0,0.0,0.0,0.0,0.0,0.0,0.0,0.0,0.0,0.0,0.0,0.0,0.0,0.0,0.0,0.0,0.0,0.0,0.0,0.0,0.0,0.0,0.0,0.0,0.0,0.0,0.0,-0.8336,-0.8599,-0.8779,-0.8779,-0.8779,-0.8747,-0.8674,-0.8666,-0.8641,-0.8612,0.0,0.0,0.0,0.0,0.0,0.0,0.0,0.0,0.0,0.0,0.0,0.0,0.0,0.0,0.0,0.0,0.0,0.0,0.0,0.0,0.0,0.0,0.0,0.0,0.0,0.0,0.0,0.0,0.0,0.0,0.0,0.0,0.0,0.0,0.0,0.0,0.0,0.0,0.0,0.0,0.0,0.0,0.0,0.0,0.0,0.0,0.0,0.0,0.0,0.0,0.0,0.0,0.0,0.0,0.0,0.0,0.0,0.0,0.0,0.0,0.0,0.0,0.0,0.0,0.0,0.0,0.0,0.0,0.0,0.0,0.0,0.0,0.0,0.0,0.0,0.0,0.0,0.0,0.0,0.0,0.0,0.0,0.0,0.0,0.0,0.0,0.0,0.0,0.0,0.0,0.0,0.0,0.0,0.0,0.0,0.0,0.0,0.0,0.0,0.0,0.0,0.0,-0.7778,-0.8434,-0.8863,-0.8863,-0.8956,-0.8938,-0.8724,-0.8799,-0.8779,-0.8669,0.0,0.0,0.0,0.0,0.0,0.0,0.0,0.0,0.0,0.0,0.0,0.0,0.0,0.0,0.0,0.0,0.0,0.0,0.0,0.0,0.0,0.0,0.0,0.0,0.0,0.0,0.0,0.0,0.0,0.0,0.0,0.0,0.0,0.0,0.0,0.0,0.0,0.0,0.0,0.0,0.0,0.0,0.0,0.0,0.0,0.0,0.0,0.0,0.0,0.0,0.0,0.0,0.0,0.0,0.0,0.0,0.0,0.0,0.0,0.0,-1.4633,0.0,0.0,0.0,0.0,0.0,0.0,0.0,0.0,0.0,0.0,0.0,0.0,0.0,0.0,0.0,0.0,0.0,0.0,0.0,0.0,0.0,0.0,0.0,0.0,0.0,0.0,0.0,0.0,0.0,0.0,0.0,0.0,0.0,0.0,0.0,0.0,0.0,0.0,0.0,0.0,0.0,-0.6992,-0.712,-0.7214,-0.7214,-0.7778,-0.8139,-0.8109,-0.866,-0.9023,-0.8991,-0.8982,0.0,0.0,0.0,0.0,0.0,0.0,0.0,0.0,0.0,0.0,0.0,0.0,0.0,0.0,0.0,0.0,0.0,0.0,0.0,0.0,0.0,0.0,0.0,0.0,0.0,0.0,0.0,0.0,0.0,0.0,0.0,0.0,0.0,0.0,0.0,0.0,0.0,0.0,0.0,0.0,0.0,0.0,0.0,0.0,0.0,0.0,0.0,0.0,0.0,0.0,0.0,0.0,0.0,0.0,0.0,0.0,0.0,0.0,0.0,0.0,-1.3824,0.0,0.0,0.0,0.0,0.0,0.0,0.0,0.0,0.0,0.0,0.0,0.0,0.0,0.0,0.0,0.0,0.0,0.0,0.0,0.0,0.0,0.0,0.0,0.0,0.0,0.0,0.0,0.0,0.0,0.0,0.0,0.0,0.0,0.0,0.0,0.0,0.0,0.0,0.0,0.0,-0.6414,-0.6694,-0.693,-0.693,-0.7656,-0.811,-0.8032,-0.8792,-0.9185,-0.9104,-0.9096,0.0,0.0,0.0,0.0,0.0,0.0,0.0,0.0,0.0,0.0,0.0,0.0,0.0,0.0,0.0,0.0,0.0,0.0,0.0,0.0,0.0,0.0,0.0,0.0,0.0,0.0,0.0,0.0,0.0,0.0,0.0,0.0,0.0,0.0,0.0,0.0,0.0,0.0,0.0,0.0,0.0,0.0,0.0,0.0,0.0,0.0,0.0,0.0,0.0,0.0,0.0,0.0,0.0,-1.6066,-1.581,-1.5447,-1.5664,-1.5006,-1.372,-1.4088,-1.3153,-1.1548,-1.2496,0.0,0.0,0.0,0.0,0.0,0.0,0.0,0.0,0.0,0.0,0.0,0.0,0.0,0.0,0.0,0.0,0.0,0.0,0.0,0.0,0.0,0.0,0.0,0.0,-0.6786,-0.6786,0.0,0.0,0.0,0.0,0.0,0.0,0.0,0.0,0.0,0.0,0.0,0.0,-0.5902,-0.6387,-0.6786,-0.6786,-0.7484,-0.7934,-0.7806,-0.8575,-0.8956,-0.8769,-0.8761,-0.8807,0.0,0.0,0.0,0.0,0.0,0.0,0.0,0.0,0.0,0.0,0.0,0.0,0.0,0.0,0.0,0.0,0.0,0.0,0.0,0.0,0.0,0.0,0.0,0.0,0.0,0.0,0.0,0.0,0.0,0.0,0.0,0.0,-1.7156,-1.6963,0.0,0.0,0.0,0.0,0.0,0.0,0.0,0.0,0.0,0.0,0.0,0.0,0.0,-1.673,-1.6767,-1.6526,-1.64,-1.6364,-1.5894,-1.5635,-1.5544,-1.5635,-1.5226,-1.4542,-1.46,0.0,-1.1845,-1.2173,0.0,0.0,0.0,0.0,0.0,0.0,0.0,0.0,0.0,0.0,0.0,0.0,0.0,0.0,0.0,0.0,0.0,0.0,0.0,0.0,0.0,0.0,-0.5344,-0.5174,-0.5135,-0.5135,0.0,-0.5687,-0.6142,-0.6142,-0.5586,0.0,0.0,0.0,0.0,0.0,0.0,0.0,-0.4985,-0.5035,-0.5135,-0.5135,-0.5837,-0.6287,-0.6271,-0.7012,-0.7502,-0.7434,-0.7434,-0.7432,-0.7324,-0.7208,0.0,0.0,0.0,0.0,0.0,0.0,0.0,0.0,0.0,0.0,0.0,0.0,0.0,0.0,0.0,0.0,0.0,0.0,0.0,0.0,0.0,0.0,0.0,0.0,0.0,0.0,0.0,0.0,0.0,-1.7502,-1.6987,-1.6709,-1.7247,-1.758,0.0,0.0,0.0,0.0,0.0,0.0,0.0,0.0,0.0,-1.6882,-1.6401,-1.6218,-1.6356,-1.6098,-1.5843,-1.571,-1.5471,-1.5332,-1.5192,-1.5192,-1.5077,-1.4787,-1.4787,-1.4328,-1.357,-1.3128,-1.2868,-1.2676,0.0,0.0,0.0,0.0,-1.2465,-1.2379,-1.2817,-1.2671,0.0,-1.1927,0.0,0.0,0.0,0.0,0.0,0.0,0.0,0.0,0.0,0.0,-0.5063,-0.4829,-0.4784,-0.4796,-0.49,-0.5167,-0.5403,0.0,-0.5035,-0.4784,-0.4784,0.0,0.0,0.0,0.0,-0.545,-0.4889,-0.4784,-0.4784,-0.4784,-0.5541,-0.5992,-0.5992,-0.6742,-0.7185,-0.7185,-0.7185,-0.7241,-0.7253,-0.674,-0.6685,0.0,0.0,0.0,0.0,0.0,0.0,0.0,0.0,0.0,0.0,0.0,0.0,0.0,0.0,0.0,0.0,0.0,0.0,0.0,0.0,0.0,0.0,0.0,0.0,0.0,0.0,0.0,0.0,-1.6921,-1.6435,-1.6179,-1.6592,-1.6787,0.0,0.0,0.0,0.0,0.0,0.0,-1.7126,-1.6751,-1.6629,-1.6811,-1.61,-1.5774,-1.6007,-1.5838,-1.5698,-1.5467,-1.5467,-1.5429,-1.5246,-1.5246,-1.5246,-1.5246,-1.5246,-1.5246,-1.5188,-1.4374,-1.3925,-1.3777,-1.3884,-1.3914,-1.3904,-1.3787,-1.3668,-1.3615,-1.4173,-1.3968,-1.3282,-1.2429,0.0,-0.9969,-0.8457,0.0,0.0,0.0,0.0,-0.6103,-0.6074,-0.5638,-0.5169,-0.5014,-0.4941,-0.4924,-0.499,-0.5006,-0.4986,0.0,-0.4853,-0.4853,-0.4853,0.0,0.0,0.0,0.0,-0.57,-0.4963,-0.4853,-0.4853,-0.4853,-0.5412,-0.5773,-0.5773,-0.6326,-0.6681,-0.6681,-0.6653,-0.6726,-0.6862,-0.6098,-0.6042,-0.6867,0.0,0.0,0.0,0.0,0.0,0.0,0.0,0.0,0.0,0.0,0.0,0.0,0.0,0.0,0.0,0.0,0.0,0.0,0.0,0.0,0.0,0.0,0.0,0.0,0.0,0.0,0.0,0.0,0.0,-1.4657,-1.5556,0.0,0.0,0.0,0.0,-1.6254,-1.568,-1.5304,-1.5304,-1.5531,-1.5661,-1.5672,-1.5877,-1.5996,-1.6007,-1.6172,-1.6269,-1.6258,-1.6258,-1.6258,-1.6247,-1.6247,-1.6247,-1.6247,-1.6247,-1.6247,-1.6194,-1.5408,-1.513,-1.5141,-1.5355,-1.5499,-1.5478,-1.5194,-1.5109,-1.5098,-1.5109,-1.5017,-1.4618,-1.3558,-1.1503,-0.9193,-0.7721,-0.6955,0.0,0.0,-0.6166,-0.5598,-0.5565,-0.5488,-0.5463,-0.5373,-0.5222,-0.5096,-0.51,-0.51,-0.51,0.0,-0.5096,-0.5096,-0.5096,0.0,-0.5153,-0.5096,-0.5153,-0.5153,-0.5096,-0.5096,-0.5096,-0.5096,-0.5096,-0.5149,-0.5149,-0.5202,-0.5197,-0.5197,-0.517,-0.512,-0.5124,-0.4934,-0.493,-0.5124,-0.5072,0.0,0.0,0.0,0.0,0.0,0.0,0.0,0.0,0.0,0.0,0.0,0.0,0.0,0.0,0.0,0.0,0.0,0.0,0.0,0.0,0.0,0.0,0.0,0.0,0.0,0.0,0.0,0.0,-1.4512,-1.5106,0.0,-1.5411,-1.541,-1.5431,-1.5565,-1.566,-1.5698,-1.5698,-1.5924,-1.6064,-1.6064,-1.605,-1.6007,-1.6007,-1.5881,-1.5849,-1.586,-1.6011,-1.6,-1.586,-1.6011,-1.6,-1.5849,-1.5849,-1.5849,-1.5849,-1.5741,-1.5795,-1.5946,-1.6032,-1.6064,-1.6054,-1.5968,-1.5838,-1.5579,-1.472,-1.4272,-1.3751,-1.1503,-0.9533,-0.7946,-0.7089,-0.6604,-0.6394,-0.6394,-0.614,-0.581,-0.5778,-0.5684,-0.5557,-0.5414,-0.5243,-0.5124,-0.5128,-0.5144,-0.5214,-0.5271,-0.519,-0.5108,-0.5108,-0.5108,-0.5108,-0.5108,-0.5108,-0.5108,-0.5108,-0.5108,-0.5108,-0.5108,-0.5108,-0.5108,-0.5108,-0.5108,-0.5108,-0.5108,-0.5079,-0.5059,-0.5059,-0.5026,-0.5026,-0.5059,-0.5059,-0.4691,0.0,0.0,0.0,0.0,0.0,0.0,0.0,0.0,0.0,0.0,0.0,0.0,0.0,0.0,0.0,0.0,0.0,0.0,0.0,0.0,0.0,0.0,0.0,0.0,0.0,0.0,-1.4945,-1.4738,-1.4995,-1.5156,-1.5128,-1.5145,-1.522,-1.5306,-1.5655,-1.592,-1.6007,-1.6108,-1.6226,-1.6312,-1.6161,-1.6075,-1.6075,-1.5914,-1.5838,-1.5838,-1.6,-1.5989,-1.5849,-1.6,-1.5989,-1.5838,-1.5838,-1.5838,-1.5849,-1.6011,-1.6172,-1.6312,-1.6312,-1.6312,-1.6312,-1.6312,-1.6215,-1.587,-1.4485,-1.3326,-1.218,-1.0126,-0.8538,-0.7368,-0.7015,-0.6788,-0.6611,-0.668,-0.6567,-0.6445,-0.6506,-0.6249,-0.6013,-0.586,-0.5566,-0.5322,-0.5275,-0.5292,-0.5308,-0.5369,-0.5284,-0.5202,-0.5202,-0.5202,-0.5202,-0.5202,-0.5202,-0.5202,-0.5202,-0.5202,-0.5202,-0.5202,-0.5202,-0.5202,-0.5202,-0.5202,-0.5202,-0.5202,-0.5169,-0.5153,-0.5153,-0.5124,-0.5108,-0.5108,-0.5108,-0.4631,-0.3725,0.0,0.0,0.0,0.0,0.0,0.0,0.0,0.0,0.0,0.0,0.0,0.0,0.0,0.0,0.0,0.0,0.0,0.0,0.0,0.0,0.0,0.0,0.0,-1.4848,-1.5095,-1.5188,-1.5188,-1.5199,-1.5295,-1.558,-1.5338,-1.5295,-1.5591,-1.5612,-1.5709,-1.6007,-1.6017,-1.6126,-1.6301,-1.6312,-1.6312,-1.6312,-1.6312,-1.6312,-1.6312,-1.6334,-1.6334,-1.6323,-1.6334,-1.6334,-1.6334,-1.6334,-1.6334,-1.6334,-1.6334,-1.6271,-1.6271,-1.6323,-1.6312,-1.6312,-1.6312,-1.625,-1.5959,-1.4421,-1.2258,-1.0081,-0.9808,-0.8671,-0.748,-0.7593,-0.7378,-0.7171,-0.7382,-0.7444,-0.7426,-0.7626,-0.7293,-0.687,-0.6656,-0.6178,-0.5712,-0.5493,-0.5382,-0.5382,-0.5382,-0.5382,-0.5382,-0.5382,-0.5382,-0.5382,-0.5382,-0.5382,0.0,-0.5382,-0.5382,-0.5382,-0.5382,-0.5382,-0.5382,-0.5382,-0.5382,-0.5382,-0.5382,-0.53,-0.5192,-0.5192,-0.5165,-0.5116,-0.5116,-0.5116,-0.4851,-0.4322,0.0,0.0,0.0,0.0,0.0,0.0,0.0,0.0,0.0,0.0,0.0,0.0,0.0,0.0,0.0,0.0,0.0,0.0,0.0,0.0,0.0,0.0,-1.4815,-1.488,-1.5095,-1.5188,-1.5188,-1.5397,-1.5526,-1.5591,-1.5537,-1.5601,-1.5899,-1.5909,-1.6017,-1.6204,-1.6215,-1.6247,-1.6312,-1.6312,-1.6312,-1.6312,-1.6312,-1.6312,-1.6312,-1.6657,-1.6721,-1.6571,-1.6743,-1.6818,-1.6807,-1.6635,-1.6657,-1.6818,-1.6818,-1.6167,-1.5218,-1.6003,-1.6312,-1.6312,-1.6312,-1.5047,-1.3206,-1.1776,-1.0132,-0.8747,-0.8643,-0.8322,-0.8033,-0.8151,-0.7987,-0.7817,-0.7962,-0.7854,-0.7785,-0.7843,-0.7468,-0.7017,-0.6978,-0.6355,-0.5768,-0.5712,-0.5549,-0.5382,-0.5382,-0.5382,-0.5382,-0.5382,-0.5382,-0.5382,-0.5382,-0.5382,0.0,-0.5382,-0.5382,-0.5382,-0.5382,-0.5382,-0.5382,-0.5382,-0.5382,-0.5382,-0.5382,-0.5357,-0.5345,-0.5345,-0.532,-0.5308,-0.5308,-0.4863,-0.4584,0.0,0.0,0.0,0.0,0.0,0.0,0.0,0.0,0.0,0.0,0.0,0.0,0.0,0.0,0.0,0.0,0.0,0.0,0.0,0.0,0.0,0.0,-1.541,-1.5585,-1.5585,-1.5475,-1.5397,-1.5397,-1.5601,-1.5741,-1.5741,-1.5838,-1.6017,-1.6331,-1.6219,-1.6309,-1.6781,-1.6666,-1.67,-1.6894,-1.6904,-1.6904,-1.6904,-1.6904,-1.6904,-1.6904,-1.7173,-1.7238,-1.7109,-1.7238,-1.7303,-1.7292,-1.7163,-1.7184,-1.7237,-1.6567,-1.583,0.0,0.0,0.0,0.0,0.0,-1.3223,-1.1325,-1.051,-0.9346,-0.8312,-0.8312,-0.8345,-0.8405,-0.853,-0.8478,-0.8433,-0.8533,-0.8483,-0.8404,-0.8449,-0.8009,-0.7559,-0.7428,-0.6798,-0.6158,-0.6047,-0.5768,-0.5545,-0.5545,-0.5493,0.0,-0.5382,-0.5382,-0.5382,-0.5382,-0.5382,-0.5382,-0.5382,-0.5382,-0.5382,-0.5382,-0.5382,-0.5382,-0.5382,-0.5382,0.0,0.0,0.0,-0.5382,-0.5382,-0.5382,0.0,0.0,0.0,-0.4875,-0.4875,0.0,0.0,0.0,-0.4083,-0.3863,0.0,0.0,0.0,0.0,0.0,0.0,0.0,0.0,0.0,0.0,0.0,0.0,0.0,0.0,0.0,0.0,-1.6345,-1.649,-1.6512,-1.6109,-1.5753,-1.5753,-1.597,-1.6171,-1.6171,-1.6306,-1.6571,-1.6903,-1.6655,-1.6801,-1.7507,0.0,0.0,0.0,0.0,-1.768,-1.768,-1.7701,-1.7723,-1.7723,-1.7744,-1.7766,-1.7766,-1.7766,-1.7776,-1.7798,-1.7563,-1.7495,-1.7391,-1.5875,-1.5105,-1.4887,-1.4539,-1.3608,-1.2346,-1.2051,-1.1224,-1.0267,-1.0062,0.0,0.0,-0.8459,-0.8535,-0.8649,-0.8774,-0.8812,-0.8856,-0.909,-0.9155,-0.9177,-0.9275,-0.8802,-0.8232,-0.7969,-0.7331,-0.6735,-0.6458,-0.6153,-0.5855,-0.5855,-0.5635,-0.5466,-0.541,-0.5394,-0.5382,-0.5382,-0.5382,-0.5382,-0.5382,-0.5382,-0.5382,-0.5382,0.0,0.0,-0.5382,-0.5382,-0.5382,-0.5382,-0.5382,-0.5382,-0.5382,-0.5382,-0.5382,-0.5382,-0.5382,-0.5382,-0.5382,-0.5382,-0.5382,-0.5382,-0.4316,-0.3813,0.0,0.0,0.0,0.0,0.0,0.0,0.0,0.0,0.0,0.0,0.0,0.0,0.0,0.0,0.0,-1.6218,-1.6343,-1.6606,-1.6811,-1.6714,-1.6654,-1.6654,-1.688,-1.7049,-1.7049,-1.7095,-1.7196,-1.7525,-1.7474,-1.7535,-1.7893,-1.784,-1.7692,-1.7543,-1.773,-1.7697,-1.7443,-1.7626,-1.7723,-1.7723,0.0,0.0,-1.8024,-1.8024,-1.8121,-1.8213,-1.6757,-1.6292,-1.6387,-1.4833,-1.3404,-1.2285,-1.315,-1.3325,-1.2895,-1.1591,-1.0999,-1.0585,-0.9341,-0.8795,-0.8704,-0.8704,-0.8785,-0.8836,-0.9024,-0.9063,0.0,-0.9231,-0.9269,-0.9275,-0.9296,-0.8986,-0.8666,-0.8598,-0.7933,-0.7255,-0.7195,-0.6818,-0.6348,-0.6121,-0.6005,-0.5888,-0.5594,-0.5475,-0.5382,-0.5382,-0.5382,-0.5382,-0.5382,-0.5382,-0.5382,-0.5382,-0.5382,-0.5382,-0.5382,-0.5382,-0.5382,-0.5382,-0.5382,-0.5382,-0.5382,-0.5382,-0.5382,-0.5382,-0.5382,-0.5382,-0.5382,-0.5382,-0.5382,-0.5382,-0.5158,-0.5046,0.0,0.0,0.0,0.0,0.0,0.0,0.0,0.0,0.0,0.0,0.0,-1.6686,0.0,0.0,-1.6888,-1.7032,-1.7114,-1.7291,-1.7561,-1.7702,-1.7614,-1.7181,-1.7337,-1.7485,-1.7485,-1.7599,-1.7788,-1.8105,-1.7989,-1.8029,-1.8411,-1.8293,-1.8157,-1.8073,-1.8195,-1.8125,-1.7906,-1.7258,-1.6965,-1.6965,-1.63,-1.6008,-1.6008,-1.6788,-1.6767,-1.616,-1.607,-1.5701,-1.4943,-1.3527,-1.1994,-1.062,-1.1201,-1.1275,-1.0938,-1.0179,-0.9886,-0.9799,-0.8991,-0.8802,-0.8943,-0.8883,-0.8981,-0.9139,-0.9198,-0.922,-0.9242,-0.9362,-0.9394,-0.941,-0.947,-0.922,-0.8954,-0.8954,-0.8317,-0.7779,-0.7779,-0.7245,-0.6813,-0.6637,-0.6467,-0.6291,-0.6111,-0.592,-0.5688,-0.5512,-0.5512,-0.5512,-0.5512,-0.5512,-0.5512,-0.5512,-0.5512,-0.5512,-0.5512,-0.5512,-0.5512,-0.5512,-0.5512,-0.5512,-0.5512,-0.5512,-0.5512,-0.5512,-0.5512,-0.5512,-0.5512,-0.5512,-0.5512,-0.5512,-0.5512,-0.5467,0.0,0.0,0.0,0.0,0.0,0.0,0.0,0.0,-1.6975,-1.6532,-1.6645,-1.6879,-1.69,-1.7122,-1.7406,-1.7877,-1.795,-1.8046,-1.8336,-1.8553,-1.8438,-1.7711,-1.7811,-1.8001,-1.8001,-1.8111,-1.8366,-1.8699,-1.8431,-1.8471,-1.9001,-1.8684,-1.8572,-1.8618,-1.832,-1.8095,-1.7868,-1.6494,-1.5735,-1.5735,-1.452,-1.388,-1.3951,-1.5159,-1.5088,-1.3959,-1.4995,-1.4583,-1.3102,-1.1912,-1.0784,-0.9671,-0.9671,-0.9432,-0.9019,-0.8992,-0.8987,-0.9035,-0.8916,-0.9019,-0.9188,-0.9019,-0.9198,-0.9378,-0.9378,-0.9378,-0.9394,-0.9492,-0.9525,-0.9546,-0.9644,-0.9454,-0.922,-0.915,-0.8649,-0.824,-0.8169,-0.7641,-0.723,-0.7172,-0.6936,-0.6759,-0.6641,-0.6409,-0.6101,-0.5768,-0.5643,-0.5584,-0.5584,-0.5584,-0.5584,-0.5584,-0.5584,-0.5584,-0.5584,-0.5584,-0.5584,-0.5584,-0.5584,-0.5584,-0.5584,-0.5584,-0.5584,-0.5584,-0.5584,-0.5584,-0.5584,-0.5584,-0.5584,-0.5584,-0.5584,-0.5569,0.0,0.0,0.0,-1.638,-1.6694,-1.6996,0.0,0.0,-1.708,-1.6999,-1.7237,-1.7479,-1.7732,-1.7781,-1.7889,-1.8191,-1.8251,-1.8336,-1.8601,-1.8662,-1.8758,-1.89,-1.8948,-1.8972,-1.8972,-1.8932,-1.9008,-1.9008,-1.9008,-1.9128,-1.9393,-1.9078,-1.8812,-1.8766,-1.7333,-1.6402,-1.6075,-1.4788,-1.4164,-1.4164,-1.3951,-1.388,-1.388,-1.4093,-1.4093,-1.3817,-1.2764,-1.1523,-1.0168,-1.0035,-0.9816,-0.9671,-0.9671,-0.9639,-0.9579,-0.9465,-0.9427,-0.941,-0.9285,-0.9334,-0.9443,-0.9432,-0.9519,-0.9628,-0.9628,-0.9628,-0.9633,-0.9644,-0.965,-0.9655,-0.9666,-0.9639,-0.953,-0.9209,-0.8905,-0.86,-0.8285,-0.8013,-0.7712,-0.7408,-0.7347,-0.7225,-0.6926,-0.6804,-0.6621,-0.6142,-0.5764,-0.5584,-0.5584,-0.5584,-0.5584,-0.5584,-0.5584,-0.5584,-0.5584,-0.5584,-0.5584,-0.5584,-0.5584,-0.5584,-0.5584,-0.5584,-0.5584,-0.5584,-0.5584,-0.5584,-0.5584,-0.5584,-0.5584,-0.5584,-0.5584,-0.5576,-1.6643,0.0,0.0,0.0,-1.7382,-1.7515,-1.7406,-1.7467,-1.7551,-1.7551,-1.7636,-1.7793,-1.807,-1.8118,-1.8203,0.0,-1.865,-1.8843,-1.9096,-1.9145,-1.9181,-1.9289,-1.9301,-1.9241,-1.9096,-1.9217,-1.9301,-1.9301,-1.9458,-1.9184,-1.8405,-1.8217,-1.7591,-1.6392,-1.5653,-1.5129,-1.4683,-1.3263,-1.2588,-1.2516,-1.1664,-1.1234,-1.1234,-1.2158,-1.2567,-1.2598,-1.1228,-1.0214,-0.9682,-0.9818,-0.9835,-0.9775,-0.9845,-0.9873,-0.9851,-0.9661,-0.9595,-0.9574,-0.9454,-0.9492,-0.9579,-0.9508,-0.9568,-0.9671,-0.9671,-0.9671,-0.9682,-0.9748,-0.9769,-0.9786,-0.9856,-0.9873,-0.9786,-0.9427,-0.9101,-0.878,-0.8421,-0.8095,-0.7872,-0.7689,-0.7689,-0.7627,-0.7505,-0.7327,-0.7113,-0.6899,-0.6404,-0.5983,-0.5802,-0.5802,-0.5802,-0.5802,-0.5802,-0.5802,-0.5802,-0.5802,-0.5802,-0.5802,-0.5802,-0.5802,-0.5802,-0.5802,-0.5802,-0.5802,-0.5802,-0.5802,-0.5802,-0.5802,-0.5802,-0.5802,-0.5802,-0.5802,-1.6718,0.0,0.0,-1.7768,-1.7986,-1.8094,-1.8094,-1.8094,-1.8118,-1.8252,-1.8143,-1.8179,-1.8456,-1.8505,0.0,-1.8855,-1.912,-1.9362,-1.9555,-1.9584,-1.9364,-1.9029,-1.8905,-1.8626,-1.812,-1.8665,-1.8847,-1.837,-1.8541,-1.8204,-1.7099,-1.6963,-1.6314,-1.4937,-1.4386,-1.3891,-1.3595,-1.1951,-1.1181,-1.1148,-0.9931,-0.9372,-0.9478,-1.0559,-1.11,-1.1097,-1.0134,-0.9688,-0.9726,-0.9867,-0.9911,-0.9894,-0.9949,-0.9992,-0.9998,-0.9829,-0.9764,-0.9753,-0.9666,-0.9693,-0.9753,-0.9661,-0.9693,-0.9764,-0.9764,-0.9764,-0.9786,-0.9862,-0.9889,-0.9905,-0.9998,-1.0019,-0.9905,-0.9449,-0.9139,-0.8755,-0.8367,-0.8057,-0.7872,-0.7872,-0.7872,-0.7872,-0.7872,-0.7689,-0.7505,-0.7388,-0.7016,-0.6526,-0.6101,-0.5978,-0.5916,-0.5916,-0.5916,-0.5916,-0.5916,-0.5916,-0.5916,-0.5916,-0.5916,-0.5916,-0.5916,-0.5916,-0.5916,-0.5916,-0.5916,-0.5916,-0.5916,-0.5916,-0.5916,-0.5916,-0.5916,-0.5916,0.0,0.0,-1.8505,-1.7998,-1.8263,-1.8662,-1.8662,-1.8662,-1.8734,-1.8988,-1.8843,-1.8746,-1.9,-1.9048,-1.9132,-1.9398,-1.9676,-1.9869,-1.9869,-1.9639,-1.9029,-1.7781,-1.7408,-1.6757,0.0,-1.6919,-1.7176,-1.5526,-1.5637,-1.576,-1.575,-1.5482,-1.5365,-1.5566,-1.3737,-1.2745,-1.2745,-1.0881,-1.0015,-1.0143,-0.9702,-0.9541,-0.9661,-0.9736,-0.967,-0.9566,-0.9692,-0.9731,-0.9824,-0.972,-0.9813,-1.0003,-0.9889,-0.9916,-1.0019,-1.0014,-1.0008,-1.0008,-1.0003,-1.0008,-1.0008,-1.0003,-1.0008,-1.0008,-1.0008,-1.0008,-1.0008,-1.0014,-1.0014,-1.0014,-1.0019,-1.0019,-0.984,-0.9062,-0.889,-0.869,-0.804,-0.7877,-0.7872,-0.7872,-0.7872,-0.7872,-0.7872,-0.7872,-0.775,-0.7449,-0.7388,-0.7138,-0.6464,-0.6101,-0.5916,-0.5916,-0.5916,-0.5916,-0.5916,-0.5916,-0.5916,-0.5916,-0.5916,-0.5916,-0.5916,-0.5916,-0.5916,-0.5916,-0.5916,-0.5916,-0.5916,-0.5916,-0.5916,-0.5916,-0.5916,-0.5916,0.0,0.0,-1.8469,-1.8625,-1.8807,-1.8951,-1.8951,-1.8951,-1.9012,-1.9277,-1.8988,-1.877,-1.9024,-1.9072,-1.9108,-1.9193,-1.9736,-1.9796,-1.8755,-1.8541,-1.7966,-1.6539,-1.6275,0.0,0.0,0.0,0.0,-1.5587,-1.5906,-1.5692,-1.4568,-1.4474,-1.3873,-1.261,-1.1893,-1.1469,-1.1247,-1.0599,-1.0191,-0.9948,-0.9668,-0.9508,-0.9552,-0.9633,-0.965,-0.9617,-0.9731,-0.9758,-0.9737,-0.9851,-0.99,-0.9905,-0.9943,-0.9981,-1.0019,-1.0019,-1.0019,-1.0008,-0.9927,-0.9954,-0.9998,-0.984,-0.9894,-1.0003,-0.9921,-0.9954,-1.0019,-1.0019,-1.0019,-1.0019,-1.0019,-1.0019,-0.99,-0.9421,-0.9122,-0.8749,-0.8339,-0.804,-0.7872,-0.7872,-0.7872,-0.7872,-0.7872,-0.7872,-0.7899,-0.7857,-0.7434,-0.6959,-0.6775,-0.6653,-0.6591,-0.6591,-0.6346,-0.6219,-0.6219,-0.6039,-0.5916,-0.5916,-0.5916,-0.5916,-0.5916,-0.5916,-0.5916,-0.5916,-0.5916,-0.5916,-0.5916,-0.5916,-0.5916,-0.5916,-0.5916,-0.5916,0.0,-1.8577,-1.8915,-1.9157,-1.9289,-1.9386,-1.9483,-1.9579,-1.9688,-1.9857,-1.9483,-1.9132,-1.9205,-1.906,-1.9,-1.9181,-1.9808,-1.9814,-1.836,-1.8164,-1.7403,-1.5314,-1.4972,0.0,0.0,0.0,0.0,-1.4285,-1.4711,-1.4375,-1.3202,-1.3222,-1.2634,-1.1266,-1.1188,-1.1109,-1.0887,-1.0599,-1.0263,-0.973,-0.9684,-0.959,-0.9557,-0.972,-0.9748,-0.9677,-0.9791,-0.9796,-0.9737,-0.9851,-0.99,-0.9905,-0.9943,-0.9981,-1.0019,-1.0019,-1.0019,-1.0003,-0.9878,-0.9889,-0.9921,-0.9731,-0.9796,-0.9938,-0.9862,-0.9921,-1.0019,-1.0019,-1.0019,-1.0019,-1.0019,-1.0019,-0.9932,-0.9574,-0.9215,-0.8782,-0.8497,-0.8133,-0.7883,-0.7988,-0.7999,-0.7948,-0.7992,-0.8002,-0.803,-0.8106,-0.7681,-0.7324,-0.7194,-0.7075,-0.7075,-0.7075,-0.6696,-0.6509,-0.6509,-0.6197,-0.601,-0.601,-0.5982,-0.5965,-0.5965,-0.5937,-0.5916,-0.5916,-0.5916,-0.5916,-0.5916,-0.5916,-0.5916,-0.5916,-0.5916,-0.5937,-1.8408,-1.9108,-1.9833,-1.9591,-1.9736,-2.0014,-2.0255,-2.0509,-2.0759,-2.0665,-2.0231,-1.9772,0.0,0.0,-1.8879,-1.9333,-1.9874,-1.9759,-1.8379,-1.8201,-1.7067,0.0,0.0,0.0,0.0,0.0,0.0,-1.183,0.0,-1.2135,-1.1837,-1.183,-1.1769,-1.1626,-1.1619,-1.1619,-1.1619,-1.0894,-1.0233,-0.9555,-0.9715,-0.9775,-0.9677,-0.9916,-0.99,-0.9693,-0.9802,-0.9845,-0.984,-0.9731,-0.9818,-1.0008,-0.9894,-0.9916,-1.0019,-1.0019,-1.0014,-0.9992,-0.9873,-0.9835,-0.9818,-0.9693,-0.9737,-0.9835,-0.9824,-0.9911,-1.0019,-1.0014,-1.0014,-1.0019,-1.0019,-1.0019,-0.9932,-0.9595,-0.9226,-0.8793,-0.8519,-0.8149,-0.7977,-0.8092,-0.8119,-0.81,-0.8214,-0.8178,-0.8183,-0.8183,-0.8183,-0.8119,-0.7783,-0.7527,-0.7335,-0.7335,-0.702,-0.6763,-0.6763,-0.6438,-0.6246,-0.6246,-0.6104,-0.6059,-0.6059,-0.5978,-0.5933,-0.5933,-0.5933,-0.5933,-0.5933,-0.5933,-0.5933,-0.5933,-0.5933,-0.5978,-1.9024,-1.9519,-1.9965,-2.0279,-2.0626,-2.0774,-2.0917,-2.0977,-2.0977,-2.0702,-1.9929,-1.9386,0.0,0.0,0.0,-1.8195,-1.8561,0.0,-1.5434,-1.5088,0.0,0.0,0.0,-1.214,-1.2005,-1.1952,0.0,0.0,-1.1965,-1.187,-1.1681,-1.1775,-1.1769,-1.1626,-1.1619,-1.1619,-1.1619,-1.1116,-1.0696,-1.0221,-1.0116,-0.9919,-0.9677,-0.9916,-0.9987,-0.9932,-0.996,-0.9976,-0.997,-0.9943,-0.9965,-1.0019,-0.9987,-0.9992,-1.0019,-1.0019,-0.9965,-0.9867,-0.9753,-0.9769,-0.9786,-0.9492,-0.9595,-0.9807,-0.9628,-0.9786,-1.0003,-0.9911,-0.9949,-1.0019,-1.0019,-1.0019,-0.9998,-0.9905,-0.9405,-0.8857,-0.8766,-0.8388,-0.8075,-0.8108,-0.8127,-0.8198,-0.8167,-0.8312,-0.8372,-0.8372,-0.8443,-0.8366,-0.813,-0.8039,-0.798,-0.798,-0.7655,-0.7459,-0.7459,-0.7207,-0.7015,-0.7015,-0.6673,-0.6536,-0.6536,-0.6256,-0.6112,-0.6112,-0.6112,-0.6112,-0.6112,-0.6112,-0.6112,-0.6112,-0.6112,-0.6125,-1.947,-1.9857,-2.0183,-2.0702,-2.111,-2.1148,-2.0798,-2.088,-2.0783,-2.0098,-1.9398,0.0,0.0,0.0,0.0,0.0,0.0,0.0,-1.4227,-1.4018,-1.3543,0.0,-1.1891,0.0,-1.2054,-1.2135,-1.2033,0.0,-1.1945,-1.187,-1.1721,-1.1789,-1.1769,-1.1626,-1.1619,-1.1548,-1.1332,-1.1116,-1.075,-1.0239,-1.016,-0.9956,-0.9595,-0.978,-0.9894,-0.9938,0.0,-0.9938,-0.9943,-0.9998,-0.9987,-0.9943,-0.9998,-1.0019,-1.0019,-1.0019,-0.9943,-0.9818,-0.9709,-0.9677,-0.9639,-0.9389,-0.9476,-0.9661,-0.953,-0.9666,-0.9862,-0.9845,-0.9889,-0.9954,-1.0008,-0.9981,-0.9954,-1.0008,-0.9432,-0.8932,-0.9139,-0.859,-0.8147,-0.8193,-0.8307,-0.8388,-0.8388,-0.8448,-0.8492,-0.8492,-0.8546,-0.8541,-0.8405,-0.8388,-0.8388,-0.8388,-0.8063,-0.7867,-0.7867,-0.7606,-0.7416,-0.7416,-0.6983,-0.6766,-0.6766,-0.6395,-0.6182,-0.6182,-0.6182,-0.6182,-0.6182,-0.6182,-0.6182,-0.6182,-0.6182,-0.6202,-1.9808,-2.0183,-2.0557,-2.104,-2.1354,-2.1317,-2.0509,-2.0484,-2.0327,-1.9289,0.0,0.0,-1.912,0.0,-1.6414,-1.729,0.0,-1.5025,-1.3784,-1.3881,-1.3598,-1.2017,-1.1999,-1.2101,-1.2121,-1.2101,-1.2033,-1.1904,-1.1999,-1.1986,-1.1809,-1.1803,-1.1748,-1.1619,-1.1619,-1.1404,-1.1116,-1.1116,-1.075,-1.0029,-1.0158,-0.9928,-0.9566,-0.9686,-0.972,-0.9813,-0.9813,0.0,-0.9845,-0.9954,-0.9943,-0.9873,-0.9976,-1.0019,-1.0019,-1.0019,-0.9943,-0.9824,-0.9726,-0.9601,-0.9465,-0.9345,-0.9389,-0.9487,-0.9465,-0.9557,-0.9693,-0.9786,-0.9824,-0.9862,-0.997,-0.9916,-0.9862,-0.997,-0.9405,-0.8959,-0.9394,-0.878,-0.8273,-0.8405,-0.8519,-0.859,-0.859,-0.859,-0.859,-0.859,-0.859,-0.859,-0.859,-0.859,-0.859,-0.859,-0.8323,-0.8189,-0.8189,-0.7861,-0.766,-0.766,-0.7308,-0.7065,-0.7065,-0.6584,-0.6279,-0.6279,-0.6279,-0.6219,-0.6219,-0.6219,-0.6219,-0.6219,-0.6219,-0.6259,-2.0122,-2.0726,-2.1341,-2.1655,-2.1764,-2.1595,-2.0786,-2.0472,0.0,0.0,0.0,-1.865,-1.9579,-1.8044,0.0,-1.6372,0.0,0.0,0.0,0.0,-1.2199,0.0,0.0,0.0,0.0,0.0,0.0,0.0,0.0,-1.1945,-1.1674,-1.1653,-1.1647,-1.1619,-1.1619,-1.1548,-1.1476,-1.1476,-1.126,-1.0828,-1.0596,-1.0363,-1.0007,-0.9761,-0.9682,-0.9699,-0.9699,0.0,-0.984,-0.9862,-0.9916,-0.9992,-1.0014,-1.0019,-1.0019,-1.0019,-0.9943,-0.9835,-0.9813,-0.9666,-0.9465,-0.9345,-0.9389,-0.947,-0.9367,-0.9492,-0.9671,-0.9693,-0.9764,-0.984,-0.9862,-0.9851,-0.9845,-0.9862,-0.953,-0.9264,-0.9449,-0.9046,-0.8628,-0.8568,-0.8573,-0.859,-0.859,-0.859,-0.859,-0.859,-0.859,-0.859,-0.859,-0.859,-0.859,-0.859,-0.8523,-0.8523,-0.8523,-0.8456,-0.839,-0.839,-0.8107,-0.7897,-0.7897,-0.7208,-0.6867,-0.6867,-0.6606,-0.6473,-0.6473,-0.6473,-0.6473,-0.6473,-0.6473,-0.6481,-2.0376,-2.0955,-2.1631,-2.2043,-2.1969,-2.1583,-2.0509,0.0,0.0,0.0,0.0,-1.8118,-1.8915,0.0,0.0,0.0,0.0,0.0,0.0,0.0,0.0,0.0,0.0,0.0,0.0,0.0,0.0,0.0,0.0,-1.2047,-1.1748,-1.1728,-1.1694,-1.1619,-1.1694,-1.1694,-1.1619,-1.1404,-1.1188,-1.0972,-1.045,-1.0117,-0.9977,-0.9674,-0.9514,-0.9574,-0.9574,0.0,-0.9666,-0.9786,-0.9802,-0.9753,-0.9878,-0.9927,-0.9927,-0.9927,-0.9889,-0.9829,-0.9769,-0.9633,-0.9465,-0.9345,-0.9345,-0.9383,-0.9323,-0.9383,-0.9492,-0.9557,-0.9612,-0.9671,-0.9731,-0.9704,-0.9688,-0.9807,-0.9753,-0.9574,-0.9198,-0.9079,-0.8959,-0.8649,-0.859,-0.859,-0.859,-0.859,-0.859,-0.859,-0.859,-0.859,-0.859,-0.859,-0.859,-0.859,-0.859,-0.859,-0.859,-0.859,-0.859,-0.859,-0.8256,-0.8123,-0.8123,-0.7588,-0.7254,-0.7254,-0.692,-0.6786,-0.6786,-0.6585,-0.6522,-0.6522,-0.6522,-0.6522,-2.0509,-2.1052,-2.1631,-2.1993,-2.1897,-2.1366,-2.0086,-1.9579,0.0,0.0,0.0,-1.7648,-1.8191,0.0,0.0,0.0,0.0,0.0,0.0,0.0,0.0,0.0,0.0,0.0,0.0,0.0,0.0,0.0,0.0,0.0,-1.1891,-1.1877,-1.1816,-1.1667,-1.1775,-1.1762,-1.1619,-1.126,-1.1116,-1.0972,-1.0311,-0.9951,-0.9879,-0.9446,-0.9356,-0.9449,-0.9476,0.0,0.0,-0.9753,-0.9726,-0.9579,-0.9764,-0.9824,-0.9802,-0.9802,-0.9802,-0.9791,-0.9699,-0.959,-0.947,-0.9372,-0.9323,-0.9302,-0.9302,-0.9302,-0.9329,-0.9454,-0.9487,-0.9508,-0.9606,-0.9557,-0.9541,-0.9753,-0.9911,-0.9813,-0.9046,-0.9106,-0.916,-0.8682,-0.859,-0.859,-0.859,-0.859,-0.859,-0.859,-0.859,-0.859,-0.859,-0.859,-0.859,-0.859,-0.859,-0.859,-0.859,-0.859,-0.859,-0.859,-0.8323,-0.8189,-0.8189,-0.7861,-0.766,-0.766,-0.7187,-0.6982,-0.6982,-0.6652,-0.6522,-0.6522,-0.6522,-0.6522,-2.046,-2.1064,-2.1486,-2.1535,-2.1341,-2.0917,-1.9826,0.0,0.0,0.0,-1.7479,-1.7648,-1.8191,-1.7022,0.0,0.0,0.0,0.0,0.0,0.0,0.0,0.0,0.0,0.0,0.0,0.0,0.0,0.0,0.0,0.0,-1.204,-1.204,-1.1972,-1.1816,-1.1823,-1.1762,-1.1619,-1.1548,-1.1332,-1.0972,-1.0606,-1.0239,-0.9879,-0.9446,-0.9307,-0.9329,-0.9438,0.0,0.0,-0.9786,-0.9824,-0.9807,-0.9829,-0.9775,-0.9688,-0.9688,-0.9688,-0.9682,-0.9671,-0.959,-0.9487,-0.9476,-0.9394,-0.9302,-0.9302,-0.9302,-0.9329,-0.9454,-0.9487,-0.9492,-0.9503,-0.9497,-0.9519,-0.9655,-0.9856,-0.9878,-0.9367,-0.928,-0.916,-0.8682,-0.859,-0.859,-0.859,-0.859,-0.859,-0.859,-0.859,-0.859,-0.859,-0.859,-0.859,-0.859,-0.859,-0.859,-0.859,-0.859,-0.859,-0.859,-0.859,-0.8523,-0.8523,-0.8256,-0.8056,-0.8056,-0.7388,-0.6982,-0.6982,-0.6652,-0.6522,-0.6522,-0.6522,-0.6522,-2.0448,-2.1064,-2.1474,-2.1474,-2.1269,-2.0844,-1.9712,0.0,0.0,-1.7708,-1.7479,-1.7551,-1.7768,-1.7314,-1.6458,0.0,0.0,0.0,0.0,0.0,0.0,0.0,0.0,0.0,0.0,0.0,0.0,0.0,0.0,0.0,-1.2325,-1.2244,-1.2088,-1.1837,-1.1925,-1.1857,-1.1619,-1.1332,-1.126,-1.1332,-1.0743,-1.0455,-1.0239,-0.9879,-0.9518,-0.9313,-0.9432,0.0,0.0,-0.9688,-0.9693,-0.9628,-0.9628,-0.9601,-0.9557,-0.9557,-0.9606,-0.9661,-0.9584,-0.953,-0.9476,-0.94,-0.9345,-0.9302,-0.9302,-0.9302,-0.9313,-0.9362,-0.9378,-0.9378,-0.9378,-0.9487,-0.9612,-0.9661,-0.9851,-0.9889,-0.9405,-0.9302,-0.916,-0.8682,-0.859,-0.859,-0.859,-0.859,-0.859,-0.859,-0.859,-0.859,-0.859,-0.859,-0.859,-0.859,-0.859,-0.859,-0.859,-0.859,-0.859,-0.859,-0.859,-0.859,-0.859,-0.8456,-0.839,-0.839,-0.7922,-0.7522,-0.7321,-0.6987,-0.6719,-0.6522,-0.6522,-0.6522,-2.0412,-2.0943,-2.1245,-2.1245,-2.0967,-2.0541,0.0,0.0,0.0,-1.7672,-1.7479,-1.7479,-1.7479,-1.7185,-1.6349,0.0,0.0,0.0,0.0,0.0,0.0,0.0,0.0,0.0,0.0,0.0,0.0,0.0,0.0,0.0,-1.2501,-1.2406,-1.2237,-1.1979,-1.2026,-1.1938,-1.1687,-1.1352,-1.1188,-1.1253,-1.0822,-1.0455,-1.0167,-0.9951,-0.9663,-0.9313,-0.9432,0.0,0.0,-0.9633,-0.9617,-0.9536,-0.9503,-0.9465,-0.9432,-0.9432,-0.9487,-0.9546,-0.9465,-0.9432,-0.9416,-0.9334,-0.9302,-0.9302,-0.9302,-0.9302,-0.9302,-0.9302,-0.9302,-0.9313,-0.9351,-0.9514,-0.9677,-0.9709,-0.9873,-0.9889,-0.9405,-0.9302,-0.916,-0.8682,-0.859,-0.859,-0.859,-0.859,-0.859,-0.859,-0.859,-0.859,-0.859,-0.859,-0.859,-0.859,-0.859,-0.859,-0.859,-0.859,-0.859,-0.859,-0.859,-0.859,-0.859,-0.859,-0.859,-0.859,-0.8256,-0.7989,-0.766,-0.7254,-0.6853,-0.6652,-0.6518,-0.6522,-2.0303,-2.0665,-2.0678,-2.0678,-2.0279,-1.9748,0.0,0.0,-1.8143,-1.7599,-1.7479,-1.7479,-1.7479,-1.6467,-1.5628,-1.5569,0.0,0.0,0.0,0.0,0.0,0.0,0.0,0.0,0.0,0.0,0.0,0.0,0.0,0.0,-1.2494,-1.2501,-1.2433,-1.2291,-1.2142,-1.1986,-1.183,-1.1687,-1.1253,-1.0527,-1.0822,-1.0389,-0.9302,-0.9735,-0.9663,0.0,0.0,0.0,0.0,-0.9671,-0.9666,-0.9655,-0.9536,-0.941,-0.9307,-0.9307,-0.9307,-0.9307,-0.9307,-0.9307,-0.9307,-0.9302,-0.9302,-0.9302,-0.9302,-0.9302,-0.9302,-0.9302,-0.9302,-0.9334,-0.9454,-0.9579,-0.9699,-0.9807,-0.9932,-0.9889,-0.9405,-0.9302,-0.916,-0.8682,-0.859,-0.859,-0.859,-0.859,-0.859,-0.859,-0.859,-0.859,-0.859,-0.859,-0.859,-0.859,-0.859,-0.859,-0.859,-0.859,-0.859,-0.859,-0.859,-0.859,-0.859,-0.859,-0.859,-0.859,-0.8256,-0.8123,-0.8123,-0.7388,-0.6982,-0.6982,-0.6652,-0.6522,-1.9314,-1.9579,-1.9579,-1.9579,-1.9458,-1.9193,-1.8662,0.0,-1.8143,-1.7599,-1.7479,-1.7244,-1.6349,-1.5876,-1.508,-1.3551,-1.2645,0.0,0.0,0.0,0.0,0.0,0.0,0.0,0.0,0.0,0.0,0.0,0.0,0.0,-1.2501,-1.2501,-1.2433,-1.2298,-1.2244,-1.2094,-1.183,-1.1789,-1.1569,-1.1253,-1.1116,-1.0678,-1.0095,-0.9951,-0.9663,0.0,0.0,0.0,0.0,-0.9546,-0.9546,-0.953,-0.941,-0.934,-0.9302,-0.9302,-0.9302,-0.9302,-0.9302,-0.9302,-0.9302,-0.9302,-0.9302,-0.9302,-0.9302,-0.9302,-0.9302,-0.9302,-0.9302,-0.9334,-0.9454,-0.9579,-0.9699,-0.9813,-0.9932,-0.9889,-0.9405,-0.9302,-0.916,-0.8682,-0.859,-0.859,-0.859,-0.859,-0.859,-0.859,-0.859,-0.859,-0.859,-0.859,-0.859,-0.859,-0.859,-0.859,-0.859,-0.859,-0.859,-0.859,-0.859,-0.859,-0.859,-0.859,-0.859,-0.859,-0.8523,-0.8323,-0.8123,-0.7856,-0.7522,-0.6982,-0.6652,-0.6522,0.0,-1.9072,-1.9072,-1.9072,-1.8927,0.0,0.0,0.0,0.0,-1.7551,-1.7479,-1.7126,-1.5806,-1.5213,-1.4231,-1.2291,-1.1806,0.0,0.0,0.0,0.0,0.0,0.0,0.0,0.0,0.0,0.0,0.0,0.0,0.0,-1.2501,-1.2501,-1.2461,-1.2372,-1.2318,-1.2094,-1.1697,-1.1637,-1.1391,-1.0966,-1.0894,-1.0534,-1.0023,-0.9951,-0.9663,0.0,0.0,0.0,0.0,-0.9438,-0.9443,-0.9476,-0.9351,-0.9302,-0.9302,-0.9302,-0.9302,-0.9302,-0.9302,-0.9302,-0.9302,-0.9302,-0.9302,-0.9302,-0.9302,-0.9302,-0.9302,-0.9302,-0.9302,-0.9334,-0.9454,-0.9579,-0.9699,-0.9813,-0.9932,-0.9889,-0.9405,-0.9302,-0.916,-0.8682,-0.859,-0.859,-0.859,-0.859,-0.859,-0.859,-0.859,-0.859,-0.859,-0.859,-0.859,-0.859,-0.859,-0.859,-0.859,-0.859,-0.859,-0.859,-0.859,-0.859,-0.859,-0.859,-0.859,-0.859,-0.859,-0.8523,-0.8256,-0.7989,-0.7588,-0.6982,-0.6652,-0.6522,0.0,0.0,0.0,0.0,0.0,0.0,0.0,0.0,0.0,0.0,0.0,0.0,-1.5569,-1.4381,-1.3135,-1.1784,-1.1104,0.0,0.0,0.0,0.0,0.0,0.0,0.0,0.0,0.0,0.0,0.0,0.0,0.0,-1.2494,-1.2501,-1.2501,-1.2501,-1.2372,-1.2079,-1.1538,-1.1401,-1.0894,-0.9951,-1.0311,-1.0095,-0.9374,-0.9735,-0.9663,0.0,0.0,0.0,0.0,-0.9351,-0.9372,-0.9465,-0.9351,-0.9302,-0.9302,-0.9302,-0.9302,-0.9302,-0.9302,-0.9302,-0.9302,-0.9302,-0.9302,-0.9302,-0.9302,-0.9302,-0.9302,-0.9302,-0.9302,-0.9334,-0.9454,-0.9579,-0.9699,-0.9813,-0.9932,-0.9894,-0.9432,-0.9329,-0.9188,-0.8709,-0.8611,-0.8606,-0.859,-0.859,-0.859,-0.859,-0.859,-0.859,-0.859,-0.859,-0.859,-0.859,-0.859,-0.859,-0.859,-0.859,-0.859,-0.859,-0.859,-0.859,-0.859,-0.859,-0.859,-0.859,-0.859,-0.859,-0.859,-0.7856,-0.7393,-0.7054,-0.6719,-0.6522,0.0,0.0,0.0,0.0,0.0,0.0,0.0,0.0,0.0,0.0,0.0,0.0,0.0,0.0,-1.1841,-1.0816,-1.0674,0.0,0.0,0.0,0.0,0.0,0.0,0.0,0.0,0.0,0.0,0.0,0.0,-1.2467,-1.2501,-1.2501,-1.2501,-1.2501,-1.2467,-1.2325,-1.1993,-1.1952,-1.151,-1.075,-1.0599,-1.0239,-0.9735,-0.9518,-0.9374,0.0,0.0,0.0,-0.9345,-0.9313,-0.9318,-0.9345,-0.9313,-0.9302,-0.9302,-0.9302,-0.9302,-0.9302,-0.9302,-0.9302,-0.9302,-0.9302,-0.9302,-0.9302,-0.9302,-0.9302,-0.9302,-0.9302,-0.9302,-0.9334,-0.9454,-0.9579,-0.9699,-0.9813,-0.9932,-0.9938,-0.965,-0.9584,-0.9443,-0.8959,-0.8798,-0.8807,-0.8622,-0.859,-0.859,-0.859,-0.859,-0.859,-0.859,-0.859,-0.859,-0.859,-0.859,-0.859,-0.859,-0.859,-0.859,-0.859,-0.859,-0.859,-0.859,-0.859,-0.859,-0.859,-0.859,-0.859,-0.859,-0.8189,-0.7794,-0.7393,-0.7054,-0.6719,-1.7455,-1.7479,-1.7479,-1.7479,0.0,0.0,0.0,0.0,0.0,0.0,0.0,0.0,0.0,0.0,0.0,0.0,0.0,0.0,0.0,0.0,0.0,0.0,0.0,0.0,0.0,0.0,0.0,0.0,0.0,-1.2433,-1.2501,-1.2501,-1.2501,-1.2501,-1.2501,-1.2239,-1.1642,-1.1795,-1.1353,-1.0335,-1.0269,-1.0023,-0.959,-0.9374,-0.9302,0.0,0.0,0.0,-0.9302,-0.9302,-0.9302,-0.9302,-0.9302,-0.9302,-0.9302,-0.9302,-0.9302,-0.9302,-0.9302,-0.9302,-0.9302,-0.9302,-0.9302,-0.9302,-0.9302,-0.9302,-0.9302,-0.9302,-0.9302,-0.9318,-0.9383,-0.9536,-0.9688,-0.9748,-0.9894,-0.9954,-0.972,-0.9671,-0.953,-0.8976,-0.8884,-0.8803,-0.8628,-0.859,-0.859,-0.859,-0.859,-0.859,-0.859,-0.859,-0.859,-0.859,-0.859,-0.859,-0.859,-0.859,-0.859,-0.859,-0.859,-0.859,-0.859,-0.859,-0.859,-0.859,-0.859,-0.859,-0.859,-0.8256,-0.7994,-0.7794,-0.7254,-0.692,-1.7358,-1.7455,-1.7479,-1.7479,-1.7479,0.0,0.0,0.0,0.0,0.0,0.0,0.0,0.0,0.0,0.0,0.0,0.0,0.0,0.0,0.0,0.0,0.0,0.0,0.0,0.0,0.0,0.0,0.0,0.0,-1.2372,-1.2417,-1.2501,-1.2501,-1.2424,-1.2424,-1.1972,-1.1073,-1.1384,-1.086,-0.9533,-0.9786,-0.9663,-0.9302,-0.9302,-0.9302,-0.9302,0.0,0.0,-0.9663,-0.9374,-0.9446,-0.9663,-0.9374,-0.9302,-0.9302,-0.9302,-0.9302,-0.9302,-0.9302,-0.9302,-0.9302,-0.9302,-0.9302,-0.9302,-0.9302,-0.9302,-0.9302,-0.9302,-0.9302,-0.9302,-0.9302,-0.947,-0.965,-0.9666,-0.9835,-0.9943,-0.9764,-0.972,-0.9579,-0.903,-0.8933,-0.8916,-0.8633,-0.859,-0.859,-0.859,-0.859,-0.859,-0.859,-0.859,-0.859,-0.859,-0.859,-0.859,-0.859,-0.859,-0.859,-0.859,-0.859,-0.859,-0.859,-0.859,-0.859,-0.859,-0.859,-0.859,-0.859,-0.8323,-0.8123,-0.8056,-0.7388,-0.7054,-1.7141,-1.731,-1.7479,-1.7479,-1.7479,0.0,0.0,0.0,0.0,0.0,0.0,0.0,0.0,0.0,0.0,0.0,0.0,0.0,0.0,0.0,0.0,0.0,0.0,0.0,0.0,0.0,0.0,0.0,0.0,-1.2326,-1.2037,-1.2347,-1.2347,-1.2037,-1.196,-1.1664,-1.1073,-1.1384,-1.0958,-0.9836,-0.9891,-0.9663,-0.9302,-0.9302,-0.9302,-0.9302,0.0,-1.0017,-1.1155,-0.9801,-1.0089,-1.1084,-0.9801,-0.9302,-0.9302,-0.9302,-0.9302,-0.9302,-0.9302,-0.9302,-0.9302,-0.9302,-0.9302,-0.9302,-0.9302,-0.9302,-0.9302,-0.9302,-0.9302,-0.9302,-0.9302,-0.941,-0.9541,-0.9644,-0.9769,-0.9883,-0.9949,-0.9965,-0.9824,-0.9345,-0.9253,-0.9106,-0.8666,-0.859,-0.859,-0.859,-0.859,-0.859,-0.859,-0.859,-0.859,-0.859,-0.859,-0.859,-0.859,-0.859,-0.859,-0.859,-0.859,-0.859,-0.859,-0.859,-0.859,-0.859,-0.859,-0.859,-0.859,-0.8523,-0.839,-0.8056,-0.766,-0.7254,-1.6839,-1.7068,-1.7288,-1.7387,0.0,0.0,0.0,0.0,0.0,0.0,0.0,0.0,0.0,0.0,0.0,0.0,0.0,0.0,0.0,0.0,0.0,0.0,0.0,0.0,0.0,0.0,0.0,0.0,0.0,0.0,-1.1882,-1.2114,-1.2114,-1.1882,-1.1727,-1.1318,-1.066,-1.082,-1.047,-0.9691,-0.9841,-0.9663,-0.9302,-0.9302,-0.9729,-1.0515,0.0,-1.1449,-1.2802,-1.2094,-1.2237,-1.2659,-1.1162,-1.0515,-1.0443,-0.959,-0.9302,-0.9302,-0.9302,-0.9302,-0.9302,-0.9302,-0.9302,-0.9302,-0.9302,-0.9302,-0.9302,-0.9302,-0.9302,-0.9302,-0.9302,-0.9394,-0.9519,-0.9639,-0.9753,-0.9873,-0.9992,-1.0019,-0.9878,-0.9394,-0.9302,-0.915,-0.8671,-0.859,-0.859,-0.859,-0.859,-0.859,-0.859,-0.859,-0.859,-0.859,-0.859,-0.859,-0.859,-0.859,-0.859,-0.859,-0.859,-0.859,-0.859,-0.859,-0.859,-0.859,-0.859,-0.859,-0.859,-0.859,-0.8523,-0.839,-0.7989,-0.766,-1.6537,-1.6791,-1.7026,0.0,0.0,0.0,0.0,0.0,0.0,0.0,0.0,0.0,0.0,0.0,0.0,0.0,0.0,0.0,0.0,0.0,0.0,0.0,0.0,0.0,0.0,0.0,0.0,0.0,0.0,0.0,-1.165,-1.1727,-1.1727,-1.1572,-1.1262,-1.0916,-1.0312,-1.0237,-0.9932,-0.9487,-0.9652,-0.9824,-0.9919,-0.9818,-1.0659,-1.2158,-1.2158,-1.3016,-1.4378,-1.4022,-1.4093,-1.4307,-1.2731,-1.2158,-1.1944,-1.0377,-0.9873,-0.9801,-0.9446,-0.9518,-0.9873,-0.9873,-1.0089,-1.0377,-1.0377,-1.0161,-0.9873,-0.9873,-0.959,-0.9302,-0.9302,-0.9372,-0.9476,-0.9595,-0.9715,-0.9829,-0.9949,-1.0003,-0.9894,-0.947,-0.9345,-0.9171,-0.8747,-0.8628,-0.859,-0.859,-0.859,-0.859,-0.859,-0.859,-0.859,-0.859,-0.859,-0.859,-0.859,-0.859,-0.859,-0.859,-0.859,-0.859,-0.859,-0.859,-0.859,-0.859,-0.859,-0.859,-0.859,-0.859,-0.859,-0.859,-0.8256,-0.7927,-1.6308,-1.6513,-1.6798,0.0,0.0,0.0,0.0,0.0,0.0,0.0,0.0,0.0,0.0,0.0,0.0,0.0,0.0,0.0,0.0,0.0,0.0,0.0,0.0,0.0,0.0,0.0,0.0,0.0,0.0,0.0,-1.0719,-1.1107,-1.1107,-1.0719,-1.0641,-1.0572,-1.0509,-1.0052,-0.9709,-0.9487,-0.9362,-1.0154,-1.165,-1.1509,-1.2302,-1.3737,-1.3737,-1.4591,-1.5947,-1.452,-1.4733,-1.5877,-1.4307,-1.3737,-1.3523,-1.2015,-1.1442,-1.1227,-0.9801,-1.0233,-1.1442,-1.1442,-1.2373,-1.3595,-1.3595,-1.2588,-1.1442,-1.1442,-1.0371,-0.9302,-0.9302,-0.9313,-0.9345,-0.947,-0.9595,-0.9715,-0.9824,-0.9938,-0.9943,-0.9693,-0.9459,-0.9226,-0.89,-0.8736,-0.859,-0.859,-0.859,-0.859,-0.859,-0.859,-0.859,-0.859,-0.859,-0.859,-0.859,-0.859,-0.859,-0.859,-0.859,-0.859,-0.859,-0.859,-0.859,-0.859,-0.859,-0.859,-0.859,-0.859,-0.859,-0.859,-0.8256,-0.8056,-1.603,-1.6126,-1.6156,0.0,0.0,0.0,0.0,0.0,0.0,0.0,0.0,0.0,0.0,0.0,0.0,0.0,0.0,0.0,0.0,0.0,0.0,0.0,0.0,0.0,0.0,0.0,0.0,0.0,0.0,0.0,-1.0641,-1.072,-1.0709,-1.0635,-1.0252,-1.0114,-1.0069,-0.9916,-1.0207,-1.0996,-1.0932,-1.1642,-1.3115,-1.3047,-1.3872,-1.5301,-1.5301,-1.616,-1.751,-1.6936,-1.7007,-1.7439,-1.5947,-1.4733,-1.3808,-1.3238,-1.3016,-1.2952,-1.238,-1.2523,-1.3016,-1.3016,-1.3452,-1.388,-1.388,-1.2802,-1.1586,-1.1586,-1.0515,-0.9302,-0.9302,-0.9302,-0.9334,-0.9459,-0.9579,-0.9699,-0.9813,-0.9932,-0.9949,-0.9715,-0.947,-0.9231,-0.8922,-0.8747,-0.859,-0.859,-0.859,-0.859,-0.859,-0.859,-0.859,-0.859,-0.859,-0.859,-0.859,-0.859,-0.859,-0.859,-0.859,-0.859,-0.859,-0.859,-0.859,-0.859,-0.859,-0.859,-0.859,-0.859,-0.859,-0.859,-0.8456,-0.8189,-1.5885,-1.5761,-1.5555,0.0,0.0,0.0,0.0,0.0,0.0,0.0,0.0,0.0,0.0,0.0,0.0,0.0,0.0,0.0,0.0,0.0,0.0,0.0,0.0,0.0,0.0,0.0,0.0,0.0,0.0,0.0,0.0,-1.0406,-1.0395,-1.0402,-1.0015,-1.0125,-1.0656,-1.0656,-1.1574,-1.3521,-1.3428,-1.3841,-1.4677,-1.4617,-1.5443,-1.6866,-1.6866,-1.7439,-1.8433,-1.8433,-1.8433,-1.8293,-1.7298,-1.623,-1.523,-1.4804,-1.4662,-1.4591,-1.4093,-1.4236,-1.4662,-1.4662,-1.4946,-1.5301,-1.5301,-1.4227,-1.2945,-1.2445,-1.1234,-0.9945,-0.9446,-0.9302,-0.9323,-0.941,-0.9525,-0.9644,-0.9758,-0.9878,-0.9927,-0.9802,-0.9584,-0.9345,-0.9106,-0.8861,-0.8677,-0.86,-0.859,-0.859,-0.859,-0.859,-0.859,-0.859,-0.859,-0.859,-0.859,-0.859,-0.859,-0.859,-0.859,-0.859,-0.859,-0.859,-0.859,-0.859,-0.859,-0.859,-0.859,-0.859,-0.859,-0.859,-0.859,-0.8323,-1.5844,-1.547,0.0,0.0,0.0,0.0,0.0,0.0,0.0,0.0,0.0,0.0,0.0,0.0,0.0,0.0,0.0,0.0,0.0,0.0,0.0,0.0,0.0,0.0,0.0,0.0,0.0,0.0,0.0,0.0,0.0,-1.0019,-1.0019,-1.0019,-1.0019,-1.0791,-1.2481,-1.2488,-1.4007,-1.7002,-1.6795,-1.6588,-1.6299,-1.6245,-1.7007,-1.8433,-1.8433,-1.8433,-1.8433,-1.8433,-1.8433,-1.8433,-1.8433,-1.8433,-1.8223,-1.6725,-1.623,-1.6018,-1.4449,-1.4946,-1.623,-1.623,-1.7228,-1.8433,-1.8433,-1.7369,-1.5877,-1.4378,-1.2802,-1.1299,-0.9735,-0.9302,-0.9302,-0.9302,-0.94,-0.9519,-0.9644,-0.9758,-0.9873,-0.9998,-0.9829,-0.959,-0.9345,-0.9106,-0.8798,-0.8622,-0.859,-0.859,-0.859,-0.859,-0.859,-0.859,-0.859,-0.859,-0.859,-0.859,-0.859,-0.859,-0.859,-0.859,-0.859,-0.859,-0.859,-0.859,-0.859,-0.859,-0.859,-0.859,-0.859,-0.859,-0.859,-0.859,-1.5642,0.0,0.0,0.0,0.0,0.0,0.0,0.0,0.0,0.0,0.0,0.0,0.0,0.0,0.0,0.0,0.0,0.0,0.0,0.0,0.0,0.0,0.0,0.0,0.0,0.0,0.0,0.0,0.0,0.0,0.0,-0.9938,-0.9932,-1.0019,-1.1081,-1.1919,-1.2481,-1.3637,-1.5151,-1.7002,-1.6936,-1.7316,-1.8042,-1.7824,-1.8012,-1.8433,-1.8433,-1.8433,-1.8433,-1.8433,-1.8433,-1.8433,-1.8433,-1.8433,-1.8363,-1.7931,-1.7721,-1.765,-1.7228,-1.7369,-1.7721,-1.7721,-1.8012,-1.8433,-1.8433,-1.7369,-1.6089,-1.5664,-1.4378,-1.2873,-1.1299,-1.0946,-1.0659,-0.959,-0.94,-0.9519,-0.9644,-0.9758,-0.9873,-0.9998,-0.9829,-0.959,-0.9345,-0.9106,-0.8798,-0.8622,-0.859,-0.859,-0.859,-0.859,-0.859,-0.859,-0.859,-0.859,-0.859,-0.859,-0.859,-0.859,-0.859,-0.859,-0.859,-0.859,-0.859,-0.859,-0.859,-0.859,-0.859,-0.859,-0.859,-0.859,-0.859,-0.8456,-1.5829,0.0,0.0,0.0,0.0,0.0,0.0,0.0,0.0,0.0,0.0,0.0,0.0,0.0,0.0,0.0,0.0,0.0,0.0,0.0,0.0,0.0,0.0,0.0,0.0,0.0,0.0,0.0,0.0,0.0,0.0,-1.056,-1.094,-1.1017,-1.2546,-1.3686,-1.4406,-1.5403,-1.6648,-1.8186,-1.8021,-1.8369,-1.9058,-1.8724,-1.8519,-1.8433,-1.8433,-1.8433,-1.8433,-1.8433,-1.8433,-1.8433,-1.8433,-1.8433,-1.8433,-1.8433,-1.8433,-1.8433,-1.8433,-1.8433,-1.8433,-1.8433,-1.8433,-1.8433,-1.8433,-1.7791,-1.6936,-1.6372,-1.5523,-1.4449,-1.2945,-1.2516,-1.1944,-0.9801,-0.9362,-0.9459,-0.9633,-0.972,-0.9818,-0.9987,-0.9905,-0.9731,-0.9492,-0.9334,-0.9122,-0.8785,-0.8649,-0.859,-0.859,-0.859,-0.859,-0.859,-0.859,-0.859,-0.859,-0.859,-0.859,-0.859,-0.859,-0.859,-0.859,-0.859,-0.859,-0.859,-0.859,-0.859,-0.859,-0.859,-0.859,-0.859,-0.859,-0.8523,0.0,0.0,0.0,0.0,0.0,0.0,0.0,0.0,0.0,0.0,0.0,0.0,0.0,0.0,0.0,0.0,0.0,0.0,0.0,0.0,0.0,0.0,0.0,0.0,0.0,0.0,0.0,0.0,0.0,0.0,0.0,-1.156,-1.2481,-1.2467,-1.4168,-1.5854,-1.7379,-1.754,-1.8395,-1.9919,-1.9628,-1.9521,-1.9478,-1.9004,-1.867,-1.8466,-1.8444,-1.8374,-1.8466,-1.8444,-1.8433,-1.8433,-1.8433,-1.8433,-1.8433,-1.8433,-1.8433,-1.8433,-1.8433,-1.8433,-1.8433,-1.8433,-1.8433,-1.8433,-1.8433,-1.8433,-1.8153,-1.6795,-1.6372,-1.6018,-1.452,-1.4093,-1.3309,-1.0233,-0.9518,-0.9512,-0.9692,-0.9671,-0.9742,-0.9976,-1.0019,-0.9943,-0.9709,-0.9671,-0.9508,-0.8954,-0.8742,-0.859,-0.859,-0.859,-0.859,-0.859,-0.859,-0.859,-0.859,-0.859,-0.859,-0.859,-0.859,-0.859,-0.859,-0.859,-0.859,-0.859,-0.859,-0.859,-0.859,-0.859,-0.859,-0.859,-0.859,-0.859,0.0,0.0,0.0,0.0,0.0,0.0,0.0,0.0,0.0,0.0,0.0,0.0,0.0,0.0,0.0,0.0,0.0,0.0,0.0,0.0,0.0,0.0,0.0,0.0,0.0,0.0,0.0,0.0,0.0,0.0,-1.0019,-1.156,-1.2433,-1.2166,-1.5252,-1.6934,-1.7067,-1.8607,-1.9542,0.0,-1.9865,-1.9671,-1.9478,-1.9004,-1.8756,-1.8702,-1.8509,-1.8541,-1.8692,-1.8509,-1.8433,-1.8433,-1.8433,-1.8433,-1.8433,-1.8433,-1.8433,-1.8433,-1.8433,-1.8433,-1.8433,-1.8433,-1.8433,-1.8433,-1.8433,-1.8433,-1.8363,-1.8012,-1.7942,-1.758,-1.6089,-1.5735,-1.4946,-1.1872,-1.109,-1.0879,-0.9916,-0.9671,-0.9742,-0.9976,-1.0019,-0.9943,-0.9709,-0.9671,-0.9508,-0.8954,-0.8742,-0.859,-0.859,-0.859,-0.859,-0.859,-0.859,-0.859,-0.859,-0.859,-0.859,-0.859,-0.859,-0.859,-0.859,-0.859,-0.859,-0.859,-0.859,-0.859,-0.859,-0.859,-0.859,-0.859,-0.859,-0.859,0.0,0.0,0.0,0.0,0.0,0.0,0.0,0.0,0.0,0.0,0.0,0.0,0.0,0.0,0.0,0.0,0.0,0.0,0.0,0.0,0.0,0.0,0.0,0.0,0.0,0.0,0.0,0.0,0.0,-1.0019,-1.0019,-1.2326,-1.36,-1.3435,-1.68,-1.8562,-1.8366,-1.9403,-1.9919,-1.9919,-1.9919,-1.9725,-1.9478,-1.9004,-1.8853,-1.8939,-1.8584,-1.8573,-1.8767,-1.853,-1.8433,-1.8433,-1.8433,-1.8433,-1.8433,-1.8433,-1.8433,-1.8433,-1.8433,-1.8433,-1.8433,-1.8433,-1.8433,-1.8433,-1.8433,-1.8433,-1.8433,-1.8433,-1.8433,-1.8223,-1.7439,-1.7228,-1.6654,-1.4369,-1.2718,-1.1325,-1.0001,-0.9709,-0.9802,-0.9987,-1.0019,-0.9981,-0.9856,-0.9742,-0.9546,-0.9177,-0.8916,-0.872,-0.86,-0.859,-0.859,-0.859,-0.859,-0.859,-0.859,-0.859,-0.859,-0.859,-0.859,-0.859,-0.859,-0.859,-0.859,-0.859,-0.859,-0.859,-0.859,-0.859,-0.859,-0.859,-0.859,-0.859,0.0,0.0,0.0,0.0,0.0,0.0,0.0,0.0,0.0,0.0,0.0,0.0,0.0,0.0,0.0,0.0,0.0,0.0,0.0,0.0,0.0,0.0,0.0,0.0,0.0,0.0,0.0,0.0,0.0,-1.0097,-1.0408,-1.3252,-1.5004,-1.5277,-1.8365,-1.9973,-1.994,-2.0016,-2.0005,-2.0005,-1.994,-1.9779,-1.9542,-1.9112,-1.9015,-1.9114,-1.8702,-1.8627,-1.8821,-1.8552,-1.8433,-1.8433,-1.8433,-1.8433,-1.8433,-1.8433,-1.8433,-1.8433,-1.8433,-1.8433,-1.8433,-1.8433,-1.8433,-1.8433,-1.8433,-1.8433,-1.8433,-1.8433,-1.8433,-1.8433,-1.8433,-1.8433,-1.8012,-1.6583,-1.4394,-1.2178,-1.0461,-1.0131,-1.0179,-0.9998,-1.0019,-1.0019,-1.0019,-0.9824,-0.9584,-0.934,-0.9101,-0.8793,-0.8617,-0.859,-0.859,-0.859,-0.859,-0.859,-0.859,-0.859,-0.859,-0.859,-0.859,-0.859,-0.859,-0.859,-0.859,-0.859,-0.859,-0.859,-0.859,-0.859,-0.859,-0.859,-0.859,-0.859,0.0,0.0,0.0,0.0,0.0,0.0,0.0,0.0,0.0,0.0,0.0,0.0,0.0,0.0,0.0,0.0,0.0,0.0,0.0,0.0,0.0,0.0,0.0,0.0,0.0,0.0,0.0,0.0,-1.0019,-1.0635,-1.2101,-1.3868,-1.548,-1.6674,-1.9114,-2.0347,-2.0062,-2.0421,-2.0569,-2.0569,-2.021,-2.0001,-1.9865,-1.9521,-1.9424,-1.9424,-1.895,-1.8875,-1.8996,-1.8545,-1.8433,-1.8433,-1.8433,-1.8433,-1.8433,-1.8433,-1.8433,-1.8433,-1.8433,-1.8433,-1.8433,-1.8433,-1.8433,-1.8433,-1.8433,-1.8433,-1.8433,-1.8433,-1.8433,-1.8433,-1.8433,-1.8433,-1.8012,-1.6583,-1.6092,-1.5259,-1.2257,-1.1779,-1.1543,-1.0225,-1.0019,-1.0019,-1.0019,-0.9824,-0.9584,-0.934,-0.9101,-0.8793,-0.8617,-0.859,-0.859,-0.859,-0.859,-0.859,-0.859,-0.859,-0.859,-0.859,-0.859,-0.859,-0.859,-0.859,-0.859,-0.859,-0.859,-0.859,-0.859,-0.859,-0.859,-0.859,-0.859,-0.859,0.0,0.0,0.0,0.0,0.0,0.0,0.0,0.0,0.0,0.0,0.0,0.0,0.0,0.0,0.0,0.0,0.0,0.0,0.0,0.0,0.0,0.0,0.0,0.0,0.0,0.0,0.0,0.0,-1.1172,-1.2172,-1.3091,-1.5616,-1.7256,-1.7849,-1.9779,-2.0778,-2.0676,-2.0666,-2.0603,-2.0466,-2.0456,-2.0284,-2.0023,-2.0056,-1.9918,-1.9661,-1.9047,-1.8918,-1.9039,-1.8556,-1.8433,-1.8433,-1.8433,-1.8433,-1.8433,-1.8433,-1.8433,-1.8433,-1.8433,-1.8433,-1.8433,-1.8433,-1.8433,-1.8433,-1.8433,-1.8433,-1.8433,-1.8433,-1.8433,-1.8433,-1.8433,-1.8433,-1.8255,-1.7805,-1.7877,-1.7473,-1.52,-1.3483,-1.1946,-1.0319,-1.0019,-1.0019,-1.0019,-0.9932,-0.9737,-0.9362,-0.9215,-0.9014,-0.8638,-0.859,-0.859,-0.859,-0.859,-0.859,-0.859,-0.859,-0.859,-0.859,-0.859,-0.859,-0.859,-0.859,-0.859,-0.859,-0.859,-0.859,-0.859,-0.859,-0.859,-0.859,-0.859,-0.859,0.0,0.0,0.0,0.0,0.0,0.0,0.0,0.0,0.0,0.0,0.0,0.0,0.0,0.0,0.0,0.0,0.0,0.0,0.0,0.0,0.0,0.0,0.0,0.0,0.0,0.0,0.0,0.0,-1.2551,-1.3776,-1.4851,-1.7293,-1.883,-1.9218,-2.0522,-2.1187,-2.113,-2.1013,-2.0781,-2.0451,-2.0704,-2.0672,-2.024,-2.0344,-2.0175,-1.9788,-1.9184,-1.8939,-1.9025,-1.8535,-1.8433,-1.8433,-1.8433,-1.8433,-1.8433,-1.8433,-1.8433,-1.8433,-1.8433,-1.8433,-1.8433,-1.8433,-1.8433,-1.8433,-1.8433,-1.8433,-1.8433,-1.8433,-1.8433,-1.8433,-1.8433,-1.8433,-1.8498,-1.8724,-1.8972,-1.8623,-1.6805,-1.4318,-1.1959,-1.0241,-0.9932,-0.9932,-0.9932,-0.9954,-0.9835,-0.9416,-0.9323,-0.915,-0.8731,-0.8628,-0.859,-0.859,-0.859,-0.859,-0.859,-0.859,-0.859,-0.859,-0.859,-0.859,-0.859,-0.859,-0.859,-0.859,-0.859,-0.859,-0.859,-0.859,-0.859,-0.859,-0.859,-0.859,0.0,0.0,0.0,0.0,0.0,0.0,0.0,0.0,0.0,0.0,0.0,0.0,0.0,0.0,0.0,0.0,0.0,0.0,0.0,0.0,0.0,0.0,0.0,0.0,0.0,0.0,0.0,0.0,-1.363,-1.5004,-1.8214,-1.8517,-1.9369,-2.091,-2.1435,-2.1543,-2.1308,-2.1413,-2.127,-2.0873,-2.1155,-2.1052,-2.0672,-2.0314,-1.9981,-1.9686,-1.9289,-1.9004,-1.8778,-1.8541,-1.8433,-1.8433,-1.8433,-1.8433,-1.8433,-1.8433,-1.8433,-1.8433,-1.8433,-1.8433,-1.8433,-1.8433,-1.8433,-1.8433,-1.8433,-1.8433,-1.8433,-1.8433,-1.8433,-1.8433,-1.8433,-1.8433,-1.8498,-1.8724,-1.8972,-1.832,-1.5535,-1.3544,-1.1776,-1.008,-0.9688,-0.9688,-0.9688,-0.9775,-0.9764,-0.9514,-0.9378,-0.9215,-0.8895,-0.8731,-0.859,-0.859,-0.859,-0.859,-0.859,-0.859,-0.859,-0.859,-0.859,-0.859,-0.859,-0.859,-0.859,-0.859,-0.859,-0.859,-0.859,-0.859,-0.859,-0.859,-0.859,-0.859,0.0,0.0,0.0,0.0,0.0,0.0,0.0,0.0,0.0,0.0,0.0,0.0,0.0,0.0,0.0,0.0,0.0,0.0,0.0,0.0,0.0,0.0,0.0,0.0,0.0,0.0,0.0,0.0,0.0,-1.7825,-1.9283,-2.0425,-2.1274,-2.181,-2.2035,-2.1989,-2.1652,-2.1703,-2.1571,-2.1258,-2.1521,-2.141,-2.0796,-2.0823,-2.032,-1.9432,-1.9442,-1.9221,-1.8767,-1.853,-1.8433,-1.8433,-1.8433,-1.8433,-1.8433,-1.8433,-1.8433,-1.8433,-1.8433,-1.8433,-1.8433,-1.8433,-1.8433,-1.8433,-1.8433,-1.8433,-1.8433,-1.8433,-1.8433,-1.8433,-1.8433,-1.8433,-1.853,-1.8928,-1.9316,-1.9042,-1.6796,-1.5044,-1.304,-1.0214,-0.9671,-0.9671,-0.9671,-0.9704,-0.9622,-0.9307,-0.9226,-0.9079,-0.8758,-0.8644,-0.859,-0.859,-0.859,-0.859,-0.859,-0.859,-0.859,-0.859,-0.859,-0.859,-0.859,-0.859,-0.859,-0.859,-0.859,-0.859,-0.859,-0.859,-0.859,-0.859,-0.859,-0.859,0.0,0.0,0.0,0.0,0.0,0.0,0.0,0.0,0.0,0.0,0.0,0.0,0.0,0.0,0.0,0.0,0.0,0.0,0.0,0.0,0.0,0.0,0.0,0.0,0.0,0.0,0.0,0.0,0.0,0.0,-2.0575,-2.1723,-2.2334,-2.2334,-2.2164,-2.1957,-2.1873,-2.1776,-2.1691,-2.1619,-2.1873,-2.1739,-2.1102,-2.1146,-2.0573,-1.9603,-1.9618,-1.931,-1.8659,-1.8584,-1.8509,-1.8433,-1.8433,-1.8433,-1.8433,-1.8433,-1.8433,-1.8433,-1.8433,-1.8433,-1.8433,-1.8433,-1.8433,-1.8433,-1.8433,-1.8433,-1.8433,-1.8433,-1.8433,-1.8433,-1.8433,-1.8552,-1.8685,-1.9007,-1.951,-1.9403,-1.7582,-1.59,-1.3858,-1.1033,-0.9945,-0.9546,-0.9546,-0.9579,-0.9541,-0.9345,-0.9209,-0.9063,-0.8856,-0.8687,-0.859,-0.859,-0.859,-0.859,-0.859,-0.859,-0.859,-0.859,-0.859,-0.859,-0.859,-0.859,-0.859,-0.859,-0.859,-0.859,-0.859,-0.859,-0.859,-0.859,-0.859,-0.859,0.0,0.0,0.0,0.0,0.0,0.0,0.0,0.0,0.0,0.0,0.0,0.0,0.0,0.0,0.0,0.0,0.0,0.0,0.0,0.0,0.0,0.0,0.0,0.0,0.0,0.0,0.0,0.0,-1.9887,-2.0575,-2.2184,-2.2334,-2.2334,-2.2334,-2.1764,-2.1631,-2.1885,-2.168,-2.168,-2.1885,-2.2212,-2.1993,-2.1474,-2.1102,-2.0603,-2.0052,-1.9773,-1.9214,-1.8455,-1.8752,-1.8638,-1.8433,-1.8433,-1.8433,-1.8433,-1.8433,-1.8433,-1.8433,-1.8433,-1.8433,-1.8433,-1.8433,-1.8433,-1.8433,-1.8433,-1.8433,-1.8433,-1.8433,-1.8433,-1.8433,-1.8433,-1.8717,-1.9082,-1.9082,-1.951,-1.9403,-1.7667,-1.5878,-1.413,-1.2283,-1.0547,-0.9379,-0.9302,-0.94,-0.9525,-0.9644,-0.9356,-0.9166,-0.928,-0.8878,-0.859,-0.859,-0.859,-0.859,-0.859,-0.859,-0.859,-0.859,-0.859,-0.859,-0.859,-0.859,-0.859,-0.859,-0.859,-0.859,-0.859,-0.859,-0.859,-0.859,-0.859,-0.859,-1.4579,0.0,0.0,0.0,0.0,0.0,0.0,0.0,0.0,0.0,0.0,0.0,0.0,0.0,0.0,0.0,0.0,0.0,0.0,0.0,0.0,0.0,0.0,0.0,0.0,0.0,0.0,0.0,-2.1574,-2.1798,-2.2259,-2.2334,-2.2334,-2.2334,-2.22,-2.2078,-2.215,-2.2152,-2.2152,-2.215,-2.2223,-2.1993,-2.1486,-2.1595,-2.1067,-2.0133,-2.0426,-2.0096,-1.9273,-1.9341,-1.9189,-1.8854,-1.8854,-1.8643,-1.8433,-1.8433,-1.8433,-1.8433,-1.8433,-1.8433,-1.8433,-1.8433,-1.8433,-1.8433,-1.8433,-1.8433,-1.8433,-1.8433,-1.8433,-1.8433,-1.8433,-1.8717,-1.9082,-1.9082,-1.951,-1.9747,-1.9231,-1.7742,-1.5554,-1.2524,-1.1491,-1.0784,-0.9535,-0.9334,-0.9367,-0.94,-0.9177,-0.8944,-0.8976,-0.878,-0.859,-0.859,-0.859,-0.859,-0.859,-0.859,-0.859,-0.859,-0.859,-0.859,-0.859,-0.859,-0.859,-0.859,-0.859,-0.859,-0.859,-0.859,-0.859,-0.859,-0.859,-0.859,0.0,0.0,0.0,0.0,0.0,0.0,-1.3798,-1.3956,-1.4079,0.0,0.0,0.0,0.0,0.0,0.0,0.0,0.0,0.0,0.0,0.0,0.0,0.0,0.0,0.0,0.0,-2.0744,-2.1216,-2.2102,-2.2273,-2.2334,-2.2334,-2.2334,-2.2334,-2.2334,-2.215,-2.2225,-2.2334,-2.215,-2.215,-2.2334,-2.2334,-2.1993,-2.1486,-2.1752,-2.1354,-2.0342,-2.0828,-2.0627,-2.0028,-2.0028,-1.975,-1.9192,-1.9052,-1.8854,-1.8643,-1.8433,-1.8433,-1.8433,-1.8433,-1.8433,-1.8433,-1.8433,-1.8433,-1.8433,-1.8433,-1.8433,-1.8433,-1.8433,-1.8433,-1.8433,-1.8433,-1.8713,-1.9025,-1.905,-1.9435,-1.9725,-1.9898,-1.9049,-1.7264,-1.3823,-1.2412,-1.1351,-0.968,-0.934,-0.934,-0.9443,-0.9253,-0.9139,-0.9237,-0.9041,-0.8851,-0.8747,-0.8736,-0.8698,-0.8595,-0.859,-0.859,-0.859,-0.859,-0.859,-0.859,-0.859,-0.859,-0.859,-0.859,-0.859,-0.859,-0.859,-0.859,-0.859,-0.859,-0.859,0.0,0.0,0.0,0.0,0.0,0.0,-1.4941,-1.5628,-1.6377,-1.7012,0.0,0.0,0.0,0.0,0.0,0.0,0.0,0.0,0.0,0.0,0.0,0.0,0.0,0.0,-2.1885,-2.2152,-2.22,-2.1885,-2.2114,-2.2334,-2.2334,-2.2334,-2.2334,-2.2334,-2.2042,-2.2029,-2.2334,-2.2029,-2.2029,-2.2334,-2.2334,-2.2005,-2.1535,-2.18,-2.1474,-2.0726,-2.1062,-2.1013,-2.0665,-2.0665,-2.0237,-1.9541,-1.9262,-1.9063,-1.8982,-1.8573,-1.8433,-1.8433,-1.8433,-1.8433,-1.8433,-1.8433,-1.8433,-1.8433,-1.8433,-1.8433,-1.8433,-1.8433,-1.8433,-1.8433,-1.8433,-1.8605,-1.8842,-1.9017,-1.9327,-1.9564,-1.9876,-1.9919,-1.894,-1.5714,-1.3542,-1.1717,-1.0093,-0.9551,-0.9405,-0.965,-0.947,-0.9394,-0.9639,-0.9454,-0.9215,-0.8906,-0.8884,-0.8851,-0.8606,-0.859,-0.859,-0.859,-0.859,-0.859,-0.859,-0.859,-0.859,-0.859,-0.859,-0.859,-0.859,-0.859,-0.859,-0.859,-0.859,-0.859,0.0,0.0,0.0,0.0,0.0,0.0,-1.4406,-1.4888,-1.5435,0.0,0.0,0.0,0.0,0.0,0.0,0.0,0.0,0.0,0.0,0.0,0.0,0.0,0.0,0.0,-2.1848,-2.1921,-2.1921,-2.1873,-2.2114,-2.2334,-2.2334,-2.2334,-2.2334,-2.2334,-2.2285,-2.2285,-2.2334,-2.2285,-2.2285,-2.2334,-2.2334,-2.2102,-2.18,-2.2066,-2.174,-2.1074,-2.1281,-2.1124,-2.0665,-2.0665,-2.0388,-1.997,-1.9901,-1.9552,-1.8982,-1.8924,-1.8714,-1.8433,-1.8433,-1.8433,-1.8433,-1.8433,-1.8433,-1.8433,-1.8433,-1.8433,-1.8433,-1.8433,-1.8433,-1.8433,-1.8433,-1.8605,-1.8842,-1.9017,-1.9327,-1.9564,-1.9876,-1.9919,-1.9294,-1.7274,-1.5471,-1.3701,-1.1871,-1.0411,-0.953,-0.9769,-0.9519,-0.9394,-0.9639,-0.9454,-0.9215,-0.8906,-0.8884,-0.8851,-0.8606,-0.859,-0.859,-0.859,-0.859,-0.859,-0.859,-0.859,-0.859,-0.859,-0.859,-0.859,-0.859,-0.859,-0.859,-0.859,-0.859,-0.859,0.0,0.0,0.0,-1.4805,0.0,0.0,0.0,-1.477,-1.5188,-1.5188,0.0,0.0,0.0,0.0,0.0,0.0,0.0,0.0,0.0,0.0,0.0,0.0,0.0,0.0,-2.1462,-2.1595,-2.1728,-2.186,-2.1993,-2.2126,-2.2259,-2.2334,-2.2334,-2.2334,-2.2334,-2.2334,-2.2334,-2.2334,-2.2334,-2.2334,-2.2334,-2.2126,-2.1885,-2.2212,-2.1897,-2.1281,-2.1414,-2.1245,-2.0929,-2.0795,-2.0596,-2.0388,-2.0179,-1.9901,-1.9552,-1.9332,-1.8982,-1.8714,-1.8714,-1.8573,-1.8433,-1.8433,-1.8433,-1.8433,-1.8433,-1.8433,-1.8433,-1.8433,-1.8433,-1.8433,-1.8433,-1.8519,-1.8702,-1.8996,-1.9168,-1.9424,-1.9844,-1.9919,-1.9617,-1.8774,-1.6621,-1.4294,-1.2477,-1.0772,-0.9639,-0.9813,-0.9682,-0.9639,-0.9824,-0.9737,-0.9568,-0.9334,-0.9198,-0.903,-0.8791,-0.8655,-0.859,-0.859,-0.859,-0.859,-0.859,-0.859,-0.859,-0.859,-0.859,-0.859,-0.859,-0.859,-0.859,-0.859,-0.859,-0.859,0.0,0.0,0.0,0.0,0.0,-1.4609,0.0,0.0,0.0,-1.5059,0.0,0.0,0.0,0.0,0.0,0.0,0.0,0.0,0.0,0.0,0.0,0.0,0.0,0.0,0.0,-2.1317,-2.1571,-2.1776,-2.1885,-2.2017,-2.2174,-2.2235,-2.2334,-2.2334,-2.2334,-2.2334,-2.2334,-2.2334,-2.2334,-2.2334,-2.2334,-2.2225,-2.1957,-2.2162,-2.2005,-2.1559,-2.1559,-2.1366,-2.111,-2.0904,-2.0783,-2.0665,-2.0318,-2.0179,-2.004,-1.975,-1.9401,-1.9122,-1.9122,-1.8854,-1.8503,-1.8503,-1.8433,-1.8433,-1.8433,-1.8433,-1.8433,-1.8433,-1.8433,-1.8433,-1.8433,-1.8433,-1.8541,-1.8899,-1.9039,-1.9262,-1.9693,-1.9887,-1.9919,-1.9919,-1.7464,-1.4818,-1.3079,-1.1057,-0.9742,-0.9856,-0.9851,-0.9883,-1.0003,-1.0019,-0.9932,-0.9693,-0.9449,-0.9209,-0.89,-0.8725,-0.859,-0.859,-0.859,-0.859,-0.859,-0.859,-0.859,-0.859,-0.859,-0.859,-0.859,-0.859,-0.859,-0.859,-0.859,-0.859,0.0,0.0,0.0,0.0,-1.5135,0.0,0.0,0.0,-1.4555,-1.4555,0.0,0.0,0.0,0.0,0.0,0.0,0.0,0.0,0.0,0.0,0.0,0.0,0.0,0.0,0.0,-2.1317,-2.1486,-2.1523,-2.1957,-2.2126,-2.1921,-2.2138,-2.2334,-2.2334,-2.2334,-2.2334,-2.2334,-2.2334,-2.2334,-2.2334,-2.2334,-2.2247,-2.2297,-2.2321,-2.2176,-2.1824,-2.1824,-2.1607,-2.1122,-2.1098,-2.0871,-2.0665,-2.0665,-2.0388,-2.011,-2.004,-1.9831,-1.9541,-1.9541,-1.9262,-1.8924,-1.8924,-1.8714,-1.8433,-1.8433,-1.8433,-1.8433,-1.8433,-1.8433,-1.8433,-1.8433,-1.8433,-1.8498,-1.8756,-1.8993,-1.9146,-1.9478,-1.9704,-1.9919,-1.9919,-1.8395,-1.655,-1.4911,-1.195,-0.9862,-0.9981,-0.9905,-0.9883,-1.0003,-1.0019,-0.9932,-0.9693,-0.9449,-0.9209,-0.89,-0.8725,-0.859,-0.859,-0.859,-0.859,-0.859,-0.859,-0.859,-0.859,-0.859,-0.859,-0.859,-0.859,-0.859,-0.859,-0.859,-0.859,0.0,0.0,0.0,0.0,0.0,0.0,-1.5059,0.0,-1.4697,0.0,0.0,0.0,0.0,0.0,0.0,0.0,0.0,0.0,0.0,0.0,0.0,0.0,0.0,0.0,0.0,0.0,0.0,0.0,-2.151,-2.1897,-2.209,-2.2273,-2.2334,-2.2334,-2.2334,-2.2334,-2.2334,-2.2334,-2.2334,-2.2334,-2.2334,-2.2334,-2.2334,-2.2334,-2.2273,-2.209,-2.1933,-2.1655,-2.1305,-2.1305,-2.1136,-2.0895,-2.0895,-2.0728,-2.0457,-2.0457,-2.0179,-1.9901,-1.9901,-1.9611,-1.9332,-1.9052,-1.8924,-1.8714,-1.8503,-1.8433,-1.8433,-1.8433,-1.8433,-1.8433,-1.8433,-1.8433,-1.8498,-1.8724,-1.8972,-1.9146,-1.9445,-1.9682,-1.9919,-1.9919,-1.8547,-1.6864,-1.5174,-1.2964,-1.1035,-1.0169,-0.9976,-0.9965,-1.0014,-1.0019,-0.9981,-0.9883,-0.9661,-0.9416,-0.9177,-0.8938,-0.8736,-0.8595,-0.859,-0.859,-0.859,-0.859,-0.859,-0.859,-0.859,-0.859,-0.859,-0.859,-0.859,-0.859,-0.859,-0.859,-1.6367,0.0,0.0,0.0,0.0,0.0,0.0,0.0,0.0,0.0,0.0,0.0,0.0,0.0,0.0,0.0,0.0,0.0,0.0,0.0,0.0,0.0,0.0,0.0,0.0,0.0,0.0,-2.0424,-2.1016,-2.1559,-2.2029,-2.2186,-2.2334,-2.2334,-2.2334,-2.2334,-2.2334,-2.2334,-2.2334,-2.2334,-2.2334,-2.2334,-2.2334,-2.2334,-2.2334,-2.2321,-2.2054,-2.1824,-2.1583,-2.1583,-2.1426,-2.1172,-2.1172,-2.1086,-2.0762,-2.0759,-2.0527,-2.0249,-2.0249,-2.004,-1.968,-1.9262,-1.9052,-1.8924,-1.8643,-1.8503,-1.8433,-1.8433,-1.8433,-1.8433,-1.8433,-1.8433,-1.8476,-1.8649,-1.8875,-1.9112,-1.9348,-1.9585,-1.9844,-1.9908,-1.8926,-1.7398,-1.525,-1.356,-1.1947,-1.0253,-1.0019,-1.0019,-1.0019,-1.0019,-1.0019,-1.0019,-0.9807,-0.9568,-0.9323,-0.9084,-0.8845,-0.86,-0.859,-0.859,-0.859,-0.859,-0.859,-0.859,-0.859,-0.859,-0.859,-0.859,-0.859,-0.859,-0.859,-0.859,0.0,0.0,0.0,-1.6751,0.0,0.0,0.0,0.0,-1.5177,0.0,0.0,0.0,0.0,0.0,0.0,0.0,0.0,0.0,0.0,0.0,0.0,0.0,0.0,0.0,0.0,0.0,0.0,-1.9893,-2.0629,-2.1197,-2.1486,-2.1981,-2.2334,-2.2334,-2.2334,-2.2334,-2.2334,-2.2334,-2.2334,-2.2334,-2.2334,-2.2334,-2.2334,-2.2334,-2.2334,-2.2334,-2.2321,-2.2176,-2.186,-2.186,-2.1704,-2.1462,-2.1462,-2.1293,-2.1086,-2.0832,-2.0665,-2.0665,-2.0665,-2.0388,-2.004,-1.9611,-1.9262,-1.8993,-1.8993,-1.8714,-1.8433,-1.8433,-1.8433,-1.8433,-1.8433,-1.8433,-1.8363,-1.8444,-1.8627,-1.8864,-1.9039,-1.9348,-1.9575,-1.9876,-1.9844,-1.8774,-1.548,-1.356,-1.1947,-1.0253,-1.0019,-1.0019,-1.0019,-1.0019,-1.0019,-1.0019,-0.9807,-0.9568,-0.9323,-0.9084,-0.8845,-0.86,-0.859,-0.859,-0.859,-0.859,-0.859,-0.859,-0.859,-0.859,-0.859,-0.859,-0.859,-0.859,-0.859,-0.859,0.0,0.0,-1.7479,-1.7163,0.0,0.0,0.0,0.0,0.0,0.0,0.0,0.0,0.0,0.0,0.0,0.0,0.0,0.0,0.0,0.0,0.0,0.0,0.0,0.0,0.0,0.0,0.0,-1.9072,-1.9664,-2.042,-2.116,-2.1437,-2.1776,-2.2247,-2.2334,-2.2334,-2.2334,-2.2334,-2.2334,-2.2334,-2.2334,-2.2334,-2.2334,-2.2334,-2.2334,-2.2334,-2.2334,-2.2188,-2.1885,-2.2054,-2.1969,-2.174,-2.174,-2.1571,-2.1305,-2.1028,-2.0822,-2.0665,-2.0665,-2.0596,-2.0457,-2.004,-1.9831,-1.9692,-1.9471,-1.9122,-1.8784,-1.8784,-1.8643,-1.8433,-1.8433,-1.8433,-1.8433,-1.8433,-1.8735,-1.9047,-1.906,-1.9456,-1.9822,-1.9908,-1.9919,-1.885,-1.548,-1.4483,-1.3175,-1.0408,-1.0019,-1.0019,-1.0019,-1.0019,-1.0019,-1.0019,-0.9949,-0.9742,-0.934,-0.8938,-0.8677,-0.8595,-0.859,-0.859,-0.859,-0.859,-0.859,-0.859,-0.859,-0.859,-0.859,-0.859,-0.859,-0.859,-0.859,-0.859,-1.9947,-1.9321,0.0,-1.8347,-1.7652,0.0,-1.6666,0.0,0.0,0.0,0.0,0.0,0.0,0.0,0.0,0.0,0.0,0.0,0.0,0.0,0.0,0.0,0.0,0.0,0.0,0.0,-1.8155,-1.8517,-1.8951,-1.9567,0.0,0.0,-2.1268,-2.1885,-2.2091,-2.2162,-2.2334,-2.2334,-2.2334,-2.2334,-2.2334,-2.2334,-2.2334,-2.2334,-2.2334,-2.2334,-2.2334,-2.2162,-2.2029,-2.2273,-2.2237,-2.2005,-2.2005,-2.1848,-2.1571,-2.1197,-2.0965,-2.0665,-2.0665,-2.0665,-2.0665,-2.0388,-2.0249,-2.0063,-1.9935,-1.9608,-1.9279,-1.9226,-1.9036,-1.8834,-1.8692,-1.862,-1.862,-1.862,-1.8856,-1.9103,-1.9252,-1.951,-1.9822,-1.9908,-1.9919,-1.9002,-1.6245,-1.5327,-1.3791,-1.048,-1.0019,-1.0019,-1.0019,-1.0019,-1.0019,-1.0019,-1.0019,-0.9824,-0.9345,-0.8861,-0.859,-0.859,-0.859,-0.859,-0.859,-0.859,-0.859,-0.859,-0.859,-0.859,-0.859,-0.859,-0.859,-0.859,-0.859,-0.859]},{"header":{"parameterUnit":"m.s-1","parameterCategory":1,"la1":30.6,"la2":29.2853,"lo1":-89.7004,"lo2":-87.6739,"dx":0.0162,"dy":0.0183,"nx":112,"ny":82,"refTime":"2023-01-24T18:00:00:Z","depth":0,"parameterNumber":3,"parameterNumberName":"V-component_of_WINDS"},"data":[0.0,0.0,0.0,0.0,0.0,0.0,0.0,0.0,0.0,0.0,0.0,0.0,0.0,0.0,0.0,0.0,0.0,0.0,0.0,0.0,0.0,0.0,0.0,0.0,0.0,0.0,0.0,0.0,0.0,0.0,0.0,0.0,0.0,0.0,0.0,0.0,0.0,0.0,0.0,0.0,0.0,0.0,0.0,0.0,0.0,0.0,0.0,0.0,0.0,0.0,0.0,0.0,0.0,0.0,0.0,0.0,0.0,0.0,0.0,0.0,0.0,0.0,0.0,0.0,0.0,0.0,0.0,0.0,0.0,0.0,0.0,0.0,0.0,0.0,0.0,0.0,0.0,0.0,0.0,0.0,0.0,0.0,0.0,0.0,0.0,0.0,0.0,0.0,0.0,0.0,0.0,3.7442,3.7013,3.6672,3.6672,3.6023,3.5467,3.5154,0.0,0.0,0.0,0.0,0.0,0.0,0.0,0.0,0.0,0.0,0.0,0.0,0.0,0.0,0.0,0.0,0.0,0.0,0.0,0.0,0.0,0.0,0.0,0.0,0.0,0.0,0.0,0.0,0.0,0.0,0.0,0.0,0.0,0.0,0.0,0.0,0.0,0.0,0.0,0.0,0.0,0.0,0.0,0.0,0.0,0.0,0.0,0.0,0.0,0.0,0.0,0.0,0.0,0.0,0.0,0.0,0.0,0.0,0.0,0.0,0.0,0.0,0.0,0.0,0.0,0.0,0.0,0.0,0.0,0.0,0.0,0.0,0.0,0.0,0.0,0.0,0.0,0.0,0.0,0.0,0.0,0.0,0.0,0.0,0.0,0.0,0.0,0.0,0.0,0.0,0.0,0.0,0.0,0.0,0.0,0.0,0.0,0.0,0.0,0.0,0.0,0.0,0.0,0.0,3.8478,3.7715,3.758,3.7521,3.7521,3.7406,3.7016,3.6294,0.0,0.0,0.0,0.0,0.0,0.0,0.0,0.0,0.0,0.0,0.0,0.0,0.0,0.0,0.0,0.0,0.0,0.0,0.0,0.0,0.0,0.0,0.0,0.0,0.0,0.0,0.0,0.0,0.0,0.0,0.0,0.0,0.0,0.0,0.0,0.0,0.0,0.0,0.0,0.0,0.0,0.0,0.0,0.0,0.0,0.0,0.0,0.0,0.0,0.0,0.0,0.0,0.0,0.0,0.0,0.0,0.0,0.0,0.0,0.0,0.0,0.0,0.0,0.0,0.0,0.0,0.0,0.0,0.0,0.0,0.0,0.0,0.0,0.0,0.0,0.0,0.0,0.0,0.0,0.0,0.0,0.0,0.0,0.0,0.0,0.0,0.0,0.0,0.0,0.0,0.0,0.0,0.0,0.0,0.0,0.0,0.0,0.0,0.0,0.0,0.0,0.0,0.0,3.969,3.9546,3.9164,3.8706,3.84,3.84,3.798,3.7521,3.7177,3.6795,0.0,0.0,0.0,0.0,0.0,0.0,0.0,0.0,0.0,0.0,0.0,0.0,0.0,0.0,0.0,0.0,0.0,0.0,0.0,0.0,0.0,0.0,0.0,0.0,0.0,0.0,0.0,0.0,0.0,0.0,0.0,0.0,0.0,0.0,0.0,0.0,0.0,0.0,0.0,0.0,0.0,0.0,0.0,0.0,0.0,0.0,0.0,0.0,0.0,0.0,0.0,0.0,0.0,0.0,0.0,0.0,0.0,0.0,0.0,0.0,0.0,0.0,0.0,0.0,0.0,0.0,0.0,0.0,0.0,0.0,0.0,0.0,0.0,0.0,0.0,0.0,0.0,0.0,0.0,0.0,0.0,0.0,0.0,0.0,0.0,0.0,0.0,0.0,0.0,0.0,0.0,0.0,0.0,0.0,0.0,0.0,0.0,0.0,0.0,0.0,0.0,0.0,4.0301,4.0301,4.0301,3.969,3.9317,3.9317,3.8706,3.8247,3.8018,3.8018,0.0,0.0,0.0,0.0,0.0,0.0,0.0,0.0,0.0,0.0,0.0,0.0,0.0,0.0,0.0,0.0,0.0,0.0,0.0,0.0,0.0,0.0,0.0,0.0,0.0,0.0,0.0,0.0,0.0,0.0,0.0,0.0,0.0,0.0,0.0,0.0,0.0,0.0,0.0,0.0,0.0,0.0,0.0,0.0,0.0,0.0,0.0,0.0,0.0,0.0,0.0,0.0,0.0,0.0,0.0,0.0,0.0,0.0,0.0,0.0,0.0,0.0,0.0,0.0,0.0,0.0,0.0,0.0,0.0,0.0,0.0,0.0,0.0,0.0,0.0,0.0,0.0,0.0,0.0,0.0,0.0,0.0,0.0,0.0,0.0,0.0,0.0,0.0,0.0,0.0,0.0,0.0,0.0,0.0,0.0,0.0,0.0,0.0,0.0,0.0,0.0,0.0,4.0301,4.0301,4.0301,4.0263,4.0225,4.0225,4.0148,3.9766,3.8973,3.8897,0.0,0.0,0.0,0.0,0.0,0.0,0.0,0.0,0.0,0.0,0.0,0.0,0.0,0.0,0.0,0.0,0.0,0.0,0.0,0.0,0.0,0.0,0.0,0.0,0.0,0.0,0.0,0.0,0.0,0.0,0.0,0.0,0.0,0.0,0.0,0.0,0.0,0.0,0.0,0.0,0.0,0.0,0.0,0.0,0.0,0.0,0.0,0.0,0.0,0.0,0.0,0.0,0.0,0.0,0.0,0.0,0.0,0.0,0.0,0.0,0.0,0.0,0.0,0.0,0.0,0.0,0.0,0.0,0.0,0.0,0.0,0.0,0.0,0.0,0.0,0.0,0.0,0.0,0.0,0.0,0.0,0.0,0.0,0.0,0.0,0.0,0.0,0.0,0.0,0.0,0.0,0.0,0.0,0.0,0.0,0.0,0.0,0.0,0.0,0.0,0.0,0.0,4.0301,4.0301,0.0,4.0301,4.0301,4.0301,4.0301,4.0148,3.9843,0.0,0.0,0.0,0.0,0.0,0.0,0.0,0.0,0.0,0.0,0.0,0.0,0.0,0.0,0.0,0.0,0.0,0.0,0.0,0.0,0.0,0.0,0.0,0.0,0.0,0.0,0.0,0.0,0.0,0.0,0.0,0.0,0.0,0.0,0.0,0.0,0.0,0.0,0.0,0.0,0.0,0.0,0.0,0.0,0.0,0.0,0.0,0.0,0.0,0.0,0.0,0.0,0.0,0.0,0.0,0.0,0.0,0.0,0.0,0.0,0.0,0.0,0.0,0.0,0.0,0.0,0.0,0.0,0.0,0.0,0.0,0.0,0.0,0.0,0.0,0.0,0.0,0.0,0.0,0.0,0.0,0.0,0.0,0.0,0.0,0.0,0.0,0.0,0.0,0.0,0.0,0.0,0.0,0.0,0.0,0.0,0.0,0.0,0.0,0.0,0.0,0.0,4.0301,4.0301,4.0301,0.0,4.0301,4.0301,4.0301,4.0301,4.0301,4.0301,0.0,0.0,0.0,0.0,0.0,0.0,0.0,0.0,0.0,0.0,0.0,0.0,0.0,0.0,0.0,0.0,0.0,0.0,0.0,0.0,0.0,0.0,0.0,0.0,0.0,0.0,0.0,0.0,0.0,0.0,0.0,0.0,0.0,0.0,0.0,0.0,0.0,0.0,0.0,0.0,0.0,0.0,0.0,0.0,0.0,0.0,0.0,0.0,0.0,0.0,0.0,0.0,0.0,0.0,0.0,0.0,0.0,0.0,0.0,0.0,0.0,0.0,0.0,0.0,0.0,0.0,0.0,0.0,0.0,0.0,0.0,0.0,0.0,0.0,0.0,0.0,0.0,0.0,0.0,0.0,0.0,0.0,0.0,0.0,0.0,0.0,0.0,0.0,0.0,0.0,0.0,0.0,0.0,0.0,0.0,0.0,0.0,0.0,0.0,0.0,0.0,0.0,4.0301,4.0301,4.0301,4.0301,4.0301,4.0301,4.0301,4.0301,4.0301,0.0,0.0,0.0,0.0,0.0,0.0,0.0,0.0,0.0,0.0,0.0,0.0,0.0,0.0,0.0,0.0,0.0,0.0,0.0,0.0,0.0,0.0,0.0,0.0,0.0,0.0,0.0,0.0,0.0,0.0,0.0,0.0,0.0,0.0,0.0,0.0,0.0,0.0,0.0,0.0,0.0,0.0,0.0,0.0,0.0,0.0,0.0,0.0,0.0,0.0,0.0,0.0,0.0,0.0,0.0,0.0,0.0,0.0,0.0,0.0,0.0,0.0,0.0,0.0,0.0,0.0,0.0,0.0,0.0,0.0,0.0,0.0,0.0,0.0,0.0,0.0,0.0,0.0,0.0,0.0,0.0,0.0,0.0,0.0,0.0,0.0,0.0,0.0,0.0,0.0,0.0,0.0,0.0,0.0,0.0,0.0,0.0,0.0,0.0,0.0,0.0,0.0,0.0,4.0377,4.0301,4.0301,4.0301,4.0301,4.0301,4.0301,4.0301,4.0301,4.0301,0.0,0.0,0.0,0.0,0.0,0.0,0.0,0.0,0.0,0.0,0.0,0.0,0.0,0.0,0.0,0.0,0.0,0.0,0.0,0.0,0.0,0.0,0.0,0.0,0.0,0.0,0.0,0.0,0.0,0.0,0.0,0.0,0.0,0.0,0.0,0.0,0.0,0.0,0.0,0.0,0.0,0.0,0.0,0.0,0.0,0.0,0.0,0.0,0.0,0.0,0.0,0.0,0.0,0.0,0.0,0.0,0.0,0.0,0.0,0.0,0.0,0.0,0.0,0.0,0.0,0.0,0.0,0.0,0.0,0.0,0.0,0.0,0.0,0.0,0.0,0.0,0.0,0.0,0.0,0.0,0.0,0.0,0.0,0.0,0.0,0.0,0.0,0.0,0.0,0.0,0.0,0.0,0.0,0.0,0.0,0.0,0.0,0.0,0.0,0.0,0.0,0.0,4.1435,4.1342,4.1304,4.1304,4.1304,4.1151,4.0807,4.0769,4.0654,4.0301,0.0,0.0,0.0,0.0,0.0,0.0,0.0,0.0,0.0,0.0,0.0,0.0,0.0,0.0,0.0,0.0,0.0,0.0,0.0,0.0,0.0,0.0,0.0,0.0,0.0,0.0,0.0,0.0,0.0,0.0,0.0,0.0,0.0,0.0,0.0,0.0,0.0,0.0,0.0,0.0,0.0,0.0,0.0,0.0,0.0,0.0,0.0,0.0,0.0,0.0,0.0,0.0,0.0,0.0,0.0,0.0,0.0,0.0,0.0,0.0,0.0,0.0,0.0,0.0,0.0,0.0,0.0,0.0,0.0,0.0,0.0,0.0,0.0,0.0,0.0,0.0,0.0,0.0,0.0,0.0,0.0,0.0,0.0,0.0,0.0,0.0,0.0,0.0,0.0,0.0,0.0,0.0,0.0,0.0,0.0,0.0,0.0,0.0,0.0,0.0,0.0,0.0,4.3013,4.2889,4.2843,4.2843,4.2823,4.2508,4.1715,4.1619,4.1304,4.0568,0.0,0.0,0.0,0.0,0.0,0.0,0.0,0.0,0.0,0.0,0.0,0.0,0.0,0.0,0.0,0.0,0.0,0.0,0.0,0.0,0.0,0.0,0.0,0.0,0.0,0.0,0.0,0.0,0.0,0.0,0.0,0.0,0.0,0.0,0.0,0.0,0.0,0.0,0.0,0.0,0.0,0.0,0.0,0.0,0.0,0.0,0.0,0.0,0.0,0.0,0.0,0.0,0.0,0.0,0.0,0.0,0.0,0.0,0.0,0.0,4.5887,0.0,0.0,0.0,0.0,0.0,0.0,0.0,0.0,0.0,0.0,0.0,0.0,0.0,0.0,0.0,0.0,0.0,0.0,0.0,0.0,0.0,0.0,0.0,0.0,0.0,0.0,0.0,0.0,0.0,0.0,0.0,0.0,0.0,0.0,0.0,0.0,0.0,0.0,0.0,0.0,0.0,4.3227,4.3127,4.3111,4.3111,4.3013,4.2867,4.2713,4.2565,4.245,4.2297,4.2259,0.0,0.0,0.0,0.0,0.0,0.0,0.0,0.0,0.0,0.0,0.0,0.0,0.0,0.0,0.0,0.0,0.0,0.0,0.0,0.0,0.0,0.0,0.0,0.0,0.0,0.0,0.0,0.0,0.0,0.0,0.0,0.0,0.0,0.0,0.0,0.0,0.0,0.0,0.0,0.0,0.0,0.0,0.0,0.0,0.0,0.0,0.0,0.0,0.0,0.0,0.0,0.0,0.0,0.0,0.0,0.0,0.0,0.0,0.0,0.0,4.5933,0.0,0.0,0.0,0.0,0.0,0.0,0.0,0.0,0.0,0.0,0.0,0.0,0.0,0.0,0.0,0.0,0.0,0.0,0.0,0.0,0.0,0.0,0.0,0.0,0.0,0.0,0.0,0.0,0.0,0.0,0.0,0.0,0.0,0.0,0.0,0.0,0.0,0.0,0.0,0.0,4.458,4.446,4.4384,4.4384,4.4265,4.4025,4.3602,4.3455,4.3214,4.2832,4.2794,0.0,0.0,0.0,0.0,0.0,0.0,0.0,0.0,0.0,0.0,0.0,0.0,0.0,0.0,0.0,0.0,0.0,0.0,0.0,0.0,0.0,0.0,0.0,0.0,0.0,0.0,0.0,0.0,0.0,0.0,0.0,0.0,0.0,0.0,0.0,0.0,0.0,0.0,0.0,0.0,0.0,0.0,0.0,0.0,0.0,0.0,0.0,0.0,0.0,0.0,0.0,0.0,0.0,4.8543,4.8298,4.7718,4.8387,4.8513,4.8243,4.8137,4.7429,4.6316,4.6232,0.0,0.0,0.0,0.0,0.0,0.0,0.0,0.0,0.0,0.0,0.0,0.0,0.0,0.0,0.0,0.0,0.0,0.0,0.0,0.0,0.0,0.0,0.0,0.0,4.5749,4.5749,0.0,0.0,0.0,0.0,0.0,0.0,0.0,0.0,0.0,0.0,0.0,0.0,4.599,4.5807,4.5749,4.5749,4.564,4.5287,4.4556,4.4374,4.402,4.3341,4.3302,4.3532,0.0,0.0,0.0,0.0,0.0,0.0,0.0,0.0,0.0,0.0,0.0,0.0,0.0,0.0,0.0,0.0,0.0,0.0,0.0,0.0,0.0,0.0,0.0,0.0,0.0,0.0,0.0,0.0,0.0,0.0,0.0,0.0,4.8956,4.8237,0.0,0.0,0.0,0.0,0.0,0.0,0.0,0.0,0.0,0.0,0.0,0.0,0.0,4.9639,4.975,5.1434,5.2211,5.21,5.302,5.3423,5.3328,5.3423,5.3541,5.3569,5.3553,0.0,4.7289,4.7931,0.0,0.0,0.0,0.0,0.0,0.0,0.0,0.0,0.0,0.0,0.0,0.0,0.0,0.0,0.0,0.0,0.0,0.0,0.0,0.0,0.0,0.0,4.7827,4.6313,4.5964,4.5964,0.0,4.5899,4.588,4.588,4.5911,0.0,0.0,0.0,0.0,0.0,0.0,0.0,4.598,4.5975,4.5964,4.5964,4.588,4.5821,4.5705,4.5557,4.5439,4.5332,4.5332,4.5015,4.436,4.4261,0.0,0.0,0.0,0.0,0.0,0.0,0.0,0.0,0.0,0.0,0.0,0.0,0.0,0.0,0.0,0.0,0.0,0.0,0.0,0.0,0.0,0.0,0.0,0.0,0.0,0.0,0.0,0.0,0.0,4.9082,4.951,4.8698,4.9214,4.9303,0.0,0.0,0.0,0.0,0.0,0.0,0.0,0.0,0.0,5.2345,5.2416,5.2636,5.3084,5.3489,5.3484,5.3035,5.3512,5.347,5.2982,5.2982,5.3015,5.3096,5.3096,5.1886,4.9988,5.0993,5.0899,5.0141,0.0,0.0,0.0,0.0,4.9308,4.8967,4.9339,4.9215,0.0,4.9441,0.0,0.0,0.0,0.0,0.0,0.0,0.0,0.0,0.0,0.0,4.8172,4.6429,4.6002,4.6118,4.6618,4.6707,4.6523,0.0,4.5975,4.6002,4.6002,0.0,0.0,0.0,0.0,4.6478,4.603,4.6002,4.6002,4.6002,4.5956,4.59,4.59,4.5795,4.5688,4.5688,4.5688,4.5719,4.5796,4.544,4.5409,0.0,0.0,0.0,0.0,0.0,0.0,0.0,0.0,0.0,0.0,0.0,0.0,0.0,0.0,0.0,0.0,0.0,0.0,0.0,0.0,0.0,0.0,0.0,0.0,0.0,0.0,0.0,0.0,4.9492,5.0025,4.9246,4.9768,4.9991,0.0,0.0,0.0,0.0,0.0,0.0,5.2512,5.3534,5.439,5.4987,5.4793,5.501,5.5593,5.5235,5.4747,5.4163,5.4163,5.3808,5.317,5.317,5.317,5.317,5.317,5.317,5.3186,5.3412,5.3127,5.256,5.2734,5.2847,5.281,5.2598,5.2145,5.1714,5.2212,5.1903,5.1357,5.1771,0.0,5.1585,5.1221,0.0,0.0,0.0,0.0,4.9705,4.9472,4.9484,4.9182,4.7706,4.7007,4.6851,4.7473,4.7628,4.7434,0.0,4.6662,4.6662,4.6662,0.0,0.0,0.0,0.0,4.7275,4.6729,4.6662,4.6662,4.6662,4.6601,4.6597,4.6597,4.6485,4.6436,4.6436,4.6242,4.639,4.6962,4.6319,4.6287,4.7001,0.0,0.0,0.0,0.0,0.0,0.0,0.0,0.0,0.0,0.0,0.0,0.0,0.0,0.0,0.0,0.0,0.0,0.0,0.0,0.0,0.0,0.0,0.0,0.0,0.0,0.0,0.0,0.0,0.0,5.0697,5.1082,0.0,0.0,0.0,0.0,5.1356,5.2514,5.3153,5.3153,5.3941,5.4392,5.4429,5.5142,5.5555,5.5593,5.6399,5.6737,5.6699,5.6699,5.6699,5.6662,5.6662,5.6662,5.6662,5.6662,5.6662,5.6474,5.418,5.3203,5.324,5.3992,5.4276,5.42,5.3428,5.3128,5.309,5.3128,5.2585,5.2049,5.3141,5.2704,5.1808,5.2048,5.1525,0.0,0.0,5.2097,5.3261,5.24,5.2212,5.1979,5.1125,4.9687,4.8483,4.8522,4.8522,4.8522,0.0,4.8483,4.8483,4.8483,0.0,4.8516,4.8483,4.8516,4.8516,4.8483,4.8483,4.8483,4.8483,4.8483,4.8477,4.8477,4.8472,4.8433,4.8433,4.7689,4.7223,4.7262,4.6457,4.6419,4.7262,4.7268,0.0,0.0,0.0,0.0,0.0,0.0,0.0,0.0,0.0,0.0,0.0,0.0,0.0,0.0,0.0,0.0,0.0,0.0,0.0,0.0,0.0,0.0,0.0,0.0,0.0,0.0,0.0,0.0,5.082,5.1828,0.0,5.1819,5.2023,5.2302,5.2548,5.3945,5.4747,5.4747,5.5535,5.6023,5.6023,5.5743,5.5593,5.5593,5.5385,5.5272,5.531,5.5836,5.5798,5.531,5.5836,5.5798,5.5272,5.5272,5.5272,5.5272,5.4897,5.5085,5.561,5.5911,5.6023,5.5986,5.5685,5.5235,5.4781,5.4937,5.445,5.3898,5.4702,5.4762,5.4383,5.3399,5.3303,5.3526,5.3526,5.442,5.5281,5.4971,5.4077,5.2873,5.1513,4.9881,4.8755,4.9304,4.946,4.9609,5.0153,4.9376,4.8599,4.8599,4.8599,4.8599,4.8599,4.8599,4.8599,4.8599,4.8599,4.8599,4.8599,4.8599,4.8599,4.8599,4.8599,4.8599,4.8599,4.8327,4.8133,4.8133,4.7822,4.7822,4.8133,4.8133,4.817,0.0,0.0,0.0,0.0,0.0,0.0,0.0,0.0,0.0,0.0,0.0,0.0,0.0,0.0,0.0,0.0,0.0,0.0,0.0,0.0,0.0,0.0,0.0,0.0,0.0,0.0,5.2118,5.1609,5.251,5.3074,5.2757,5.3036,5.3299,5.3599,5.4597,5.5293,5.5593,5.6174,5.6587,5.6887,5.6361,5.6061,5.6061,5.5498,5.5235,5.5235,5.5798,5.5761,5.5272,5.5798,5.5761,5.5235,5.5235,5.5235,5.5272,5.5836,5.6399,5.6887,5.6887,5.6887,5.6887,5.6887,5.6549,5.6038,5.6009,5.5774,5.5515,5.5649,5.5875,5.5962,5.5141,5.5288,5.586,5.6442,5.7084,5.7688,5.8231,5.6491,5.4356,5.3508,5.134,4.9598,5.0192,5.0348,5.0503,5.1086,5.027,4.9493,4.9493,4.9493,4.9493,4.9493,4.9493,4.9493,4.9493,4.9493,4.9493,4.9493,4.9493,4.9493,4.9493,4.9493,4.9493,4.9493,4.9182,4.9027,4.9027,4.8755,4.8599,4.8599,4.8599,4.8647,4.8686,0.0,0.0,0.0,0.0,0.0,0.0,0.0,0.0,0.0,0.0,0.0,0.0,0.0,0.0,0.0,0.0,0.0,0.0,0.0,0.0,0.0,0.0,0.0,5.178,5.2644,5.3186,5.3186,5.3224,5.3562,5.4334,5.3712,5.3562,5.4371,5.4446,5.4784,5.5593,5.563,5.6006,5.6849,5.6887,5.6887,5.6887,5.6887,5.6887,5.6887,5.6962,5.6962,5.6925,5.6962,5.6962,5.6962,5.6962,5.6962,5.6962,5.6962,5.698,5.698,5.6925,5.6887,5.6887,5.6887,5.6905,5.6825,5.6267,5.6458,5.6808,5.5983,5.5933,5.6341,5.7193,5.7497,5.7878,5.9583,6.0087,6.0483,6.2112,5.9398,5.6458,5.731,5.4219,5.1127,5.119,5.1202,5.1202,5.1202,5.1202,5.1202,5.1202,5.1202,5.1202,5.1202,5.1202,0.0,5.1202,5.1202,5.1202,5.1202,5.1202,5.1202,5.1202,5.1202,5.1202,5.1202,5.0425,4.9926,4.9926,4.9143,4.8677,4.8677,4.8677,4.8704,4.8793,0.0,0.0,0.0,0.0,0.0,0.0,0.0,0.0,0.0,0.0,0.0,0.0,0.0,0.0,0.0,0.0,0.0,0.0,0.0,0.0,0.0,0.0,5.1668,5.1893,5.2644,5.3186,5.3186,5.3695,5.4146,5.4371,5.4183,5.4409,5.5218,5.5255,5.563,5.6512,5.6549,5.6662,5.6887,5.6887,5.6887,5.6887,5.6887,5.6887,5.6887,5.8089,5.8314,5.7788,5.8389,5.8652,5.8614,5.8014,5.8089,5.8652,5.8652,5.8794,5.8845,5.7461,5.6887,5.6887,5.6887,5.7154,5.7487,5.7558,5.783,5.8095,5.7834,5.7842,5.808,5.8931,5.9663,6.0395,6.1518,6.228,6.284,6.3305,6.0281,5.7149,5.735,5.4199,5.1121,5.1127,5.1184,5.1202,5.1202,5.1202,5.1202,5.1202,5.1202,5.1202,5.1202,5.1202,0.0,5.1202,5.1202,5.1202,5.1202,5.1202,5.1202,5.1202,5.1202,5.1202,5.1202,5.0969,5.0853,5.0853,5.0619,5.0503,5.0503,5.0508,5.0495,0.0,0.0,0.0,0.0,0.0,0.0,0.0,0.0,0.0,0.0,0.0,0.0,0.0,0.0,0.0,0.0,0.0,0.0,0.0,0.0,0.0,0.0,5.2023,5.2827,5.2827,5.3307,5.3695,5.3695,5.4409,5.4897,5.4897,5.5235,5.563,5.6028,5.6101,5.6644,5.7809,5.7883,5.8239,5.8915,5.8952,5.8952,5.8952,5.8952,5.8952,5.8952,5.9891,6.0116,5.9666,6.0116,6.0342,6.0304,5.9853,5.9929,6.036,6.0507,6.0664,0.0,0.0,0.0,0.0,0.0,5.7563,5.7927,5.812,5.8595,5.9145,5.9145,5.9377,5.9803,6.0692,6.1291,6.1968,6.3216,6.3892,6.4376,6.4724,6.1354,5.7907,5.7885,5.4381,5.1075,5.1089,5.1121,5.1145,5.1145,5.119,0.0,5.1202,5.1202,5.1202,5.1202,5.1202,5.1202,5.1202,5.1202,5.1202,5.1202,5.1202,5.1202,5.1202,5.1202,0.0,0.0,0.0,5.1202,5.1202,5.1202,0.0,0.0,0.0,5.1214,5.1214,0.0,0.0,0.0,4.9794,4.9772,0.0,0.0,0.0,0.0,0.0,0.0,0.0,0.0,0.0,0.0,0.0,0.0,0.0,0.0,0.0,0.0,5.3047,5.4146,5.4221,5.4383,5.4487,5.4487,5.5238,5.5708,5.5708,5.6401,5.6853,5.6836,5.691,5.764,5.9102,0.0,0.0,0.0,0.0,6.1656,6.1656,6.1731,6.1806,6.1806,6.1881,6.1956,6.1956,6.1956,6.1994,6.2069,6.2014,6.2033,6.2184,6.2508,6.2618,6.2309,5.9982,5.9238,5.9354,5.8578,5.8424,5.8599,5.8556,0.0,0.0,6.019,6.0731,6.1543,6.2433,6.2704,6.3013,6.4677,6.5141,6.5296,6.5992,6.2627,5.9038,5.9035,5.5218,5.1593,5.1668,5.1509,5.1386,5.1386,5.145,5.1468,5.1474,5.1319,5.1202,5.1202,5.1202,5.1202,5.1202,5.1202,5.1202,5.1202,0.0,0.0,5.1202,5.1202,5.1202,5.1202,5.1202,5.1202,5.1202,5.1202,5.1202,5.1202,5.1202,5.1202,5.1202,5.1202,5.1202,5.1202,5.1264,5.1304,0.0,0.0,0.0,0.0,0.0,0.0,0.0,0.0,0.0,0.0,0.0,0.0,0.0,0.0,0.0,5.2636,5.3456,5.4315,5.4987,5.5099,5.5117,5.5117,5.5865,5.6426,5.6426,5.6575,5.6912,5.7547,5.7603,5.8034,5.8986,5.9043,5.9251,5.9702,6.0339,6.0716,6.083,6.1468,6.1806,6.1806,0.0,0.0,6.2857,6.2857,6.3195,6.3778,6.3368,6.357,6.4231,6.4568,6.4441,6.3948,6.2538,6.2022,6.1993,6.1416,6.1207,6.1201,6.0691,6.1128,6.193,6.193,6.2511,6.3371,6.4213,6.4483,0.0,6.5682,6.5953,6.5992,6.6147,6.3942,6.166,6.1669,5.8291,5.511,5.5118,5.4064,5.3138,5.3204,5.3217,5.323,5.3222,5.2096,5.1202,5.1202,5.1202,5.1202,5.1202,5.1202,5.1202,5.1202,5.1202,5.1202,5.1202,5.1202,5.1202,5.1202,5.1202,5.1202,5.1202,5.1202,5.1202,5.1202,5.1202,5.1202,5.1202,5.1202,5.1202,5.1202,5.1225,5.1236,0.0,0.0,0.0,0.0,0.0,0.0,0.0,0.0,0.0,0.0,0.0,5.1546,0.0,0.0,5.2958,5.3814,5.428,5.4839,5.5695,5.6143,5.6293,5.5977,5.6706,5.7191,5.7191,5.7565,5.7956,5.8308,5.8385,5.8741,5.9522,5.96,6.009,6.1012,6.1424,6.1933,6.2444,6.3031,6.3313,6.3313,6.3891,6.4206,6.4206,6.4047,6.4254,6.4813,6.4754,6.5086,6.5705,6.6489,6.6743,6.658,6.6049,6.4768,6.3241,6.2932,6.286,6.2755,6.2008,6.2627,6.3632,6.3207,6.3903,6.5025,6.545,6.5605,6.576,6.6611,6.6843,6.6959,6.7384,6.5605,6.371,6.371,6.0131,5.6695,5.6695,5.5033,5.3553,5.3575,5.3635,5.3656,5.3637,5.299,5.2466,5.2445,5.2445,5.2445,5.2445,5.2445,5.2445,5.2445,5.2445,5.2445,5.2445,5.2445,5.2445,5.2445,5.2445,5.2445,5.2445,5.2445,5.2445,5.2445,5.2445,5.2445,5.2445,5.2445,5.2445,5.2445,5.2445,5.2018,0.0,0.0,0.0,0.0,0.0,0.0,0.0,0.0,5.2438,5.1842,5.1805,5.2141,5.2995,5.3088,5.3571,5.502,5.5243,5.554,5.6432,5.71,5.7384,5.704,5.7582,5.7973,5.7973,5.8552,5.8922,5.8859,5.8902,5.9258,6.0034,6.0174,6.0985,6.2602,6.2853,6.3365,6.416,6.4648,6.4917,6.4917,6.5159,6.5299,6.5284,6.5014,6.503,6.5322,6.5933,6.6466,6.7012,6.7988,6.8571,6.8816,6.8816,6.7114,6.4687,6.4493,6.4454,6.429,6.3439,6.4174,6.5373,6.4687,6.545,6.6727,6.6727,6.6727,6.6843,6.7539,6.7771,6.7926,6.8622,6.7268,6.5605,6.5102,6.1543,5.8169,5.7666,5.5689,5.401,5.4018,5.4049,5.4071,5.4086,5.4153,5.4071,5.3754,5.3689,5.3695,5.3695,5.3695,5.3695,5.3695,5.3695,5.3695,5.3695,5.3695,5.3695,5.3695,5.3695,5.3695,5.3695,5.3695,5.3695,5.3695,5.3695,5.3695,5.3695,5.3695,5.3695,5.3695,5.3695,5.2989,0.0,0.0,0.0,5.0413,5.1379,5.2308,0.0,0.0,5.2568,5.2512,5.3051,5.3794,5.4574,5.4723,5.5057,5.5986,5.6172,5.6432,5.7249,5.7435,5.7732,5.8384,5.8533,5.8607,5.8607,5.8702,5.8719,5.8719,5.8719,5.909,5.9908,6.005,6.0584,6.162,6.2768,6.3421,6.3585,6.4698,6.5238,6.5238,6.5284,6.5299,6.5299,6.5253,6.5253,6.5352,6.6441,6.75,6.8547,6.8685,6.8756,6.8816,6.8816,6.8584,6.8158,6.7346,6.7075,6.6959,6.6069,6.6417,6.7191,6.7114,6.7733,6.8506,6.8506,6.8506,6.8545,6.8622,6.8661,6.87,6.8777,6.8584,6.781,6.5528,6.3362,6.1195,5.8952,5.7018,5.5758,5.5799,5.5807,5.5823,5.5901,5.5916,5.5426,5.3909,5.3715,5.3695,5.3695,5.3695,5.3695,5.3695,5.3695,5.3695,5.3695,5.3695,5.3695,5.3695,5.3695,5.3695,5.3695,5.3695,5.3695,5.3695,5.3695,5.3695,5.3695,5.3695,5.3695,5.3695,5.3695,5.3617,5.0656,0.0,0.0,0.0,5.3497,5.3905,5.3571,5.3757,5.4017,5.4017,5.4277,5.476,5.5614,5.5763,5.6023,0.0,5.7398,5.7992,5.8772,5.8921,5.9032,5.9367,5.9404,5.9218,5.8772,5.9144,5.9404,5.9404,5.9887,6.0385,6.0913,6.101,6.16,6.2818,6.3369,6.3937,6.4562,6.5188,6.552,6.5534,6.5731,6.5806,6.5806,6.5601,6.5803,6.6354,6.755,6.8342,6.8893,6.986,6.9976,6.9551,7.0054,7.0247,7.0092,6.8738,6.8274,6.8119,6.7268,6.7539,6.8158,6.7655,6.8081,6.8816,6.8816,6.8816,6.8893,6.9357,6.9512,6.9628,7.0131,7.0247,6.9628,6.7075,6.4754,6.2472,5.9919,5.7598,5.6012,5.6037,5.6037,5.6046,5.6062,5.6125,5.5916,5.5195,5.5137,5.5184,5.5204,5.5204,5.5204,5.5204,5.5204,5.5204,5.5204,5.5204,5.5204,5.5204,5.5204,5.5204,5.5204,5.5204,5.5204,5.5204,5.5204,5.5204,5.5204,5.5204,5.5204,5.5204,5.5204,5.5204,5.1454,0.0,0.0,5.4686,5.5354,5.5689,5.5689,5.5689,5.5763,5.5966,5.5837,5.5949,5.6803,5.6952,0.0,5.8029,5.8846,5.9589,6.0184,6.0051,6.0041,6.0352,6.0187,5.9987,5.9734,6.0343,6.0696,6.0556,6.1361,6.1951,6.2184,6.2221,6.2798,6.4063,6.4229,6.4657,6.5359,6.5679,6.5933,6.6177,6.6449,6.6688,6.691,6.6669,6.6779,6.7215,6.8315,6.8932,6.9203,7.0208,7.0518,7.0402,7.0789,7.1098,7.1137,6.9938,6.9473,6.9396,6.8777,6.897,6.9396,6.8738,6.897,6.9473,6.9473,6.9473,6.9628,7.017,7.0363,7.0479,7.1137,7.1291,7.0479,6.723,6.5025,6.2791,5.9532,5.7327,5.6012,5.6012,5.6012,5.6012,5.6012,5.6037,5.6062,5.6117,5.6126,5.6185,5.6272,5.6285,5.6291,5.6291,5.6291,5.6291,5.6291,5.6291,5.6291,5.6291,5.6291,5.6291,5.6291,5.6291,5.6291,5.6291,5.6291,5.6291,5.6291,5.6291,5.6291,5.6291,5.6291,5.6291,0.0,0.0,5.6952,5.5391,5.6209,5.7435,5.7435,5.7435,5.7658,5.8438,5.7992,5.7695,5.8475,5.8624,5.8884,5.9701,6.0555,6.115,6.115,6.0444,6.0352,6.1504,6.0961,6.0941,0.0,6.2597,6.273,6.2273,6.301,6.3503,6.3465,6.3571,6.4002,6.4837,6.5329,6.5569,6.5569,6.5905,6.6516,6.7366,6.743,6.7887,6.8738,6.8728,6.8264,6.7529,6.8418,6.9241,6.9899,6.9164,6.9821,7.1175,7.0363,7.0556,7.1291,7.1253,7.1214,7.1214,7.1175,7.1214,7.1214,7.1175,7.1214,7.1214,7.1214,7.1214,7.1214,7.1253,7.1253,7.1253,7.1291,7.1291,7.0015,6.4996,6.3758,6.2327,5.7211,5.6051,5.6012,5.6012,5.6012,5.6012,5.6012,5.6012,5.6029,5.6109,5.6117,5.611,5.6192,5.6272,5.6291,5.6291,5.6291,5.6291,5.6291,5.6291,5.6291,5.6291,5.6291,5.6291,5.6291,5.6291,5.6291,5.6291,5.6291,5.6291,5.6291,5.6291,5.6291,5.6291,5.6291,5.6291,0.0,0.0,5.684,5.7323,5.7881,5.8326,5.8326,5.8326,5.8512,5.9329,5.8438,5.7769,5.8549,5.8698,5.8809,5.9069,6.0741,6.2076,6.2317,6.2096,6.2142,6.282,6.2647,0.0,0.0,0.0,0.0,6.3103,6.4393,6.5048,6.4708,6.529,6.562,6.5635,6.5769,6.5884,6.5883,6.599,6.6212,6.6565,6.7198,6.7655,6.7965,6.8545,6.8661,6.8429,6.9241,6.9435,6.928,7.0092,7.044,7.0479,7.075,7.1021,7.1291,7.1291,7.1291,7.1214,7.0634,7.0827,7.1137,7.0015,7.0402,7.1175,7.0595,7.0827,7.1291,7.1291,7.1291,7.1291,7.1291,7.1291,7.044,6.7036,6.4909,6.2752,5.9339,5.7211,5.6012,5.6012,5.6012,5.6012,5.6012,5.6012,5.6205,5.6803,5.6466,5.6172,5.6194,5.6209,5.6216,5.6216,5.6245,5.6219,5.6219,5.6278,5.6291,5.6291,5.6291,5.6291,5.6291,5.6291,5.6291,5.6291,5.6291,5.6291,5.6291,5.6291,5.6291,5.6291,5.6291,5.6291,0.0,5.7175,5.8215,5.8958,5.9367,5.9664,5.9961,6.0258,6.0593,6.1113,5.9961,5.8884,5.9107,5.8661,5.8475,5.9032,6.0964,6.2603,6.3248,6.3345,6.3559,6.4094,6.3894,0.0,0.0,0.0,0.0,6.4771,6.6357,6.6911,6.5997,6.6471,6.6546,6.5998,6.5972,6.5946,6.5943,6.599,6.6201,6.6597,6.7828,6.8236,6.8003,6.9164,6.9357,6.8854,6.9667,6.9705,6.928,7.0092,7.044,7.0479,7.075,7.1021,7.1291,7.1291,7.1291,7.1175,7.0286,7.0363,7.0595,6.9241,6.9705,7.0711,7.017,7.0595,7.1291,7.1291,7.1291,7.1291,7.1291,7.1291,7.0672,6.8119,6.5566,6.2984,6.046,5.7869,5.6089,5.639,5.6467,5.6553,5.6863,5.694,5.7134,5.7675,5.7379,5.7071,5.7048,5.7102,5.7102,5.7102,5.7109,5.713,5.713,5.7165,5.7185,5.7185,5.6913,5.6758,5.6758,5.6486,5.6291,5.6291,5.6291,5.6291,5.6291,5.6291,5.6291,5.6291,5.6291,5.6486,5.6655,5.8809,6.1038,6.0295,6.0741,6.1596,6.2339,6.3119,6.3653,6.3602,6.2264,6.0853,0.0,0.0,5.8103,5.9722,6.1394,6.2907,6.4096,6.4269,6.4539,0.0,0.0,0.0,0.0,0.0,0.0,6.709,0.0,6.8821,6.7128,6.709,6.6744,6.5936,6.5897,6.5897,6.5897,6.5982,6.6483,6.7451,6.9125,6.9551,6.8854,7.0556,7.044,6.897,6.9744,7.0054,7.0015,6.9241,6.986,7.1214,7.0402,7.0556,7.1291,7.1291,7.1253,7.1098,7.0247,6.9976,6.986,6.897,6.928,6.9976,6.9899,7.0518,7.1291,7.1253,7.1253,7.1291,7.1291,7.1291,7.0672,6.8274,6.5644,6.3062,6.0615,5.7985,5.6313,5.7125,5.7318,5.7637,5.8449,5.8651,5.869,5.869,5.869,5.8699,5.8626,5.8659,5.8684,5.8684,5.8762,5.8792,5.8792,5.8789,5.881,5.881,5.8078,5.7651,5.7651,5.6874,5.6447,5.6447,5.6447,5.6447,5.6447,5.6447,5.6447,5.6447,5.6447,5.6874,5.8549,6.0072,6.1447,6.2413,6.3245,6.3936,6.4136,6.4322,6.4322,6.3713,6.1336,5.9664,0.0,0.0,0.0,6.0935,6.266,0.0,6.4909,6.503,0.0,0.0,0.0,6.6717,6.7654,6.7782,0.0,0.0,6.7859,6.7321,6.6244,6.6782,6.6744,6.5936,6.5897,6.5897,6.5897,6.5984,6.6133,6.6405,6.8199,6.8938,6.8854,7.0556,7.1059,7.0672,7.0866,7.0982,7.0943,7.075,7.0905,7.1291,7.1059,7.1098,7.1291,7.1291,7.0905,7.0208,6.9396,6.9512,6.9628,6.7539,6.8274,6.9783,6.8506,6.9628,7.1175,7.0518,7.0789,7.1291,7.1291,7.1291,7.1137,7.0479,6.692,6.3526,6.2868,5.9687,5.7009,5.7241,5.783,5.8333,5.8574,5.9145,5.9571,5.9571,6.0074,6.0005,5.8776,5.8592,5.8639,5.8639,5.8643,5.8629,5.8629,5.87,5.8723,5.8723,5.8566,5.8503,5.8503,5.8298,5.8156,5.8156,5.8156,5.8156,5.8156,5.8156,5.8156,5.8156,5.8156,5.8273,5.9924,6.1113,6.2116,6.3713,6.473,6.5088,6.401,6.4025,6.3728,6.1856,5.9701,0.0,0.0,0.0,0.0,0.0,0.0,0.0,6.5184,6.5948,6.6566,0.0,6.7436,0.0,6.8359,6.8385,6.8244,0.0,6.7744,6.7321,6.6474,6.6859,6.6744,6.5936,6.5897,6.591,6.5947,6.5984,6.6005,6.6047,6.7481,6.8144,6.8274,6.9589,7.0402,7.0711,0.0,7.0711,7.075,7.1137,7.1059,7.075,7.1137,7.1291,7.1291,7.1291,7.075,6.986,6.9087,6.8854,6.8584,6.6804,6.7423,6.8738,6.781,6.8777,7.017,7.0054,7.0363,7.0827,7.1214,7.1021,7.0827,7.1214,6.7114,6.3555,6.5025,6.1118,5.7512,5.8294,5.9106,5.9687,5.9687,6.0112,6.0422,6.0422,6.0809,6.077,5.9803,5.9687,5.9687,5.9687,5.9732,5.9758,5.9758,5.9791,5.9855,5.9855,5.9553,5.9381,5.9381,5.899,5.8817,5.8817,5.8817,5.8817,5.8817,5.8817,5.8817,5.8817,5.8817,5.9011,6.0964,6.2116,6.3267,6.4753,6.5719,6.5608,6.3119,6.3044,6.2562,5.9367,0.0,0.0,5.8846,0.0,5.8198,6.1563,0.0,6.4122,6.5199,6.6736,6.7591,6.7295,6.8052,6.8629,6.8744,6.8629,6.8244,6.7513,6.8052,6.7975,6.6974,6.6936,6.6628,6.5897,6.5897,6.5935,6.5984,6.5984,6.6005,6.6119,6.6968,6.7437,6.7529,6.838,6.9164,6.9821,6.9821,0.0,7.0054,7.0827,7.075,7.0247,7.0982,7.1291,7.1291,7.1291,7.075,6.9899,6.9203,6.8313,6.7346,6.6495,6.6804,6.7501,6.7346,6.8003,6.897,6.9628,6.9899,7.017,7.0943,7.0556,7.017,7.0943,6.692,6.3748,6.6843,6.2472,5.8401,5.9803,6.0615,6.1118,6.1118,6.1118,6.1118,6.1118,6.1118,6.1118,6.1118,6.1118,6.1118,6.1118,6.1155,6.1173,6.1173,6.1255,6.1281,6.1281,6.0616,6.0251,6.0251,5.952,5.912,5.912,5.912,5.9166,5.9166,5.9166,5.9166,5.9166,5.9166,5.9555,6.193,6.3788,6.5682,6.6648,6.6982,6.6462,6.3973,6.3007,0.0,0.0,0.0,5.7398,6.0258,5.9716,0.0,6.359,0.0,0.0,0.0,0.0,6.746,0.0,0.0,0.0,0.0,0.0,0.0,0.0,0.0,6.7744,6.6205,6.609,6.6051,6.5897,6.5897,6.591,6.5923,6.5923,6.596,6.6032,6.69,6.7332,6.7465,6.8369,6.8893,6.9009,6.9009,0.0,7.0015,7.017,7.0556,7.1098,7.1253,7.1291,7.1291,7.1291,7.075,6.9976,6.9821,6.8777,6.7346,6.6495,6.6804,6.7384,6.665,6.7539,6.8816,6.897,6.9473,7.0015,7.017,7.0092,7.0054,7.017,6.781,6.5915,6.723,6.4367,6.1389,6.0963,6.1002,6.1118,6.1118,6.1118,6.1118,6.1118,6.1118,6.1118,6.1118,6.1118,6.1118,6.1118,6.1127,6.1127,6.1127,6.1137,6.1146,6.1146,6.1066,6.1014,6.1014,6.0903,6.0864,6.0864,6.0932,6.0946,6.0946,6.0946,6.0946,6.0946,6.0946,6.1024,6.271,6.4493,6.6327,6.759,6.7614,6.6425,6.3119,0.0,0.0,0.0,0.0,5.5763,5.8215,0.0,0.0,0.0,0.0,0.0,0.0,0.0,0.0,0.0,0.0,0.0,0.0,0.0,0.0,0.0,0.0,6.8321,6.6628,6.6513,6.632,6.5897,6.632,6.632,6.5897,6.5935,6.5972,6.6008,6.6449,6.6698,6.6758,6.7237,6.7694,6.8119,6.8119,0.0,6.8777,6.9628,6.9744,6.9396,7.0286,7.0634,7.0634,7.0634,7.0363,6.9938,6.9512,6.8545,6.7346,6.6495,6.6495,6.6766,6.634,6.6766,6.7539,6.8003,6.839,6.8816,6.9241,6.9048,6.8932,6.9783,6.9396,6.8119,6.545,6.4599,6.3748,6.1543,6.1118,6.1118,6.1118,6.1118,6.1118,6.1118,6.1118,6.1118,6.1118,6.1118,6.1118,6.1118,6.1118,6.1118,6.1118,6.1118,6.1118,6.1118,6.1164,6.1182,6.1182,6.125,6.1291,6.1291,6.1329,6.1344,6.1344,6.1366,6.1412,6.1412,6.1412,6.1412,6.3119,6.4791,6.6327,6.7688,6.7391,6.5756,6.1819,6.0258,0.0,0.0,0.0,5.4314,5.5986,0.0,0.0,0.0,0.0,0.0,0.0,0.0,0.0,0.0,0.0,0.0,0.0,0.0,0.0,0.0,0.0,0.0,6.7436,6.7359,6.7013,6.6167,6.6782,6.6705,6.5897,6.596,6.5984,6.6008,6.6036,6.6091,6.6102,6.6165,6.6572,6.723,6.7423,0.0,0.0,6.9396,6.9203,6.8158,6.9473,6.9899,6.9744,6.9744,6.9744,6.9667,6.9009,6.8236,6.7384,6.6688,6.634,6.6185,6.6185,6.6185,6.6379,6.7268,6.7501,6.7655,6.8352,6.8003,6.7887,6.9396,7.0518,6.9821,6.4367,6.4793,6.518,6.1776,6.1118,6.1118,6.1118,6.1118,6.1118,6.1118,6.1118,6.1118,6.1118,6.1118,6.1118,6.1118,6.1118,6.1118,6.1118,6.1118,6.1118,6.1118,6.1155,6.1173,6.1173,6.1255,6.1281,6.1281,6.1299,6.1283,6.1283,6.1359,6.1412,6.1412,6.1412,6.1412,6.297,6.4828,6.6128,6.6277,6.5682,6.4136,6.0794,0.0,0.0,0.0,5.3794,5.4314,5.5986,5.6556,0.0,0.0,0.0,0.0,0.0,0.0,0.0,0.0,0.0,0.0,0.0,0.0,0.0,0.0,0.0,0.0,6.8282,6.8282,6.7898,6.7013,6.7051,6.6705,6.5897,6.591,6.5947,6.6008,6.6029,6.6047,6.6102,6.6165,6.6224,6.6379,6.7152,0.0,0.0,6.9628,6.9899,6.9783,6.9938,6.9551,6.8932,6.8932,6.8932,6.8893,6.8816,6.8236,6.7501,6.7423,6.6843,6.6185,6.6185,6.6185,6.6379,6.7268,6.7501,6.7539,6.7617,6.7578,6.7733,6.87,7.0131,7.0286,6.665,6.6031,6.518,6.1776,6.1118,6.1118,6.1118,6.1118,6.1118,6.1118,6.1118,6.1118,6.1118,6.1118,6.1118,6.1118,6.1118,6.1118,6.1118,6.1118,6.1118,6.1118,6.1118,6.1127,6.1127,6.1164,6.1191,6.1191,6.1275,6.1283,6.1283,6.1359,6.1412,6.1412,6.1412,6.1412,6.2933,6.4828,6.6091,6.6091,6.5459,6.3913,6.0667,0.0,0.0,5.45,5.3794,5.4017,5.4686,5.4913,5.5339,0.0,0.0,0.0,0.0,0.0,0.0,0.0,0.0,0.0,0.0,0.0,0.0,0.0,0.0,0.0,6.9898,6.9436,6.8552,6.7128,6.7628,6.7244,6.5897,6.5947,6.596,6.5947,6.5967,6.6013,6.6047,6.6102,6.6155,6.6263,6.7114,0.0,0.0,6.8932,6.897,6.8506,6.8506,6.8313,6.8003,6.8003,6.8352,6.8738,6.8197,6.781,6.7423,6.6882,6.6495,6.6185,6.6185,6.6185,6.6263,6.6611,6.6727,6.6727,6.6727,6.7501,6.839,6.8738,7.0092,7.0363,6.692,6.6185,6.518,6.1776,6.1118,6.1118,6.1118,6.1118,6.1118,6.1118,6.1118,6.1118,6.1118,6.1118,6.1118,6.1118,6.1118,6.1118,6.1118,6.1118,6.1118,6.1118,6.1118,6.1118,6.1118,6.1137,6.1146,6.1146,6.1208,6.1259,6.1283,6.1322,6.1352,6.1412,6.1412,6.1412,6.2822,6.4456,6.5385,6.5385,6.4531,6.2985,0.0,0.0,0.0,5.4388,5.3794,5.3794,5.3794,5.3889,5.4107,0.0,0.0,0.0,0.0,0.0,0.0,0.0,0.0,0.0,0.0,0.0,0.0,0.0,0.0,0.0,7.0898,7.036,6.9398,6.7936,6.8205,6.7705,6.6282,6.6063,6.5972,6.5921,6.5993,6.6013,6.6058,6.6091,6.6134,6.6263,6.7114,0.0,0.0,6.8545,6.8429,6.7849,6.7617,6.7346,6.7114,6.7114,6.7501,6.7926,6.7346,6.7114,6.6998,6.6417,6.6185,6.6185,6.6185,6.6185,6.6185,6.6185,6.6185,6.6263,6.6533,6.7694,6.8854,6.9087,7.0247,7.0363,6.692,6.6185,6.518,6.1776,6.1118,6.1118,6.1118,6.1118,6.1118,6.1118,6.1118,6.1118,6.1118,6.1118,6.1118,6.1118,6.1118,6.1118,6.1118,6.1118,6.1118,6.1118,6.1118,6.1118,6.1118,6.1118,6.1118,6.1118,6.1164,6.1199,6.1281,6.1291,6.1337,6.1359,6.1373,6.1412,6.2487,6.3602,6.3639,6.3639,6.2413,6.0778,0.0,0.0,5.5837,5.4166,5.3794,5.3794,5.3794,5.4072,5.4279,5.4296,0.0,0.0,0.0,0.0,0.0,0.0,0.0,0.0,0.0,0.0,0.0,0.0,0.0,0.0,7.086,7.0898,7.0514,6.9706,6.8859,6.7975,6.709,6.6282,6.5921,6.6001,6.5993,6.6063,6.6185,6.6123,6.6134,0.0,0.0,0.0,0.0,6.8816,6.8777,6.87,6.7849,6.6959,6.6224,6.6224,6.6224,6.6224,6.6224,6.6224,6.6224,6.6185,6.6185,6.6185,6.6185,6.6185,6.6185,6.6185,6.6185,6.6417,6.7268,6.8158,6.9009,6.9783,7.0672,7.0363,6.692,6.6185,6.518,6.1776,6.1118,6.1118,6.1118,6.1118,6.1118,6.1118,6.1118,6.1118,6.1118,6.1118,6.1118,6.1118,6.1118,6.1118,6.1118,6.1118,6.1118,6.1118,6.1118,6.1118,6.1118,6.1118,6.1118,6.1118,6.1164,6.1182,6.1182,6.1275,6.1283,6.1283,6.1359,6.1412,5.9441,6.0258,6.0258,6.0258,5.9887,5.9069,5.7435,0.0,5.5837,5.4166,5.3794,5.387,5.4107,5.4248,5.4839,5.6443,5.7333,0.0,0.0,0.0,0.0,0.0,0.0,0.0,0.0,0.0,0.0,0.0,0.0,0.0,7.0898,7.0898,7.0514,6.9744,6.9436,6.859,6.709,6.6859,6.6461,6.5921,6.5984,6.6017,6.6069,6.6091,6.6134,0.0,0.0,0.0,0.0,6.7926,6.7926,6.781,6.6959,6.6456,6.6185,6.6185,6.6185,6.6185,6.6185,6.6185,6.6185,6.6185,6.6185,6.6185,6.6185,6.6185,6.6185,6.6185,6.6185,6.6417,6.7268,6.8158,6.9009,6.9821,7.0672,7.0363,6.692,6.6185,6.518,6.1776,6.1118,6.1118,6.1118,6.1118,6.1118,6.1118,6.1118,6.1118,6.1118,6.1118,6.1118,6.1118,6.1118,6.1118,6.1118,6.1118,6.1118,6.1118,6.1118,6.1118,6.1118,6.1118,6.1118,6.1118,6.1127,6.1155,6.1182,6.1217,6.1259,6.1283,6.1359,6.1412,0.0,5.8698,5.8698,5.8698,5.8252,0.0,0.0,0.0,0.0,5.4017,5.3794,5.3907,5.4228,5.4397,5.5025,5.6611,5.803,0.0,0.0,0.0,0.0,0.0,0.0,0.0,0.0,0.0,0.0,0.0,0.0,0.0,7.0898,7.0898,7.0667,7.0167,6.986,6.9027,6.7629,6.7282,6.673,6.597,6.5982,6.604,6.608,6.6091,6.6134,0.0,0.0,0.0,0.0,6.7152,6.7191,6.7423,6.6533,6.6185,6.6185,6.6185,6.6185,6.6185,6.6185,6.6185,6.6185,6.6185,6.6185,6.6185,6.6185,6.6185,6.6185,6.6185,6.6185,6.6417,6.7268,6.8158,6.9009,6.9821,7.0672,7.0363,6.692,6.6185,6.518,6.1776,6.1118,6.1118,6.1118,6.1118,6.1118,6.1118,6.1118,6.1118,6.1118,6.1118,6.1118,6.1118,6.1118,6.1118,6.1118,6.1118,6.1118,6.1118,6.1118,6.1118,6.1118,6.1118,6.1118,6.1118,6.1118,6.1127,6.1164,6.1199,6.125,6.1283,6.1359,6.1412,0.0,0.0,0.0,0.0,0.0,0.0,0.0,0.0,0.0,0.0,0.0,0.0,5.4296,5.4623,5.4976,5.5441,5.8486,0.0,0.0,0.0,0.0,0.0,0.0,0.0,0.0,0.0,0.0,0.0,0.0,0.0,7.086,7.0898,7.0898,7.0898,7.0167,6.9386,6.8488,6.7679,6.6892,6.6091,6.6036,6.6069,6.6175,6.6123,6.6134,0.0,0.0,0.0,0.0,6.6533,6.6688,6.7346,6.6533,6.6185,6.6185,6.6185,6.6185,6.6185,6.6185,6.6185,6.6185,6.6185,6.6185,6.6185,6.6185,6.6185,6.6185,6.6185,6.6185,6.6417,6.7268,6.8158,6.9009,6.9821,7.0672,7.0402,6.7114,6.6379,6.5373,6.1969,6.1273,6.1234,6.1118,6.1118,6.1118,6.1118,6.1118,6.1118,6.1118,6.1118,6.1118,6.1118,6.1118,6.1118,6.1118,6.1118,6.1118,6.1118,6.1118,6.1118,6.1118,6.1118,6.1118,6.1118,6.1118,6.1118,6.1118,6.1217,6.1314,6.1314,6.1352,6.1412,0.0,0.0,0.0,0.0,0.0,0.0,0.0,0.0,0.0,0.0,0.0,0.0,0.0,0.0,5.5708,5.7309,5.94,0.0,0.0,0.0,0.0,0.0,0.0,0.0,0.0,0.0,0.0,0.0,0.0,7.0706,7.0898,7.0898,7.0898,7.0898,7.0706,6.9898,6.8449,6.8219,6.7423,6.6005,6.599,6.6047,6.6123,6.6155,6.6175,0.0,0.0,0.0,6.6495,6.6263,6.6301,6.6495,6.6263,6.6185,6.6185,6.6185,6.6185,6.6185,6.6185,6.6185,6.6185,6.6185,6.6185,6.6185,6.6185,6.6185,6.6185,6.6185,6.6185,6.6417,6.7268,6.8158,6.9009,6.9821,7.0672,7.0711,6.8661,6.8197,6.7191,6.3748,6.31,6.2665,6.135,6.1118,6.1118,6.1118,6.1118,6.1118,6.1118,6.1118,6.1118,6.1118,6.1118,6.1118,6.1118,6.1118,6.1118,6.1118,6.1118,6.1118,6.1118,6.1118,6.1118,6.1118,6.1118,6.1118,6.1118,6.1173,6.1264,6.1314,6.1314,6.1352,5.372,5.3794,5.3794,5.3794,0.0,0.0,0.0,0.0,0.0,0.0,0.0,0.0,0.0,0.0,0.0,0.0,0.0,0.0,0.0,0.0,0.0,0.0,0.0,0.0,0.0,0.0,0.0,0.0,0.0,7.0514,7.0898,7.0898,7.0898,7.0898,7.0898,7.031,6.9104,6.8642,6.7846,6.6664,6.624,6.608,6.6144,6.6175,6.6185,0.0,0.0,0.0,6.6185,6.6185,6.6185,6.6185,6.6185,6.6185,6.6185,6.6185,6.6185,6.6185,6.6185,6.6185,6.6185,6.6185,6.6185,6.6185,6.6185,6.6185,6.6185,6.6185,6.6185,6.6301,6.6766,6.7849,6.8932,6.9357,7.0402,7.0827,6.9164,6.8816,6.781,6.4377,6.3719,6.3139,6.1389,6.1118,6.1118,6.1118,6.1118,6.1118,6.1118,6.1118,6.1118,6.1118,6.1118,6.1118,6.1118,6.1118,6.1118,6.1118,6.1118,6.1118,6.1118,6.1118,6.1118,6.1118,6.1118,6.1118,6.1118,6.1164,6.1238,6.1264,6.1291,6.1329,5.3423,5.372,5.3794,5.3794,5.3794,0.0,0.0,0.0,0.0,0.0,0.0,0.0,0.0,0.0,0.0,0.0,0.0,0.0,0.0,0.0,0.0,0.0,0.0,0.0,0.0,0.0,0.0,0.0,0.0,7.0167,7.0873,7.0898,7.0898,7.0912,7.0912,7.0593,6.991,6.8949,6.8085,6.7297,6.6471,6.6134,6.6185,6.6185,6.6185,6.6185,0.0,0.0,6.6134,6.6175,6.6165,6.6134,6.6175,6.6185,6.6185,6.6185,6.6185,6.6185,6.6185,6.6185,6.6185,6.6185,6.6185,6.6185,6.6185,6.6185,6.6185,6.6185,6.6185,6.6185,6.6185,6.7384,6.8661,6.8777,6.9976,7.075,6.9473,6.9164,6.8158,6.4764,6.4068,6.3439,6.1427,6.1118,6.1118,6.1118,6.1118,6.1118,6.1118,6.1118,6.1118,6.1118,6.1118,6.1118,6.1118,6.1118,6.1118,6.1118,6.1118,6.1118,6.1118,6.1118,6.1118,6.1118,6.1118,6.1118,6.1118,6.1155,6.1182,6.1191,6.1275,6.1314,5.2754,5.3274,5.3794,5.3794,5.3794,0.0,0.0,0.0,0.0,0.0,0.0,0.0,0.0,0.0,0.0,0.0,0.0,0.0,0.0,0.0,0.0,0.0,0.0,0.0,0.0,0.0,0.0,0.0,0.0,7.081,7.0979,7.0925,7.0925,7.0979,7.0992,7.0645,6.991,6.8949,6.7752,6.6306,6.6179,6.6134,6.6185,6.6185,6.6185,6.6185,0.0,6.6041,6.5779,6.6074,6.603,6.5792,6.6074,6.6185,6.6185,6.6185,6.6185,6.6185,6.6185,6.6185,6.6185,6.6185,6.6185,6.6185,6.6185,6.6185,6.6185,6.6185,6.6185,6.6185,6.6185,6.6959,6.7887,6.8622,6.9512,7.0324,7.0789,7.0905,6.9899,6.6495,6.5837,6.4793,6.166,6.1118,6.1118,6.1118,6.1118,6.1118,6.1118,6.1118,6.1118,6.1118,6.1118,6.1118,6.1118,6.1118,6.1118,6.1118,6.1118,6.1118,6.1118,6.1118,6.1118,6.1118,6.1118,6.1118,6.1118,6.1127,6.1146,6.1191,6.1281,6.1291,5.1825,5.2531,5.3404,5.4316,0.0,0.0,0.0,0.0,0.0,0.0,0.0,0.0,0.0,0.0,0.0,0.0,0.0,0.0,0.0,0.0,0.0,0.0,0.0,0.0,0.0,0.0,0.0,0.0,0.0,0.0,7.1005,7.0965,7.0965,7.1005,7.103,7.0464,6.9262,6.8803,6.8027,6.684,6.6344,6.6134,6.6185,6.6185,6.6084,6.5924,0.0,6.5769,6.5479,6.5653,6.5626,6.5507,6.5818,6.5924,6.5936,6.6144,6.6185,6.6185,6.6185,6.6185,6.6185,6.6185,6.6185,6.6185,6.6185,6.6185,6.6185,6.6185,6.6185,6.6185,6.6185,6.6843,6.7733,6.8584,6.9396,7.0247,7.1098,7.1291,7.0286,6.6843,6.6185,6.5102,6.1698,6.1118,6.1118,6.1118,6.1118,6.1118,6.1118,6.1118,6.1118,6.1118,6.1118,6.1118,6.1118,6.1118,6.1118,6.1118,6.1118,6.1118,6.1118,6.1118,6.1118,6.1118,6.1118,6.1118,6.1118,6.1118,6.1127,6.1146,6.1199,6.1281,5.0896,5.1676,5.2791,0.0,0.0,0.0,0.0,0.0,0.0,0.0,0.0,0.0,0.0,0.0,0.0,0.0,0.0,0.0,0.0,0.0,0.0,0.0,0.0,0.0,0.0,0.0,0.0,0.0,0.0,0.0,7.1043,7.103,7.103,7.1056,7.1106,7.0409,6.8999,6.901,6.8502,6.7501,6.6569,6.6228,6.6372,6.619,6.5901,6.5601,6.5601,6.5437,6.5191,6.5268,6.5253,6.5207,6.5493,6.5601,6.5641,6.5986,6.6063,6.6074,6.6165,6.6155,6.6063,6.6063,6.603,6.5986,6.5986,6.6019,6.6063,6.6063,6.6144,6.6185,6.6185,6.6688,6.7423,6.8274,6.9125,6.9938,7.0789,7.1175,7.0402,6.7384,6.6495,6.5257,6.224,6.1389,6.1118,6.1118,6.1118,6.1118,6.1118,6.1118,6.1118,6.1118,6.1118,6.1118,6.1118,6.1118,6.1118,6.1118,6.1118,6.1118,6.1118,6.1118,6.1118,6.1118,6.1118,6.1118,6.1118,6.1118,6.1118,6.1118,6.1164,6.1247,5.019,5.0822,5.2085,0.0,0.0,0.0,0.0,0.0,0.0,0.0,0.0,0.0,0.0,0.0,0.0,0.0,0.0,0.0,0.0,0.0,0.0,0.0,0.0,0.0,0.0,0.0,0.0,0.0,0.0,0.0,7.119,7.113,7.113,7.119,7.1201,7.0738,6.9799,6.9866,6.9087,6.7501,6.6611,6.6455,6.6923,6.6115,6.5575,6.5329,6.5329,6.5144,6.4865,6.5159,6.5112,6.4882,6.5207,6.5329,6.5374,6.5628,6.573,6.5767,6.6074,6.6008,6.573,6.573,6.5561,6.5359,6.5359,6.552,6.573,6.573,6.5947,6.6185,6.6185,6.6263,6.6495,6.7384,6.8274,6.9125,6.9899,7.0711,7.075,6.897,6.7307,6.5644,6.3835,6.2162,6.1118,6.1118,6.1118,6.1118,6.1118,6.1118,6.1118,6.1118,6.1118,6.1118,6.1118,6.1118,6.1118,6.1118,6.1118,6.1118,6.1118,6.1118,6.1118,6.1118,6.1118,6.1118,6.1118,6.1118,6.1118,6.1118,6.1164,6.1191,4.9336,5.0003,5.1633,0.0,0.0,0.0,0.0,0.0,0.0,0.0,0.0,0.0,0.0,0.0,0.0,0.0,0.0,0.0,0.0,0.0,0.0,0.0,0.0,0.0,0.0,0.0,0.0,0.0,0.0,0.0,7.1201,7.0676,7.0599,7.1163,7.0706,7.0292,6.9982,7.0004,6.9331,6.7984,6.7123,6.6449,6.5935,6.559,6.5261,6.4981,6.4981,6.4813,6.4501,6.4614,6.4595,6.4521,6.4865,6.5112,6.5314,6.5432,6.5437,6.5489,6.56,6.5572,6.5437,6.5437,6.5388,6.5299,6.5299,6.5479,6.5705,6.5705,6.5924,6.6185,6.6185,6.6185,6.6417,6.7307,6.8158,6.9009,6.9821,7.0672,7.0789,6.9125,6.7384,6.5682,6.399,6.224,6.1118,6.1118,6.1118,6.1118,6.1118,6.1118,6.1118,6.1118,6.1118,6.1118,6.1118,6.1118,6.1118,6.1118,6.1118,6.1118,6.1118,6.1118,6.1118,6.1118,6.1118,6.1118,6.1118,6.1118,6.1118,6.1118,6.1137,6.1173,4.889,4.9423,5.0878,0.0,0.0,0.0,0.0,0.0,0.0,0.0,0.0,0.0,0.0,0.0,0.0,0.0,0.0,0.0,0.0,0.0,0.0,0.0,0.0,0.0,0.0,0.0,0.0,0.0,0.0,0.0,0.0,7.0683,7.0606,7.1197,7.07,7.0369,7.0251,7.0251,6.963,6.8363,6.7505,6.6544,6.5525,6.5258,6.4947,6.4632,6.4632,6.4521,6.4284,6.4284,6.4284,6.4324,6.4558,6.4795,6.4997,6.5095,6.5128,6.5144,6.5253,6.5222,6.5128,6.5128,6.5063,6.4981,6.4981,6.5184,6.5451,6.5548,6.5806,6.6052,6.6165,6.6185,6.634,6.6959,6.7771,6.8622,6.9435,7.0286,7.0634,6.9744,6.8197,6.6495,6.4793,6.3052,6.1737,6.1195,6.1118,6.1118,6.1118,6.1118,6.1118,6.1118,6.1118,6.1118,6.1118,6.1118,6.1118,6.1118,6.1118,6.1118,6.1118,6.1118,6.1118,6.1118,6.1118,6.1118,6.1118,6.1118,6.1118,6.1118,6.1118,6.1155,4.8945,4.9064,0.0,0.0,0.0,0.0,0.0,0.0,0.0,0.0,0.0,0.0,0.0,0.0,0.0,0.0,0.0,0.0,0.0,0.0,0.0,0.0,0.0,0.0,0.0,0.0,0.0,0.0,0.0,0.0,0.0,7.1291,7.1291,7.1291,7.1291,7.1139,7.0783,7.0821,7.0019,6.8508,6.7674,6.684,6.5985,6.5154,6.4595,6.4284,6.4284,6.4284,6.4284,6.4284,6.4284,6.4284,6.4284,6.4284,6.4344,6.4669,6.4795,6.4848,6.5175,6.5063,6.4795,6.4795,6.4577,6.4284,6.4284,6.4539,6.4882,6.5191,6.5479,6.5755,6.6123,6.6185,6.6185,6.6185,6.6882,6.7733,6.8622,6.9435,7.0247,7.1137,6.9938,6.8236,6.6495,6.4793,6.31,6.135,6.1118,6.1118,6.1118,6.1118,6.1118,6.1118,6.1118,6.1118,6.1118,6.1118,6.1118,6.1118,6.1118,6.1118,6.1118,6.1118,6.1118,6.1118,6.1118,6.1118,6.1118,6.1118,6.1118,6.1118,6.1118,6.1118,4.905,0.0,0.0,0.0,0.0,0.0,0.0,0.0,0.0,0.0,0.0,0.0,0.0,0.0,0.0,0.0,0.0,0.0,0.0,0.0,0.0,0.0,0.0,0.0,0.0,0.0,0.0,0.0,0.0,0.0,0.0,7.0711,7.0672,7.1291,7.0462,7.0285,7.0783,7.0569,6.978,6.8508,6.8242,6.726,6.5611,6.482,6.4403,6.4284,6.4284,6.4284,6.4284,6.4284,6.4284,6.4284,6.4284,6.4284,6.4304,6.4385,6.4444,6.4463,6.4577,6.4539,6.4444,6.4444,6.4403,6.4284,6.4284,6.4539,6.483,6.4934,6.5191,6.5465,6.5755,6.5854,6.5901,6.6144,6.6882,6.7733,6.8622,6.9435,7.0247,7.1137,6.9938,6.8236,6.6495,6.4793,6.31,6.135,6.1118,6.1118,6.1118,6.1118,6.1118,6.1118,6.1118,6.1118,6.1118,6.1118,6.1118,6.1118,6.1118,6.1118,6.1118,6.1118,6.1118,6.1118,6.1118,6.1118,6.1118,6.1118,6.1118,6.1118,6.1118,6.1137,5.0589,0.0,0.0,0.0,0.0,0.0,0.0,0.0,0.0,0.0,0.0,0.0,0.0,0.0,0.0,0.0,0.0,0.0,0.0,0.0,0.0,0.0,0.0,0.0,0.0,0.0,0.0,0.0,0.0,0.0,0.0,7.066,7.0563,7.1065,7.0256,7.0003,7.0416,7.0205,6.9679,6.8769,6.8449,6.7668,6.6462,6.5298,6.4585,6.4284,6.4284,6.4284,6.4284,6.4284,6.4284,6.4284,6.4284,6.4284,6.4284,6.4284,6.4284,6.4284,6.4284,6.4284,6.4284,6.4284,6.4284,6.4284,6.4284,6.4424,6.4614,6.4759,6.4968,6.5175,6.5451,6.5534,6.5641,6.6074,6.6611,6.7307,6.8545,6.9164,6.986,7.1059,7.0479,6.9241,6.7539,6.6417,6.4909,6.2511,6.1543,6.1118,6.1118,6.1118,6.1118,6.1118,6.1118,6.1118,6.1118,6.1118,6.1118,6.1118,6.1118,6.1118,6.1118,6.1118,6.1118,6.1118,6.1118,6.1118,6.1118,6.1118,6.1118,6.1118,6.1118,6.1127,0.0,0.0,0.0,0.0,0.0,0.0,0.0,0.0,0.0,0.0,0.0,0.0,0.0,0.0,0.0,0.0,0.0,0.0,0.0,0.0,0.0,0.0,0.0,0.0,0.0,0.0,0.0,0.0,0.0,0.0,0.0,7.0979,7.0783,7.0706,7.0425,7.0064,6.9702,6.9702,6.9562,6.9181,6.8452,6.8077,6.7926,6.6274,6.511,6.4397,6.4322,6.4342,6.4397,6.4322,6.4284,6.4284,6.4284,6.4284,6.4284,6.4284,6.4284,6.4284,6.4284,6.4284,6.4284,6.4284,6.4284,6.4284,6.4284,6.4284,6.4364,6.4651,6.4759,6.4848,6.5159,6.5253,6.5417,6.6008,6.6155,6.6629,6.8418,6.8816,6.9319,7.0982,7.1291,7.075,6.9087,6.8816,6.7655,6.4222,6.2201,6.1118,6.1118,6.1118,6.1118,6.1118,6.1118,6.1118,6.1118,6.1118,6.1118,6.1118,6.1118,6.1118,6.1118,6.1118,6.1118,6.1118,6.1118,6.1118,6.1118,6.1118,6.1118,6.1118,6.1118,6.1118,0.0,0.0,0.0,0.0,0.0,0.0,0.0,0.0,0.0,0.0,0.0,0.0,0.0,0.0,0.0,0.0,0.0,0.0,0.0,0.0,0.0,0.0,0.0,0.0,0.0,0.0,0.0,0.0,0.0,0.0,7.1291,7.0979,7.0514,6.9886,6.9878,6.953,6.8773,6.9141,6.9289,0.0,6.8994,6.8602,6.7926,6.6274,6.5411,6.5223,6.4547,6.466,6.5185,6.4547,6.4284,6.4284,6.4284,6.4284,6.4284,6.4284,6.4284,6.4284,6.4284,6.4284,6.4284,6.4284,6.4284,6.4284,6.4284,6.4284,6.4304,6.4403,6.4423,6.4482,6.483,6.4917,6.5063,6.5654,6.583,6.634,6.8386,6.8816,6.9319,7.0982,7.1291,7.075,6.9087,6.8816,6.7655,6.4222,6.2201,6.1118,6.1118,6.1118,6.1118,6.1118,6.1118,6.1118,6.1118,6.1118,6.1118,6.1118,6.1118,6.1118,6.1118,6.1118,6.1118,6.1118,6.1118,6.1118,6.1118,6.1118,6.1118,6.1118,6.1118,6.1118,0.0,0.0,0.0,0.0,0.0,0.0,0.0,0.0,0.0,0.0,0.0,0.0,0.0,0.0,0.0,0.0,0.0,0.0,0.0,0.0,0.0,0.0,0.0,0.0,0.0,0.0,0.0,0.0,0.0,7.1291,7.1291,7.081,7.0377,6.9932,6.9643,6.9275,6.8842,6.9085,6.9181,6.9181,6.9181,6.879,6.7926,6.6274,6.5749,6.6049,6.481,6.4772,6.5448,6.4622,6.4284,6.4284,6.4284,6.4284,6.4284,6.4284,6.4284,6.4284,6.4284,6.4284,6.4284,6.4284,6.4284,6.4284,6.4284,6.4284,6.4284,6.4284,6.4284,6.4344,6.4521,6.4577,6.4687,6.5153,6.5813,6.6781,6.8453,6.9087,6.9744,7.1059,7.1291,7.1021,7.0131,6.9319,6.7926,6.5296,6.3439,6.2046,6.1195,6.1118,6.1118,6.1118,6.1118,6.1118,6.1118,6.1118,6.1118,6.1118,6.1118,6.1118,6.1118,6.1118,6.1118,6.1118,6.1118,6.1118,6.1118,6.1118,6.1118,6.1118,6.1118,6.1118,0.0,0.0,0.0,0.0,0.0,0.0,0.0,0.0,0.0,0.0,0.0,0.0,0.0,0.0,0.0,0.0,0.0,0.0,0.0,0.0,0.0,0.0,0.0,0.0,0.0,0.0,0.0,0.0,0.0,7.128,7.1236,7.0643,7.0211,6.9993,6.9448,6.9085,6.8972,6.895,6.8913,6.8913,6.8972,6.8693,6.8152,6.665,6.6312,6.6934,6.5223,6.496,6.5636,6.4697,6.4284,6.4284,6.4284,6.4284,6.4284,6.4284,6.4284,6.4284,6.4284,6.4284,6.4284,6.4284,6.4284,6.4284,6.4284,6.4284,6.4284,6.4284,6.4284,6.4284,6.4284,6.4284,6.4403,6.4705,6.5947,6.7345,6.8463,6.9342,7.0203,7.1137,7.1291,7.1291,7.1291,6.9899,6.8197,6.6456,6.4754,6.3062,6.1311,6.1118,6.1118,6.1118,6.1118,6.1118,6.1118,6.1118,6.1118,6.1118,6.1118,6.1118,6.1118,6.1118,6.1118,6.1118,6.1118,6.1118,6.1118,6.1118,6.1118,6.1118,6.1118,6.1118,0.0,0.0,0.0,0.0,0.0,0.0,0.0,0.0,0.0,0.0,0.0,0.0,0.0,0.0,0.0,0.0,0.0,0.0,0.0,0.0,0.0,0.0,0.0,0.0,0.0,0.0,0.0,0.0,7.1291,7.1163,7.0888,7.0524,6.9828,6.8789,6.8922,6.869,6.8001,6.7853,6.7808,6.7808,6.7957,6.8344,6.8994,6.8077,6.7739,6.7739,6.6087,6.5824,6.652,6.4943,6.4284,6.4284,6.4284,6.4284,6.4284,6.4284,6.4284,6.4284,6.4284,6.4284,6.4284,6.4284,6.4284,6.4284,6.4284,6.4284,6.4284,6.4284,6.4284,6.4284,6.4284,6.4284,6.4403,6.4705,6.6076,6.7436,6.8204,6.9002,6.9913,7.1065,7.1291,7.1291,7.1291,6.9899,6.8197,6.6456,6.4754,6.3062,6.1311,6.1118,6.1118,6.1118,6.1118,6.1118,6.1118,6.1118,6.1118,6.1118,6.1118,6.1118,6.1118,6.1118,6.1118,6.1118,6.1118,6.1118,6.1118,6.1118,6.1118,6.1118,6.1118,6.1118,0.0,0.0,0.0,0.0,0.0,0.0,0.0,0.0,0.0,0.0,0.0,0.0,0.0,0.0,0.0,0.0,0.0,0.0,0.0,0.0,0.0,0.0,0.0,0.0,0.0,0.0,0.0,0.0,7.1041,7.0837,7.0633,7.0078,6.9531,6.9018,6.8978,6.8765,6.8429,6.786,6.7389,6.6941,6.7434,6.7935,6.8419,6.8532,6.8613,6.8565,6.6425,6.5974,6.6671,6.498,6.4284,6.4284,6.4284,6.4284,6.4284,6.4284,6.4284,6.4284,6.4284,6.4284,6.4284,6.4284,6.4284,6.4284,6.4284,6.4284,6.4284,6.4284,6.4284,6.4284,6.4284,6.4284,6.4457,6.5028,6.6142,6.726,6.821,6.9366,7.0439,7.117,7.1291,7.1291,7.1291,7.0672,6.928,6.6611,6.5566,6.4135,6.1466,6.1118,6.1118,6.1118,6.1118,6.1118,6.1118,6.1118,6.1118,6.1118,6.1118,6.1118,6.1118,6.1118,6.1118,6.1118,6.1118,6.1118,6.1118,6.1118,6.1118,6.1118,6.1118,6.1118,0.0,0.0,0.0,0.0,0.0,0.0,0.0,0.0,0.0,0.0,0.0,0.0,0.0,0.0,0.0,0.0,0.0,0.0,0.0,0.0,0.0,0.0,0.0,0.0,0.0,0.0,0.0,0.0,7.0731,7.0463,7.0244,6.9683,6.9365,6.9298,6.9005,6.8763,6.8576,6.7672,6.6926,6.6374,6.7195,6.7614,6.7785,6.8406,6.866,6.8447,6.6629,6.6049,6.6349,6.4905,6.4284,6.4284,6.4284,6.4284,6.4284,6.4284,6.4284,6.4284,6.4284,6.4284,6.4284,6.4284,6.4284,6.4284,6.4284,6.4284,6.4284,6.4284,6.4284,6.4284,6.4284,6.4284,6.451,6.5298,6.6162,6.7153,6.8355,6.9597,7.0516,7.0628,7.0672,7.0672,7.0672,7.0827,6.9976,6.6998,6.634,6.5102,6.2124,6.1389,6.1118,6.1118,6.1118,6.1118,6.1118,6.1118,6.1118,6.1118,6.1118,6.1118,6.1118,6.1118,6.1118,6.1118,6.1118,6.1118,6.1118,6.1118,6.1118,6.1118,6.1118,6.1118,0.0,0.0,0.0,0.0,0.0,0.0,0.0,0.0,0.0,0.0,0.0,0.0,0.0,0.0,0.0,0.0,0.0,0.0,0.0,0.0,0.0,0.0,0.0,0.0,0.0,0.0,0.0,0.0,7.0531,7.0211,6.9488,6.9408,6.9256,6.8929,6.8768,6.8325,6.758,6.6644,6.6198,6.6201,6.7095,6.7537,6.7614,6.7763,6.7454,6.6727,6.6721,6.6274,6.5486,6.466,6.4284,6.4284,6.4284,6.4284,6.4284,6.4284,6.4284,6.4284,6.4284,6.4284,6.4284,6.4284,6.4284,6.4284,6.4284,6.4284,6.4284,6.4284,6.4284,6.4284,6.4284,6.4284,6.451,6.5298,6.6162,6.7196,6.8655,6.9274,6.9438,6.8994,6.8932,6.8932,6.8932,6.9551,6.9473,6.7694,6.6727,6.5566,6.3797,6.2124,6.1118,6.1118,6.1118,6.1118,6.1118,6.1118,6.1118,6.1118,6.1118,6.1118,6.1118,6.1118,6.1118,6.1118,6.1118,6.1118,6.1118,6.1118,6.1118,6.1118,6.1118,6.1118,0.0,0.0,0.0,0.0,0.0,0.0,0.0,0.0,0.0,0.0,0.0,0.0,0.0,0.0,0.0,0.0,0.0,0.0,0.0,0.0,0.0,0.0,0.0,0.0,0.0,0.0,0.0,0.0,0.0,6.9549,6.924,6.8952,6.8777,6.865,6.8578,6.8182,6.7388,6.7043,6.6635,6.6161,6.6979,6.7137,6.6717,6.7322,6.6986,6.5865,6.6432,6.6212,6.5448,6.4622,6.4284,6.4284,6.4284,6.4284,6.4284,6.4284,6.4284,6.4284,6.4284,6.4284,6.4284,6.4284,6.4284,6.4284,6.4284,6.4284,6.4284,6.4284,6.4284,6.4284,6.4284,6.4284,6.4622,6.6011,6.7363,6.8374,6.8639,6.8924,6.9093,6.8856,6.8816,6.8816,6.8816,6.9048,6.8468,6.6224,6.5644,6.4599,6.2317,6.1505,6.1118,6.1118,6.1118,6.1118,6.1118,6.1118,6.1118,6.1118,6.1118,6.1118,6.1118,6.1118,6.1118,6.1118,6.1118,6.1118,6.1118,6.1118,6.1118,6.1118,6.1118,6.1118,0.0,0.0,0.0,0.0,0.0,0.0,0.0,0.0,0.0,0.0,0.0,0.0,0.0,0.0,0.0,0.0,0.0,0.0,0.0,0.0,0.0,0.0,0.0,0.0,0.0,0.0,0.0,0.0,0.0,0.0,6.8908,6.8636,6.8481,6.8481,6.7961,6.7577,6.7317,6.702,6.676,6.6537,6.7317,6.7155,6.617,6.6812,6.6254,6.4876,6.5443,6.5453,6.5073,6.481,6.4547,6.4284,6.4284,6.4284,6.4284,6.4284,6.4284,6.4284,6.4284,6.4284,6.4284,6.4284,6.4284,6.4284,6.4284,6.4284,6.4284,6.4284,6.4284,6.4284,6.4284,6.4697,6.5431,6.6558,6.8039,6.9085,6.8603,6.8531,6.8495,6.8215,6.8066,6.7926,6.7926,6.8158,6.7887,6.6495,6.5528,6.4483,6.3013,6.1814,6.1118,6.1118,6.1118,6.1118,6.1118,6.1118,6.1118,6.1118,6.1118,6.1118,6.1118,6.1118,6.1118,6.1118,6.1118,6.1118,6.1118,6.1118,6.1118,6.1118,6.1118,6.1118,0.0,0.0,0.0,0.0,0.0,0.0,0.0,0.0,0.0,0.0,0.0,0.0,0.0,0.0,0.0,0.0,0.0,0.0,0.0,0.0,0.0,0.0,0.0,0.0,0.0,0.0,0.0,0.0,6.9069,6.8908,6.853,6.8481,6.8481,6.8481,6.6982,6.6574,6.7354,6.6476,6.6476,6.7354,6.811,6.7688,6.6091,6.617,6.5344,6.3839,6.3926,6.4096,6.4359,6.5127,6.4998,6.4284,6.4284,6.4284,6.4284,6.4284,6.4284,6.4284,6.4284,6.4284,6.4284,6.4284,6.4284,6.4284,6.4284,6.4284,6.4284,6.4284,6.4284,6.4284,6.4284,6.5544,6.6821,6.6821,6.8039,6.9085,6.8621,6.8095,6.7562,6.7088,6.6592,6.6214,6.6185,6.6882,6.7771,6.8622,6.6572,6.5218,6.6031,6.3168,6.1118,6.1118,6.1118,6.1118,6.1118,6.1118,6.1118,6.1118,6.1118,6.1118,6.1118,6.1118,6.1118,6.1118,6.1118,6.1118,6.1118,6.1118,6.1118,6.1118,6.1118,6.1118,5.0842,0.0,0.0,0.0,0.0,0.0,0.0,0.0,0.0,0.0,0.0,0.0,0.0,0.0,0.0,0.0,0.0,0.0,0.0,0.0,0.0,0.0,0.0,0.0,0.0,0.0,0.0,0.0,6.8684,6.8613,6.8506,6.8481,6.8481,6.8481,6.8073,6.7948,6.8171,6.7924,6.7924,6.8171,6.8394,6.7688,6.6128,6.6709,6.5812,6.3854,6.5031,6.4971,6.4037,6.4262,6.4266,6.4162,6.4162,6.4224,6.4284,6.4284,6.4284,6.4284,6.4284,6.4284,6.4284,6.4284,6.4284,6.4284,6.4284,6.4284,6.4284,6.4284,6.4284,6.4284,6.4284,6.5544,6.6821,6.6821,6.8039,6.915,6.9052,6.8602,6.805,6.7163,6.6871,6.6672,6.6271,6.6417,6.665,6.6882,6.5296,6.4145,6.4377,6.2472,6.1118,6.1118,6.1118,6.1118,6.1118,6.1118,6.1118,6.1118,6.1118,6.1118,6.1118,6.1118,6.1118,6.1118,6.1118,6.1118,6.1118,6.1118,6.1118,6.1118,6.1118,6.1118,0.0,0.0,0.0,0.0,0.0,0.0,5.2878,5.5458,5.8084,0.0,0.0,0.0,0.0,0.0,0.0,0.0,0.0,0.0,0.0,0.0,0.0,0.0,0.0,0.0,0.0,6.8653,6.859,6.8023,6.8296,6.8481,6.8481,6.8481,6.8481,6.8481,6.8171,6.8147,6.8481,6.8171,6.8171,6.8481,6.8481,6.7688,6.6128,6.6945,6.5966,6.3788,6.5068,6.4927,6.3764,6.3764,6.3851,6.4021,6.4063,6.4162,6.4224,6.4284,6.4284,6.4284,6.4284,6.4284,6.4284,6.4284,6.4284,6.4284,6.4284,6.4284,6.4284,6.4284,6.4284,6.4284,6.4284,6.5261,6.6349,6.6708,6.7776,6.879,6.9106,6.898,6.8603,6.7944,6.7382,6.6935,6.6763,6.6456,6.6456,6.7191,6.5837,6.5025,6.5721,6.4329,6.2975,6.224,6.2162,6.1892,6.1157,6.1118,6.1118,6.1118,6.1118,6.1118,6.1118,6.1118,6.1118,6.1118,6.1118,6.1118,6.1118,6.1118,6.1118,6.1118,6.1118,6.1118,0.0,0.0,0.0,0.0,0.0,0.0,5.2322,5.4726,5.7112,5.9328,0.0,0.0,0.0,0.0,0.0,0.0,0.0,0.0,0.0,0.0,0.0,0.0,0.0,0.0,6.7354,6.7924,6.8073,6.7354,6.806,6.8481,6.8481,6.8481,6.8481,6.8481,6.7837,6.78,6.8481,6.78,6.78,6.8481,6.8481,6.7725,6.6277,6.7094,6.6091,6.3788,6.4582,6.4433,6.3602,6.3602,6.3698,6.3915,6.4,6.41,6.4083,6.4244,6.4284,6.4284,6.4284,6.4284,6.4284,6.4284,6.4284,6.4284,6.4284,6.4284,6.4284,6.4284,6.4284,6.4284,6.4284,6.4885,6.5711,6.6596,6.7401,6.8227,6.9031,6.9181,6.9173,6.9095,6.808,6.7308,6.7531,6.69,6.692,6.8661,6.7384,6.6843,6.8584,6.7268,6.5566,6.3874,6.3719,6.2975,6.1234,6.1118,6.1118,6.1118,6.1118,6.1118,6.1118,6.1118,6.1118,6.1118,6.1118,6.1118,6.1118,6.1118,6.1118,6.1118,6.1118,6.1118,0.0,0.0,0.0,0.0,0.0,0.0,5.0241,5.2135,5.405,0.0,0.0,0.0,0.0,0.0,0.0,0.0,0.0,0.0,0.0,0.0,0.0,0.0,0.0,0.0,6.7243,6.7465,6.7465,6.7317,6.806,6.8481,6.8481,6.8481,6.8481,6.8481,6.8333,6.8333,6.8481,6.8333,6.8333,6.8481,6.8481,6.8023,6.7094,6.7911,6.6908,6.4619,6.5496,6.5013,6.3602,6.3602,6.3691,6.3823,6.3845,6.3953,6.4083,6.4142,6.4203,6.4284,6.4284,6.4284,6.4284,6.4284,6.4284,6.4284,6.4284,6.4284,6.4284,6.4284,6.4284,6.4284,6.4284,6.4885,6.5711,6.6596,6.7401,6.8227,6.9031,6.9181,6.9277,6.9607,6.907,6.8487,6.8193,6.7641,6.781,6.9512,6.7733,6.6843,6.8584,6.7268,6.5566,6.3874,6.3719,6.2975,6.1234,6.1118,6.1118,6.1118,6.1118,6.1118,6.1118,6.1118,6.1118,6.1118,6.1118,6.1118,6.1118,6.1118,6.1118,6.1118,6.1118,6.1118,0.0,0.0,0.0,5.163,0.0,0.0,0.0,5.1721,5.3186,5.3186,0.0,0.0,0.0,0.0,0.0,0.0,0.0,0.0,0.0,0.0,0.0,0.0,0.0,0.0,6.6054,6.6462,6.6871,6.728,6.7688,6.8097,6.8506,6.8481,6.8481,6.8481,6.8481,6.8481,6.8481,6.8481,6.8481,6.8481,6.8481,6.8097,6.7354,6.811,6.7391,6.5496,6.5905,6.5385,6.4173,6.3765,6.3624,6.3691,6.3758,6.3845,6.3953,6.3979,6.4083,6.4203,6.4203,6.4244,6.4284,6.4284,6.4284,6.4284,6.4284,6.4284,6.4284,6.4284,6.4284,6.4284,6.4284,6.4585,6.5223,6.652,6.7121,6.7739,6.8919,6.9181,6.9268,6.946,6.9565,6.9482,6.8998,6.8494,6.8584,6.9821,6.8893,6.8584,6.9899,6.928,6.8081,6.6417,6.545,6.4251,6.2549,6.1582,6.1118,6.1118,6.1118,6.1118,6.1118,6.1118,6.1118,6.1118,6.1118,6.1118,6.1118,6.1118,6.1118,6.1118,6.1118,6.1118,0.0,0.0,0.0,0.0,0.0,5.1158,0.0,0.0,0.0,5.2736,0.0,0.0,0.0,0.0,0.0,0.0,0.0,0.0,0.0,0.0,0.0,0.0,0.0,0.0,0.0,6.5608,6.6388,6.702,6.7354,6.7763,6.8246,6.8431,6.8481,6.8481,6.8481,6.8481,6.8481,6.8481,6.8481,6.8481,6.8481,6.8147,6.7577,6.8208,6.7725,6.6351,6.6351,6.5756,6.473,6.4099,6.3728,6.3602,6.3714,6.3758,6.3802,6.3851,6.3958,6.4042,6.4042,6.4162,6.4264,6.4264,6.4284,6.4284,6.4284,6.4284,6.4284,6.4284,6.4284,6.4284,6.4284,6.4284,6.466,6.6182,6.6671,6.7176,6.8677,6.9069,6.9181,6.9181,6.9721,7.0091,6.9721,6.9319,6.9319,7.0131,7.0092,7.0324,7.1175,7.1291,7.0672,6.897,6.723,6.5528,6.3835,6.2085,6.1118,6.1118,6.1118,6.1118,6.1118,6.1118,6.1118,6.1118,6.1118,6.1118,6.1118,6.1118,6.1118,6.1118,6.1118,6.1118,0.0,0.0,0.0,0.0,5.2998,0.0,0.0,0.0,5.097,5.097,0.0,0.0,0.0,0.0,0.0,0.0,0.0,0.0,0.0,0.0,0.0,0.0,0.0,0.0,0.0,6.5608,6.6128,6.6239,6.7577,6.8097,6.7465,6.8134,6.8481,6.8481,6.8481,6.8481,6.8481,6.8481,6.8481,6.8481,6.8481,6.8468,6.837,6.8444,6.7999,6.7168,6.7168,6.6253,6.4768,6.4693,6.4233,6.3602,6.3602,6.3691,6.378,6.3802,6.3867,6.3915,6.3915,6.4,6.4142,6.4142,6.4203,6.4284,6.4284,6.4284,6.4284,6.4284,6.4284,6.4284,6.4284,6.4284,6.451,6.5411,6.6237,6.7046,6.7926,6.8715,6.9181,6.9181,6.9562,6.9943,7.0151,7.0003,7.017,7.1021,7.0479,7.0324,7.1175,7.1291,7.0672,6.897,6.723,6.5528,6.3835,6.2085,6.1118,6.1118,6.1118,6.1118,6.1118,6.1118,6.1118,6.1118,6.1118,6.1118,6.1118,6.1118,6.1118,6.1118,6.1118,6.1118,0.0,0.0,0.0,0.0,0.0,0.0,5.2736,0.0,5.1255,0.0,0.0,0.0,0.0,0.0,0.0,0.0,0.0,0.0,0.0,0.0,0.0,0.0,0.0,0.0,0.0,0.0,0.0,0.0,6.6202,6.7391,6.7986,6.8296,6.8481,6.8481,6.8481,6.8481,6.8481,6.8481,6.8481,6.8481,6.8481,6.8481,6.8481,6.8481,6.8296,6.7986,6.7503,6.6648,6.5571,6.5571,6.5051,6.4308,6.4308,6.4033,6.3669,6.3669,6.3758,6.3845,6.3845,6.3894,6.3979,6.4063,6.4142,6.4203,6.4264,6.4284,6.4284,6.4284,6.4284,6.4284,6.4284,6.4284,6.451,6.5298,6.6162,6.7046,6.7814,6.864,6.9181,6.9181,6.9521,6.9909,7.0255,7.0378,7.0667,7.1231,7.0982,7.0905,7.1253,7.1291,7.1021,7.0324,6.8738,6.6998,6.5296,6.3594,6.2162,6.1157,6.1118,6.1118,6.1118,6.1118,6.1118,6.1118,6.1118,6.1118,6.1118,6.1118,6.1118,6.1118,6.1118,6.1118,5.6383,0.0,0.0,0.0,0.0,0.0,0.0,0.0,0.0,0.0,0.0,0.0,0.0,0.0,0.0,0.0,0.0,0.0,0.0,0.0,0.0,0.0,0.0,0.0,0.0,0.0,0.0,6.2859,6.4679,6.6351,6.78,6.8283,6.8481,6.8481,6.8481,6.8481,6.8481,6.8481,6.8481,6.8481,6.8481,6.8481,6.8481,6.8481,6.8481,6.8444,6.7874,6.7168,6.6425,6.6425,6.5942,6.5162,6.5162,6.4656,6.3899,6.3653,6.3647,6.3736,6.3736,6.3802,6.3873,6.4,6.4063,6.4142,6.4224,6.4264,6.4284,6.4284,6.4284,6.4284,6.4284,6.4284,6.4434,6.5035,6.5824,6.665,6.7476,6.8302,6.8919,6.9144,6.9419,6.9778,7.0238,7.0584,7.0915,7.1258,7.1291,7.1291,7.1291,7.1291,7.1291,7.1291,6.9783,6.8081,6.634,6.4638,6.2936,6.1195,6.1118,6.1118,6.1118,6.1118,6.1118,6.1118,6.1118,6.1118,6.1118,6.1118,6.1118,6.1118,6.1118,6.1118,0.0,0.0,0.0,5.794,0.0,0.0,0.0,0.0,5.3149,0.0,0.0,0.0,0.0,0.0,0.0,0.0,0.0,0.0,0.0,0.0,0.0,0.0,0.0,0.0,0.0,0.0,0.0,6.1224,6.349,6.5236,6.6128,6.7651,6.8481,6.8481,6.8481,6.8481,6.8481,6.8481,6.8481,6.8481,6.8481,6.8481,6.8481,6.8481,6.8481,6.8481,6.8444,6.7999,6.728,6.728,6.6797,6.6054,6.6054,6.5534,6.4656,6.3876,6.3602,6.3602,6.3602,6.3691,6.3802,6.3894,6.4,6.4121,6.4121,6.4203,6.4284,6.4284,6.4284,6.4284,6.4284,6.4284,6.4304,6.4322,6.496,6.5786,6.6671,6.7476,6.8264,6.9031,6.9203,6.946,7.0188,7.0584,7.0915,7.1258,7.1291,7.1291,7.1291,7.1291,7.1291,7.1291,6.9783,6.8081,6.634,6.4638,6.2936,6.1195,6.1118,6.1118,6.1118,6.1118,6.1118,6.1118,6.1118,6.1118,6.1118,6.1118,6.1118,6.1118,6.1118,6.1118,0.0,0.0,5.7847,5.7941,0.0,0.0,0.0,0.0,0.0,0.0,0.0,0.0,0.0,0.0,0.0,0.0,0.0,0.0,0.0,0.0,0.0,0.0,0.0,0.0,0.0,0.0,0.0,5.8698,6.0518,6.2614,6.5125,6.5733,6.6773,6.8468,6.8481,6.8481,6.8481,6.8481,6.8481,6.8481,6.8481,6.8481,6.8481,6.8481,6.8481,6.8481,6.8481,6.8036,6.7354,6.7874,6.7614,6.6908,6.6908,6.6388,6.5571,6.4716,6.4085,6.3602,6.3602,6.3624,6.3669,6.3802,6.3867,6.391,6.3937,6.4042,6.4183,6.4183,6.4224,6.4284,6.4284,6.4284,6.4284,6.4284,6.5336,6.6425,6.6746,6.7851,6.8844,6.9144,6.9181,6.944,7.0188,7.04,7.0657,7.1236,7.1291,7.1291,7.1291,7.1291,7.1291,7.1291,7.0789,6.9319,6.6456,6.3594,6.1737,6.1157,6.1118,6.1118,6.1118,6.1118,6.1118,6.1118,6.1118,6.1118,6.1118,6.1118,6.1118,6.1118,6.1118,6.1118,6.3994,6.2225,0.0,6.0481,5.8651,0.0,5.6947,0.0,0.0,0.0,0.0,0.0,0.0,0.0,0.0,0.0,0.0,0.0,0.0,0.0,0.0,0.0,0.0,0.0,0.0,0.0,5.5874,5.6989,5.8326,6.0221,0.0,0.0,6.5213,6.7107,6.7739,6.8208,6.8481,6.8481,6.8481,6.8481,6.8481,6.8481,6.8481,6.8481,6.8481,6.8481,6.8481,6.8208,6.78,6.8296,6.8184,6.7725,6.7725,6.7243,6.6388,6.5236,6.4285,6.3602,6.3602,6.3602,6.3602,6.3691,6.3736,6.3876,6.4203,6.4385,6.4566,6.4907,6.5045,6.5144,6.5185,6.5206,6.5206,6.5206,6.6032,6.6896,6.7138,6.8039,6.8844,6.9144,6.9181,6.9399,7.0015,7.0222,7.0539,7.1186,7.1291,7.1291,7.1291,7.1291,7.1291,7.1291,7.1291,6.9899,6.6495,6.3052,6.1118,6.1118,6.1118,6.1118,6.1118,6.1118,6.1118,6.1118,6.1118,6.1118,6.1118,6.1118,6.1118,6.1118,6.1118,6.1118]}]]